﻿<?xml version="1.0" encoding="utf-8"?><gpx creator="Garmin Desktop App" version="1.1" xsi:schemaLocation="http://www.topografix.com/GPX/1/1 http://www.topografix.com/GPX/1/1/gpx.xsd http://www.garmin.com/xmlschemas/WaypointExtension/v1 http://www8.garmin.com/xmlschemas/WaypointExtensionv1.xsd http://www.garmin.com/xmlschemas/TrackPointExtension/v1 http://www.garmin.com/xmlschemas/TrackPointExtensionv1.xsd http://www.garmin.com/xmlschemas/GpxExtensions/v3 http://www8.garmin.com/xmlschemas/GpxExtensionsv3.xsd http://www.garmin.com/xmlschemas/ActivityExtension/v1 http://www8.garmin.com/xmlschemas/ActivityExtensionv1.xsd http://www.garmin.com/xmlschemas/AdventuresExtensions/v1 http://www8.garmin.com/xmlschemas/AdventuresExtensionv1.xsd http://www.garmin.com/xmlschemas/PressureExtension/v1 http://www.garmin.com/xmlschemas/PressureExtensionv1.xsd http://www.garmin.com/xmlschemas/TripExtensions/v1 http://www.garmin.com/xmlschemas/TripExtensionsv1.xsd http://www.garmin.com/xmlschemas/TripMetaDataExtensions/v1 http://www.garmin.com/xmlschemas/TripMetaDataExtensionsv1.xsd http://www.garmin.com/xmlschemas/ViaPointTransportationModeExtensions/v1 http://www.garmin.com/xmlschemas/ViaPointTransportationModeExtensionsv1.xsd http://www.garmin.com/xmlschemas/CreationTimeExtension/v1 http://www.garmin.com/xmlschemas/CreationTimeExtensionsv1.xsd http://www.garmin.com/xmlschemas/AccelerationExtension/v1 http://www.garmin.com/xmlschemas/AccelerationExtensionv1.xsd http://www.garmin.com/xmlschemas/PowerExtension/v1 http://www.garmin.com/xmlschemas/PowerExtensionv1.xsd http://www.garmin.com/xmlschemas/VideoExtension/v1 http://www.garmin.com/xmlschemas/VideoExtensionv1.xsd" xmlns="http://www.topografix.com/GPX/1/1" xmlns:xsi="http://www.w3.org/2001/XMLSchema-instance" xmlns:wptx1="http://www.garmin.com/xmlschemas/WaypointExtension/v1" xmlns:gpxtrx="http://www.garmin.com/xmlschemas/GpxExtensions/v3" xmlns:gpxtpx="http://www.garmin.com/xmlschemas/TrackPointExtension/v1" xmlns:gpxx="http://www.garmin.com/xmlschemas/GpxExtensions/v3" xmlns:trp="http://www.garmin.com/xmlschemas/TripExtensions/v1" xmlns:adv="http://www.garmin.com/xmlschemas/AdventuresExtensions/v1" xmlns:prs="http://www.garmin.com/xmlschemas/PressureExtension/v1" xmlns:tmd="http://www.garmin.com/xmlschemas/TripMetaDataExtensions/v1" xmlns:vptm="http://www.garmin.com/xmlschemas/ViaPointTransportationModeExtensions/v1" xmlns:ctx="http://www.garmin.com/xmlschemas/CreationTimeExtension/v1" xmlns:gpxacc="http://www.garmin.com/xmlschemas/AccelerationExtension/v1" xmlns:gpxpx="http://www.garmin.com/xmlschemas/PowerExtension/v1" xmlns:vidx1="http://www.garmin.com/xmlschemas/VideoExtension/v1">

  <metadata>
    <link href="http://www.garmin.com">
      <text>Garmin International</text>
    </link>
    <time>2019-04-28T19:18:46Z</time>
    <bounds maxlat="50.844976427033544" maxlon="5.104423044249415" minlat="50.791627960279584" minlon="5.036768093705177" />
  </metadata>

  <trk>
    <name>neerhespen getehof 26 km</name>
    <extensions>
      <gpxx:TrackExtension>
        <gpxx:DisplayColor>Red</gpxx:DisplayColor>
      </gpxx:TrackExtension>
    </extensions>
    <trkseg>
      <trkpt lat="50.792137999087572" lon="5.047026537358761">
        <ele>187.59999999999999</ele>
        <time>2019-04-22T11:46:19Z</time>
      </trkpt>
      <trkpt lat="50.792151410132647" lon="5.047079846262932">
        <ele>181.96000000000001</ele>
        <time>2019-04-22T11:47:26Z</time>
      </trkpt>
      <trkpt lat="50.792149901390076" lon="5.047067021951079">
        <ele>179.87</ele>
        <time>2019-04-22T11:47:52Z</time>
      </trkpt>
      <trkpt lat="50.79213640652597" lon="5.047096945345402">
        <ele>177.13999999999999</ele>
        <time>2019-04-22T11:48:27Z</time>
      </trkpt>
      <trkpt lat="50.792137663811445" lon="5.047109099105001">
        <ele>174.72</ele>
        <time>2019-04-22T11:48:59Z</time>
      </trkpt>
      <trkpt lat="50.792143950238824" lon="5.047095436602831">
        <ele>172.34</ele>
        <time>2019-04-22T11:49:31Z</time>
      </trkpt>
      <trkpt lat="50.792133221402764" lon="5.047116139903665">
        <ele>169.91</ele>
        <time>2019-04-22T11:50:04Z</time>
      </trkpt>
      <trkpt lat="50.792109249159694" lon="5.047173388302326">
        <ele>168.81999999999999</ele>
        <time>2019-04-22T11:50:19Z</time>
      </trkpt>
      <trkpt lat="50.79213984310627" lon="5.047113625332713">
        <ele>168.15000000000001</ele>
        <time>2019-04-22T11:50:39Z</time>
      </trkpt>
      <trkpt lat="50.792151661589742" lon="5.047119744122028">
        <ele>167.12</ele>
        <time>2019-04-22T11:50:53Z</time>
      </trkpt>
      <trkpt lat="50.792132467031479" lon="5.047112870961428">
        <ele>166.12</ele>
        <time>2019-04-22T11:51:07Z</time>
      </trkpt>
      <trkpt lat="50.79211444593966" lon="5.047124018892646">
        <ele>163.83000000000001</ele>
        <time>2019-04-22T11:51:39Z</time>
      </trkpt>
      <trkpt lat="50.792104136198759" lon="5.047119911760092">
        <ele>161.09</ele>
        <time>2019-04-22T11:52:18Z</time>
      </trkpt>
      <trkpt lat="50.79210514202714" lon="5.047134580090642">
        <ele>158.62</ele>
        <time>2019-04-22T11:52:54Z</time>
      </trkpt>
      <trkpt lat="50.792077984660864" lon="5.04712326452136">
        <ele>156.66</ele>
        <time>2019-04-22T11:53:23Z</time>
      </trkpt>
      <trkpt lat="50.792085193097591" lon="5.04713935777545">
        <ele>154.94</ele>
        <time>2019-04-22T11:53:49Z</time>
      </trkpt>
      <trkpt lat="50.792080415412784" lon="5.04711052402854">
        <ele>153.02000000000001</ele>
        <time>2019-04-22T11:54:19Z</time>
      </trkpt>
      <trkpt lat="50.792094999924302" lon="5.047127204015851">
        <ele>151.22999999999999</ele>
        <time>2019-04-22T11:54:47Z</time>
      </trkpt>
      <trkpt lat="50.792133053764701" lon="5.047114631161094">
        <ele>149.18000000000001</ele>
        <time>2019-04-22T11:55:19Z</time>
      </trkpt>
      <trkpt lat="50.79214277677238" lon="5.047125108540058">
        <ele>148.03999999999999</ele>
        <time>2019-04-22T11:55:52Z</time>
      </trkpt>
      <trkpt lat="50.792136657983065" lon="5.047134915366769">
        <ele>146.13999999999999</ele>
        <time>2019-04-22T11:56:23Z</time>
      </trkpt>
      <trkpt lat="50.792144536972046" lon="5.04711982794106">
        <ele>144.05000000000001</ele>
        <time>2019-04-22T11:56:58Z</time>
      </trkpt>
      <trkpt lat="50.792124001309276" lon="5.047136675566435">
        <ele>142.34</ele>
        <time>2019-04-22T11:57:27Z</time>
      </trkpt>
      <trkpt lat="50.79212324693799" lon="5.04713742993772">
        <ele>139.97</ele>
        <time>2019-04-22T11:58:08Z</time>
      </trkpt>
      <trkpt lat="50.792150739580393" lon="5.047133071348071">
        <ele>137.72</ele>
        <time>2019-04-22T11:58:48Z</time>
      </trkpt>
      <trkpt lat="50.792172029614449" lon="5.047121839597821">
        <ele>136.40000000000001</ele>
        <time>2019-04-22T11:59:12Z</time>
      </trkpt>
      <trkpt lat="50.792146548628807" lon="5.04709929227829">
        <ele>135.05000000000001</ele>
        <time>2019-04-22T11:59:37Z</time>
      </trkpt>
      <trkpt lat="50.792132467031479" lon="5.047058556228876">
        <ele>133.44999999999999</ele>
        <time>2019-04-22T12:00:07Z</time>
      </trkpt>
      <trkpt lat="50.792132215574384" lon="5.047053107991815">
        <ele>131.75999999999999</ele>
        <time>2019-04-22T12:00:39Z</time>
      </trkpt>
      <trkpt lat="50.792132467031479" lon="5.047039529308677">
        <ele>130.56999999999999</ele>
        <time>2019-04-22T12:01:02Z</time>
      </trkpt>
      <trkpt lat="50.792044289410114" lon="5.04709149710834">
        <ele>129.65000000000001</ele>
        <time>2019-04-22T12:01:20Z</time>
      </trkpt>
      <trkpt lat="50.79203037545085" lon="5.047120079398155">
        <ele>129.55000000000001</ele>
        <time>2019-04-22T12:01:22Z</time>
      </trkpt>
      <trkpt lat="50.791894420981407" lon="5.04737245850265">
        <ele>129.53</ele>
        <time>2019-04-22T12:01:39Z</time>
      </trkpt>
      <trkpt lat="50.791802974417806" lon="5.047544622793794">
        <ele>128.84</ele>
        <time>2019-04-22T12:01:52Z</time>
      </trkpt>
      <trkpt lat="50.791698954999447" lon="5.047717457637191">
        <ele>128.11000000000001</ele>
        <time>2019-04-22T12:02:06Z</time>
      </trkpt>
      <trkpt lat="50.791686968877912" lon="5.04779264330864">
        <ele>127.95</ele>
        <time>2019-04-22T12:02:09Z</time>
      </trkpt>
      <trkpt lat="50.791846308857203" lon="5.048035467043519">
        <ele>127.17</ele>
        <time>2019-04-22T12:02:24Z</time>
      </trkpt>
      <trkpt lat="50.792056610807776" lon="5.048245433717966">
        <ele>126.22</ele>
        <time>2019-04-22T12:02:42Z</time>
      </trkpt>
      <trkpt lat="50.792173035442829" lon="5.048431176692247">
        <ele>125.5</ele>
        <time>2019-04-22T12:02:55Z</time>
      </trkpt>
      <trkpt lat="50.792321981862187" lon="5.048690512776375">
        <ele>124.69</ele>
        <time>2019-04-22T12:03:12Z</time>
      </trkpt>
      <trkpt lat="50.792456427589059" lon="5.048955213278532">
        <ele>121.66</ele>
        <time>2019-04-22T12:03:27Z</time>
      </trkpt>
      <trkpt lat="50.792591376230121" lon="5.049205077812076">
        <ele>120.95</ele>
        <time>2019-04-22T12:03:42Z</time>
      </trkpt>
      <trkpt lat="50.792730264365673" lon="5.049478830769658">
        <ele>120.2</ele>
        <time>2019-04-22T12:03:58Z</time>
      </trkpt>
      <trkpt lat="50.793003933504224" lon="5.049955006688833">
        <ele>118</ele>
        <time>2019-04-22T12:04:28Z</time>
      </trkpt>
      <trkpt lat="50.793058583512902" lon="5.050029270350933">
        <ele>117.76000000000001</ele>
        <time>2019-04-22T12:04:33Z</time>
      </trkpt>
      <trkpt lat="50.79326125793159" lon="5.050343424081802">
        <ele>116.81999999999999</ele>
        <time>2019-04-22T12:04:52Z</time>
      </trkpt>
      <trkpt lat="50.793398302048445" lon="5.050569400191307">
        <ele>115.40000000000001</ele>
        <time>2019-04-22T12:05:06Z</time>
      </trkpt>
      <trkpt lat="50.793514475226402" lon="5.050841309130192">
        <ele>114.77</ele>
        <time>2019-04-22T12:05:20Z</time>
      </trkpt>
      <trkpt lat="50.79363307915628" lon="5.051096873357892">
        <ele>114.13</ele>
        <time>2019-04-22T12:05:34Z</time>
      </trkpt>
      <trkpt lat="50.793761070817709" lon="5.051382193341851">
        <ele>113.45</ele>
        <time>2019-04-22T12:05:49Z</time>
      </trkpt>
      <trkpt lat="50.793847488239408" lon="5.051646055653691">
        <ele>112.88</ele>
        <time>2019-04-22T12:06:02Z</time>
      </trkpt>
      <trkpt lat="50.793872298672795" lon="5.051741860806942">
        <ele>112.7</ele>
        <time>2019-04-22T12:06:06Z</time>
      </trkpt>
      <trkpt lat="50.793997859582305" lon="5.052073197439313">
        <ele>112.02</ele>
        <time>2019-04-22T12:06:22Z</time>
      </trkpt>
      <trkpt lat="50.794115122407675" lon="5.052404701709747">
        <ele>111.34</ele>
        <time>2019-04-22T12:06:38Z</time>
      </trkpt>
      <trkpt lat="50.794241689145565" lon="5.052682058885694">
        <ele>110.64</ele>
        <time>2019-04-22T12:06:54Z</time>
      </trkpt>
      <trkpt lat="50.794344367459416" lon="5.052996212616563">
        <ele>110.05</ele>
        <time>2019-04-22T12:07:09Z</time>
      </trkpt>
      <trkpt lat="50.794400358572602" lon="5.05316267721355">
        <ele>112.03</ele>
        <time>2019-04-22T12:07:17Z</time>
      </trkpt>
      <trkpt lat="50.794418882578611" lon="5.053221015259624">
        <ele>111.90000000000001</ele>
        <time>2019-04-22T12:07:20Z</time>
      </trkpt>
      <trkpt lat="50.794513430446386" lon="5.05357950925827">
        <ele>113.14</ele>
        <time>2019-04-22T12:07:38Z</time>
      </trkpt>
      <trkpt lat="50.794535391032696" lon="5.053691742941737">
        <ele>110.58</ele>
        <time>2019-04-22T12:07:43Z</time>
      </trkpt>
      <trkpt lat="50.79463429749012" lon="5.0539924018085">
        <ele>109.98999999999999</ele>
        <time>2019-04-22T12:07:58Z</time>
      </trkpt>
      <trkpt lat="50.794764216989279" lon="5.054283337667584">
        <ele>109.33</ele>
        <time>2019-04-22T12:08:13Z</time>
      </trkpt>
      <trkpt lat="50.794851304963231" lon="5.054591204971075">
        <ele>108.70999999999999</ele>
        <time>2019-04-22T12:08:27Z</time>
      </trkpt>
      <trkpt lat="50.794895393773913" lon="5.055009881034493">
        <ele>108.09</ele>
        <time>2019-04-22T12:08:43Z</time>
      </trkpt>
      <trkpt lat="50.794919449836016" lon="5.055401483550668">
        <ele>107.40000000000001</ele>
        <time>2019-04-22T12:08:59Z</time>
      </trkpt>
      <trkpt lat="50.794912911951542" lon="5.05550910718739">
        <ele>106.48999999999999</ele>
        <time>2019-04-22T12:09:03Z</time>
      </trkpt>
      <trkpt lat="50.794900255277753" lon="5.055937087163329">
        <ele>105.56999999999999</ele>
        <time>2019-04-22T12:09:24Z</time>
      </trkpt>
      <trkpt lat="50.794899500906467" lon="5.055954018607736">
        <ele>105.53</ele>
        <time>2019-04-22T12:09:25Z</time>
      </trkpt>
      <trkpt lat="50.794863291084766" lon="5.056206565350294">
        <ele>104.93000000000001</ele>
        <time>2019-04-22T12:09:39Z</time>
      </trkpt>
      <trkpt lat="50.794753488153219" lon="5.056637981906533">
        <ele>104.23</ele>
        <time>2019-04-22T12:09:53Z</time>
      </trkpt>
      <trkpt lat="50.794725241139531" lon="5.056750969961286">
        <ele>103.98</ele>
        <time>2019-04-22T12:09:58Z</time>
      </trkpt>
      <trkpt lat="50.79465533606708" lon="5.057144751772285">
        <ele>103.23</ele>
        <time>2019-04-22T12:10:15Z</time>
      </trkpt>
      <trkpt lat="50.794612839818001" lon="5.057574659585953">
        <ele>102.52</ele>
        <time>2019-04-22T12:10:32Z</time>
      </trkpt>
      <trkpt lat="50.794645361602306" lon="5.057867104187608">
        <ele>101.84999999999999</ele>
        <time>2019-04-22T12:10:45Z</time>
      </trkpt>
      <trkpt lat="50.794644188135862" lon="5.058155190199614">
        <ele>101.23</ele>
        <time>2019-04-22T12:10:59Z</time>
      </trkpt>
      <trkpt lat="50.794652318581939" lon="5.058216126635671">
        <ele>103.95</ele>
        <time>2019-04-22T12:11:02Z</time>
      </trkpt>
      <trkpt lat="50.79464502632618" lon="5.058632707223296">
        <ele>103.09999999999999</ele>
        <time>2019-04-22T12:11:19Z</time>
      </trkpt>
      <trkpt lat="50.794621305540204" lon="5.058817863464356">
        <ele>95.239999999999995</ele>
        <time>2019-04-22T12:11:26Z</time>
      </trkpt>
      <trkpt lat="50.794614516198635" lon="5.058847535401583">
        <ele>101.98999999999999</ele>
        <time>2019-04-22T12:11:27Z</time>
      </trkpt>
      <trkpt lat="50.794607559219003" lon="5.05910879932344">
        <ele>101.51000000000001</ele>
        <time>2019-04-22T12:11:38Z</time>
      </trkpt>
      <trkpt lat="50.794591717422009" lon="5.059229917824268">
        <ele>101.23</ele>
        <time>2019-04-22T12:11:43Z</time>
      </trkpt>
      <trkpt lat="50.794584257528186" lon="5.059397052973509">
        <ele>100.95999999999999</ele>
        <time>2019-04-22T12:11:49Z</time>
      </trkpt>
      <trkpt lat="50.79457076266408" lon="5.059489253908396">
        <ele>100.89</ele>
        <time>2019-04-22T12:11:53Z</time>
      </trkpt>
      <trkpt lat="50.794572187587619" lon="5.059575755149126">
        <ele>100.65000000000001</ele>
        <time>2019-04-22T12:11:57Z</time>
      </trkpt>
      <trkpt lat="50.79460496082902" lon="5.059919664636254">
        <ele>99.900000000000006</ele>
        <time>2019-04-22T12:12:13Z</time>
      </trkpt>
      <trkpt lat="50.794622227549553" lon="5.061059687286615">
        <ele>98.819999999999993</ele>
        <time>2019-04-22T12:12:58Z</time>
      </trkpt>
      <trkpt lat="50.79481995664537" lon="5.061120036989451">
        <ele>99.189999999999998</ele>
        <time>2019-04-22T12:13:13Z</time>
      </trkpt>
      <trkpt lat="50.795078705996275" lon="5.061130179092288">
        <ele>98.340000000000003</ele>
        <time>2019-04-22T12:13:31Z</time>
      </trkpt>
      <trkpt lat="50.795103684067726" lon="5.061139734461904">
        <ele>95.519999999999996</ele>
        <time>2019-04-22T12:13:33Z</time>
      </trkpt>
      <trkpt lat="50.795158501714468" lon="5.061179967597127">
        <ele>95.379999999999995</ele>
        <time>2019-04-22T12:13:37Z</time>
      </trkpt>
      <trkpt lat="50.795365702360868" lon="5.061436705291271">
        <ele>94.090000000000003</ele>
        <time>2019-04-22T12:13:55Z</time>
      </trkpt>
      <trkpt lat="50.795552702620625" lon="5.061727641150355">
        <ele>92.659999999999997</ele>
        <time>2019-04-22T12:14:12Z</time>
      </trkpt>
      <trkpt lat="50.795720089226961" lon="5.06197314709425">
        <ele>94.530000000000001</ele>
        <time>2019-04-22T12:14:27Z</time>
      </trkpt>
      <trkpt lat="50.795818408951163" lon="5.062146652489901">
        <ele>94.230000000000004</ele>
        <time>2019-04-22T12:14:37Z</time>
      </trkpt>
      <trkpt lat="50.79584221355617" lon="5.062220664694905">
        <ele>94.299999999999997</ele>
        <time>2019-04-22T12:14:41Z</time>
      </trkpt>
      <trkpt lat="50.795908765867352" lon="5.062344800680876">
        <ele>93.920000000000002</ele>
        <time>2019-04-22T12:14:48Z</time>
      </trkpt>
      <trkpt lat="50.796121079474688" lon="5.062621152028441">
        <ele>93.129999999999995</ele>
        <time>2019-04-22T12:15:06Z</time>
      </trkpt>
      <trkpt lat="50.796302631497383" lon="5.062926504760981">
        <ele>92.659999999999997</ele>
        <time>2019-04-22T12:15:24Z</time>
      </trkpt>
      <trkpt lat="50.796525673940778" lon="5.063243508338928">
        <ele>92.079999999999998</ele>
        <time>2019-04-22T12:15:43Z</time>
      </trkpt>
      <trkpt lat="50.796720469370484" lon="5.063537796959281">
        <ele>86.349999999999994</ele>
        <time>2019-04-22T12:16:01Z</time>
      </trkpt>
      <trkpt lat="50.796731449663639" lon="5.06355338729918">
        <ele>91.739999999999995</ele>
        <time>2019-04-22T12:16:02Z</time>
      </trkpt>
      <trkpt lat="50.796927250921726" lon="5.063881119713187">
        <ele>91.209999999999994</ele>
        <time>2019-04-22T12:16:22Z</time>
      </trkpt>
      <trkpt lat="50.797227406874299" lon="5.064339693635702">
        <ele>90.390000000000001</ele>
        <time>2019-04-22T12:16:50Z</time>
      </trkpt>
      <trkpt lat="50.797487832605839" lon="5.064753256738186">
        <ele>89.560000000000002</ele>
        <time>2019-04-22T12:17:15Z</time>
      </trkpt>
      <trkpt lat="50.797655219212174" lon="5.065018711611629">
        <ele>89.030000000000001</ele>
        <time>2019-04-22T12:17:31Z</time>
      </trkpt>
      <trkpt lat="50.797856971621513" lon="5.065317023545504">
        <ele>88.450000000000003</ele>
        <time>2019-04-22T12:17:49Z</time>
      </trkpt>
      <trkpt lat="50.797892846167088" lon="5.065371757373214">
        <ele>85.189999999999998</ele>
        <time>2019-04-22T12:17:52Z</time>
      </trkpt>
      <trkpt lat="50.797903910279274" lon="5.065388437360525">
        <ele>89.140000000000001</ele>
        <time>2019-04-22T12:17:53Z</time>
      </trkpt>
      <trkpt lat="50.797926541417837" lon="5.06541995331645">
        <ele>85.900000000000006</ele>
        <time>2019-04-22T12:17:55Z</time>
      </trkpt>
      <trkpt lat="50.798117564991117" lon="5.065692951902747">
        <ele>88.159999999999997</ele>
        <time>2019-04-22T12:18:12Z</time>
      </trkpt>
      <trkpt lat="50.798282437026501" lon="5.065941642969847">
        <ele>87.719999999999999</ele>
        <time>2019-04-22T12:18:27Z</time>
      </trkpt>
      <trkpt lat="50.798444459214807" lon="5.066214054822922">
        <ele>87.430000000000007</ele>
        <time>2019-04-22T12:18:41Z</time>
      </trkpt>
      <trkpt lat="50.798676302656531" lon="5.066593838855624">
        <ele>86.75</ele>
        <time>2019-04-22T12:19:03Z</time>
      </trkpt>
      <trkpt lat="50.798850562423468" lon="5.066858874633908">
        <ele>86.299999999999997</ele>
        <time>2019-04-22T12:19:20Z</time>
      </trkpt>
      <trkpt lat="50.798957515507936" lon="5.067009581252933">
        <ele>83.390000000000001</ele>
        <time>2019-04-22T12:19:29Z</time>
      </trkpt>
      <trkpt lat="50.799088021740317" lon="5.067199179902673">
        <ele>75.400000000000006</ele>
        <time>2019-04-22T12:19:41Z</time>
      </trkpt>
      <trkpt lat="50.799098666757345" lon="5.067212926223874">
        <ele>80.519999999999996</ele>
        <time>2019-04-22T12:19:42Z</time>
      </trkpt>
      <trkpt lat="50.799121297895908" lon="5.067243603989482">
        <ele>82.969999999999999</ele>
        <time>2019-04-22T12:19:44Z</time>
      </trkpt>
      <trkpt lat="50.799307124689221" lon="5.06752154789865">
        <ele>83.989999999999995</ele>
        <time>2019-04-22T12:20:02Z</time>
      </trkpt>
      <trkpt lat="50.799330091103911" lon="5.067569576203823">
        <ele>80.420000000000002</ele>
        <time>2019-04-22T12:20:05Z</time>
      </trkpt>
      <trkpt lat="50.799340149387717" lon="5.067585501819849">
        <ele>80.390000000000001</ele>
        <time>2019-04-22T12:20:06Z</time>
      </trkpt>
      <trkpt lat="50.799535447731614" lon="5.067862523719668">
        <ele>80.060000000000002</ele>
        <time>2019-04-22T12:20:24Z</time>
      </trkpt>
      <trkpt lat="50.799742396920919" lon="5.0681924354285">
        <ele>79.5</ele>
        <time>2019-04-22T12:20:44Z</time>
      </trkpt>
      <trkpt lat="50.799864437431097" lon="5.068385470658541">
        <ele>81.689999999999998</ele>
        <time>2019-04-22T12:20:56Z</time>
      </trkpt>
      <trkpt lat="50.800019586458802" lon="5.068596862256527">
        <ele>81.390000000000001</ele>
        <time>2019-04-22T12:21:10Z</time>
      </trkpt>
      <trkpt lat="50.800172220915556" lon="5.068838931620121">
        <ele>81.010000000000005</ele>
        <time>2019-04-22T12:21:25Z</time>
      </trkpt>
      <trkpt lat="50.800338350236416" lon="5.069117126986384">
        <ele>80.659999999999997</ele>
        <time>2019-04-22T12:21:42Z</time>
      </trkpt>
      <trkpt lat="50.800491068512201" lon="5.069351317360997">
        <ele>80.329999999999998</ele>
        <time>2019-04-22T12:21:57Z</time>
      </trkpt>
      <trkpt lat="50.800703801214695" lon="5.06965784355998">
        <ele>77.579999999999998</ele>
        <time>2019-04-22T12:22:17Z</time>
      </trkpt>
      <trkpt lat="50.800869595259428" lon="5.069889519363642">
        <ele>77.260000000000005</ele>
        <time>2019-04-22T12:22:33Z</time>
      </trkpt>
      <trkpt lat="50.80099331215024" lon="5.070111136883497">
        <ele>76.959999999999994</ele>
        <time>2019-04-22T12:22:47Z</time>
      </trkpt>
      <trkpt lat="50.801179306581616" lon="5.07042302750051">
        <ele>76.579999999999998</ele>
        <time>2019-04-22T12:23:06Z</time>
      </trkpt>
      <trkpt lat="50.801327163353562" lon="5.07071421481669">
        <ele>76.219999999999999</ele>
        <time>2019-04-22T12:23:22Z</time>
      </trkpt>
      <trkpt lat="50.801474181935191" lon="5.071026859804988">
        <ele>75.879999999999995</ele>
        <time>2019-04-22T12:23:39Z</time>
      </trkpt>
      <trkpt lat="50.801534950733185" lon="5.071187959983945">
        <ele>79.390000000000001</ele>
        <time>2019-04-22T12:23:47Z</time>
      </trkpt>
      <trkpt lat="50.801543667912483" lon="5.071203969419003">
        <ele>79.370000000000005</ele>
        <time>2019-04-22T12:23:48Z</time>
      </trkpt>
      <trkpt lat="50.801549451425672" lon="5.071224085986614">
        <ele>76.129999999999995</ele>
        <time>2019-04-22T12:23:49Z</time>
      </trkpt>
      <trkpt lat="50.80155573785305" lon="5.071246968582273">
        <ele>76.099999999999994</ele>
        <time>2019-04-22T12:23:50Z</time>
      </trkpt>
      <trkpt lat="50.801565544679761" lon="5.071266749873757">
        <ele>76.069999999999993</ele>
        <time>2019-04-22T12:23:51Z</time>
      </trkpt>
      <trkpt lat="50.801678532734513" lon="5.071560116484761">
        <ele>75.780000000000001</ele>
        <time>2019-04-22T12:24:07Z</time>
      </trkpt>
      <trkpt lat="50.801817756146193" lon="5.071851052343845">
        <ele>75.510000000000005</ele>
        <time>2019-04-22T12:24:19Z</time>
      </trkpt>
      <trkpt lat="50.801947088912129" lon="5.072149280458689">
        <ele>75.129999999999995</ele>
        <time>2019-04-22T12:24:35Z</time>
      </trkpt>
      <trkpt lat="50.801996206864715" lon="5.072332844138145">
        <ele>74.939999999999998</ele>
        <time>2019-04-22T12:24:43Z</time>
      </trkpt>
      <trkpt lat="50.802087485790253" lon="5.072674490511417">
        <ele>74.579999999999998</ele>
        <time>2019-04-22T12:24:58Z</time>
      </trkpt>
      <trkpt lat="50.802203072234988" lon="5.072996690869331">
        <ele>74.25</ele>
        <time>2019-04-22T12:25:13Z</time>
      </trkpt>
      <trkpt lat="50.802293010056019" lon="5.073246387764812">
        <ele>73.099999999999994</ele>
        <time>2019-04-22T12:25:26Z</time>
      </trkpt>
      <trkpt lat="50.802385127171874" lon="5.073535144329071">
        <ele>72.829999999999998</ele>
        <time>2019-04-22T12:25:38Z</time>
      </trkpt>
      <trkpt lat="50.80239811912179" lon="5.073576718568802">
        <ele>72.810000000000002</ele>
        <time>2019-04-22T12:25:39Z</time>
      </trkpt>
      <trkpt lat="50.802412452176213" lon="5.073619382455945">
        <ele>72.780000000000001</ele>
        <time>2019-04-22T12:25:40Z</time>
      </trkpt>
      <trkpt lat="50.802420331165195" lon="5.073666907846928">
        <ele>72.760000000000005</ele>
        <time>2019-04-22T12:25:41Z</time>
      </trkpt>
      <trkpt lat="50.802431311458349" lon="5.073711164295673">
        <ele>72.739999999999995</ele>
        <time>2019-04-22T12:25:42Z</time>
      </trkpt>
      <trkpt lat="50.802440196275711" lon="5.073744105175138">
        <ele>72.730000000000004</ele>
        <time>2019-04-22T12:25:43Z</time>
      </trkpt>
      <trkpt lat="50.802494678646326" lon="5.073840245604515">
        <ele>73.689999999999998</ele>
        <time>2019-04-22T12:25:53Z</time>
      </trkpt>
      <trkpt lat="50.802499456331134" lon="5.0738375633955">
        <ele>73.659999999999997</ele>
        <time>2019-04-22T12:25:54Z</time>
      </trkpt>
      <trkpt lat="50.802515214309096" lon="5.073836389929056">
        <ele>73.640000000000001</ele>
        <time>2019-04-22T12:25:55Z</time>
      </trkpt>
      <trkpt lat="50.802527451887727" lon="5.07383655756712">
        <ele>73.599999999999994</ele>
        <time>2019-04-22T12:25:56Z</time>
      </trkpt>
      <trkpt lat="50.802540862932801" lon="5.073834294453263">
        <ele>73.569999999999993</ele>
        <time>2019-04-22T12:25:57Z</time>
      </trkpt>
      <trkpt lat="50.802553435787559" lon="5.073833875358105">
        <ele>73.530000000000001</ele>
        <time>2019-04-22T12:25:58Z</time>
      </trkpt>
      <trkpt lat="50.802567098289728" lon="5.073833540081978">
        <ele>73.5</ele>
        <time>2019-04-22T12:25:59Z</time>
      </trkpt>
      <trkpt lat="50.802581431344151" lon="5.073830522596836">
        <ele>73.489999999999995</ele>
        <time>2019-04-22T12:26:00Z</time>
      </trkpt>
      <trkpt lat="50.802594590932131" lon="5.073829181492329">
        <ele>73.450000000000003</ele>
        <time>2019-04-22T12:26:01Z</time>
      </trkpt>
      <trkpt lat="50.802607415243983" lon="5.073827253654599">
        <ele>73.420000000000002</ele>
        <time>2019-04-22T12:26:02Z</time>
      </trkpt>
      <trkpt lat="50.802621329203248" lon="5.073824403807521">
        <ele>73.379999999999995</ele>
        <time>2019-04-22T12:26:03Z</time>
      </trkpt>
      <trkpt lat="50.802848059684038" lon="5.073799006640911">
        <ele>72.930000000000007</ele>
        <time>2019-04-22T12:26:19Z</time>
      </trkpt>
      <trkpt lat="50.803066156804562" lon="5.073776710778475">
        <ele>72.560000000000002</ele>
        <time>2019-04-22T12:26:34Z</time>
      </trkpt>
      <trkpt lat="50.803291294723749" lon="5.073721557855606">
        <ele>72.180000000000007</ele>
        <time>2019-04-22T12:26:51Z</time>
      </trkpt>
      <trkpt lat="50.803499249741435" lon="5.073632961139083">
        <ele>71.790000000000006</ele>
        <time>2019-04-22T12:27:07Z</time>
      </trkpt>
      <trkpt lat="50.803562700748444" lon="5.0736113358289">
        <ele>69.430000000000007</ele>
        <time>2019-04-22T12:27:11Z</time>
      </trkpt>
      <trkpt lat="50.803829915821552" lon="5.073434226214886">
        <ele>69</ele>
        <time>2019-04-22T12:27:30Z</time>
      </trkpt>
      <trkpt lat="50.804052203893661" lon="5.073183020576835">
        <ele>68.579999999999998</ele>
        <time>2019-04-22T12:27:49Z</time>
      </trkpt>
      <trkpt lat="50.804234426468611" lon="5.073039522394538">
        <ele>68.269999999999996</ele>
        <time>2019-04-22T12:28:04Z</time>
      </trkpt>
      <trkpt lat="50.804495522752404" lon="5.072889821603894">
        <ele>67.840000000000003</ele>
        <time>2019-04-22T12:28:24Z</time>
      </trkpt>
      <trkpt lat="50.804671794176102" lon="5.072717322036624">
        <ele>67.430000000000007</ele>
        <time>2019-04-22T12:28:40Z</time>
      </trkpt>
      <trkpt lat="50.80482124350965" lon="5.07256368175149">
        <ele>67.150000000000006</ele>
        <time>2019-04-22T12:28:52Z</time>
      </trkpt>
      <trkpt lat="50.804838929325342" lon="5.072569884359837">
        <ele>67.129999999999995</ele>
        <time>2019-04-22T12:28:53Z</time>
      </trkpt>
      <trkpt lat="50.804857034236193" lon="5.072581451386213">
        <ele>67.109999999999999</ele>
        <time>2019-04-22T12:28:54Z</time>
      </trkpt>
      <trkpt lat="50.804874133318663" lon="5.072593437507749">
        <ele>67.079999999999998</ele>
        <time>2019-04-22T12:28:55Z</time>
      </trkpt>
      <trkpt lat="50.804889472201467" lon="5.072607938200235">
        <ele>67.069999999999993</ele>
        <time>2019-04-22T12:28:56Z</time>
      </trkpt>
      <trkpt lat="50.804905313998461" lon="5.072623025625944">
        <ele>67.049999999999997</ele>
        <time>2019-04-22T12:28:57Z</time>
      </trkpt>
      <trkpt lat="50.805123578757048" lon="5.07298487238586">
        <ele>65.849999999999994</ele>
        <time>2019-04-22T12:29:17Z</time>
      </trkpt>
      <trkpt lat="50.805352572351694" lon="5.073235826566815">
        <ele>65.5</ele>
        <time>2019-04-22T12:29:36Z</time>
      </trkpt>
      <trkpt lat="50.805589528754354" lon="5.073394244536758">
        <ele>65.170000000000002</ele>
        <time>2019-04-22T12:29:53Z</time>
      </trkpt>
      <trkpt lat="50.805614003911614" lon="5.073414612561464">
        <ele>65.129999999999995</ele>
        <time>2019-04-22T12:29:55Z</time>
      </trkpt>
      <trkpt lat="50.805625235661864" lon="5.073425844311714">
        <ele>65.120000000000005</ele>
        <time>2019-04-22T12:29:56Z</time>
      </trkpt>
      <trkpt lat="50.805636718869209" lon="5.073438165709376">
        <ele>65.099999999999994</ele>
        <time>2019-04-22T12:29:57Z</time>
      </trkpt>
      <trkpt lat="50.805736128240824" lon="5.073633715510368">
        <ele>64.849999999999994</ele>
        <time>2019-04-22T12:30:11Z</time>
      </trkpt>
      <trkpt lat="50.805793544277549" lon="5.073915766552091">
        <ele>64.579999999999998</ele>
        <time>2019-04-22T12:30:24Z</time>
      </trkpt>
      <trkpt lat="50.805870490148664" lon="5.074241068214178">
        <ele>64.319999999999993</ele>
        <time>2019-04-22T12:30:39Z</time>
      </trkpt>
      <trkpt lat="50.805873507633805" lon="5.074267638847232">
        <ele>64.310000000000002</ele>
        <time>2019-04-22T12:30:40Z</time>
      </trkpt>
      <trkpt lat="50.805879291146994" lon="5.074291191995144">
        <ele>64.290000000000006</ele>
        <time>2019-04-22T12:30:41Z</time>
      </trkpt>
      <trkpt lat="50.80588792450726" lon="5.074310386553407">
        <ele>64.269999999999996</ele>
        <time>2019-04-22T12:30:42Z</time>
      </trkpt>
      <trkpt lat="50.805896474048495" lon="5.074327317997813">
        <ele>64.25</ele>
        <time>2019-04-22T12:30:43Z</time>
      </trkpt>
      <trkpt lat="50.805963193997741" lon="5.074619594961405">
        <ele>64.019999999999996</ele>
        <time>2019-04-22T12:30:56Z</time>
      </trkpt>
      <trkpt lat="50.806041900068521" lon="5.074966521933675">
        <ele>63.729999999999997</ele>
        <time>2019-04-22T12:31:11Z</time>
      </trkpt>
      <trkpt lat="50.8060999866575" lon="5.075264414772391">
        <ele>63.579999999999998</ele>
        <time>2019-04-22T12:31:21Z</time>
      </trkpt>
      <trkpt lat="50.806170227006078" lon="5.075661884620786">
        <ele>63.280000000000001</ele>
        <time>2019-04-22T12:31:38Z</time>
      </trkpt>
      <trkpt lat="50.806180369108915" lon="5.075914850458503">
        <ele>65.459999999999994</ele>
        <time>2019-04-22T12:31:48Z</time>
      </trkpt>
      <trkpt lat="50.806240383535624" lon="5.076271500438452">
        <ele>65.150000000000006</ele>
        <time>2019-04-22T12:32:05Z</time>
      </trkpt>
      <trkpt lat="50.80638287588954" lon="5.076631335541606">
        <ele>64.859999999999999</ele>
        <time>2019-04-22T12:32:22Z</time>
      </trkpt>
      <trkpt lat="50.806482788175344" lon="5.076882541179657">
        <ele>62.189999999999998</ele>
        <time>2019-04-22T12:32:31Z</time>
      </trkpt>
      <trkpt lat="50.806612791493535" lon="5.077314460650086">
        <ele>61.920000000000002</ele>
        <time>2019-04-22T12:32:46Z</time>
      </trkpt>
      <trkpt lat="50.806698706001043" lon="5.077580837532878">
        <ele>61.68</ele>
        <time>2019-04-22T12:33:02Z</time>
      </trkpt>
      <trkpt lat="50.806775148957968" lon="5.077937403693795">
        <ele>61.399999999999999</ele>
        <time>2019-04-22T12:33:17Z</time>
      </trkpt>
      <trkpt lat="50.806902553886175" lon="5.078302267938852">
        <ele>61.119999999999997</ele>
        <time>2019-04-22T12:33:32Z</time>
      </trkpt>
      <trkpt lat="50.807078741490841" lon="5.078772911801934">
        <ele>60.899999999999999</ele>
        <time>2019-04-22T12:33:44Z</time>
      </trkpt>
      <trkpt lat="50.807268843054771" lon="5.079286303371191">
        <ele>60.670000000000002</ele>
        <time>2019-04-22T12:33:57Z</time>
      </trkpt>
      <trkpt lat="50.807636389508843" lon="5.079383533447981">
        <ele>60.479999999999997</ele>
        <time>2019-04-22T12:34:09Z</time>
      </trkpt>
      <trkpt lat="50.807927241548896" lon="5.079654352739453">
        <ele>60.259999999999998</ele>
        <time>2019-04-22T12:34:20Z</time>
      </trkpt>
      <trkpt lat="50.808050539344549" lon="5.080001866444945">
        <ele>60.079999999999998</ele>
        <time>2019-04-22T12:34:31Z</time>
      </trkpt>
      <trkpt lat="50.808064788579941" lon="5.080022821202874">
        <ele>60.060000000000002</ele>
        <time>2019-04-22T12:34:32Z</time>
      </trkpt>
      <trkpt lat="50.808078618720174" lon="5.080036735162139">
        <ele>60.039999999999999</ele>
        <time>2019-04-22T12:34:33Z</time>
      </trkpt>
      <trkpt lat="50.808097561821342" lon="5.080054504796863">
        <ele>60.020000000000003</ele>
        <time>2019-04-22T12:34:34Z</time>
      </trkpt>
      <trkpt lat="50.808119270950556" lon="5.080069927498698">
        <ele>60</ele>
        <time>2019-04-22T12:34:35Z</time>
      </trkpt>
      <trkpt lat="50.808140225708485" lon="5.080081662163138">
        <ele>59.979999999999997</ele>
        <time>2019-04-22T12:34:36Z</time>
      </trkpt>
      <trkpt lat="50.80816637724638" lon="5.080093815922737">
        <ele>59.969999999999999</ele>
        <time>2019-04-22T12:34:37Z</time>
      </trkpt>
      <trkpt lat="50.808185236528516" lon="5.080101443454623">
        <ele>59.939999999999998</ele>
        <time>2019-04-22T12:34:38Z</time>
      </trkpt>
      <trkpt lat="50.808198563754559" lon="5.080110244452953">
        <ele>59.920000000000002</ele>
        <time>2019-04-22T12:34:39Z</time>
      </trkpt>
      <trkpt lat="50.808325298130512" lon="5.080281989648938">
        <ele>59.700000000000003</ele>
        <time>2019-04-22T12:34:48Z</time>
      </trkpt>
      <trkpt lat="50.808355724439025" lon="5.080377710983157">
        <ele>59.640000000000001</ele>
        <time>2019-04-22T12:34:51Z</time>
      </trkpt>
      <trkpt lat="50.808365866541862" lon="5.080410065129399">
        <ele>59.619999999999997</ele>
        <time>2019-04-22T12:34:52Z</time>
      </trkpt>
      <trkpt lat="50.808386569842696" lon="5.080439988523722">
        <ele>59.590000000000003</ele>
        <time>2019-04-22T12:34:53Z</time>
      </trkpt>
      <trkpt lat="50.808407440781593" lon="5.080461865290999">
        <ele>59.57</ele>
        <time>2019-04-22T12:34:54Z</time>
      </trkpt>
      <trkpt lat="50.80843560397625" lon="5.080493884161115">
        <ele>59.5</ele>
        <time>2019-04-22T12:34:56Z</time>
      </trkpt>
      <trkpt lat="50.808577844873071" lon="5.080615170300007">
        <ele>59.329999999999998</ele>
        <time>2019-04-22T12:35:02Z</time>
      </trkpt>
      <trkpt lat="50.808688905090094" lon="5.080757411196828">
        <ele>59.07</ele>
        <time>2019-04-22T12:35:10Z</time>
      </trkpt>
      <trkpt lat="50.808699214830995" lon="5.080774510279298">
        <ele>59.039999999999999</ele>
        <time>2019-04-22T12:35:11Z</time>
      </trkpt>
      <trkpt lat="50.808710027486086" lon="5.080792363733053">
        <ele>59</ele>
        <time>2019-04-22T12:35:12Z</time>
      </trkpt>
      <trkpt lat="50.808719247579575" lon="5.080812396481633">
        <ele>58.969999999999999</ele>
        <time>2019-04-22T12:35:13Z</time>
      </trkpt>
      <trkpt lat="50.80872880294919" lon="5.08083569817245">
        <ele>58.939999999999998</ele>
        <time>2019-04-22T12:35:14Z</time>
      </trkpt>
      <trkpt lat="50.808740621432662" lon="5.08085916750133">
        <ele>58.909999999999997</ele>
        <time>2019-04-22T12:35:15Z</time>
      </trkpt>
      <trkpt lat="50.8087576366961" lon="5.080884816125035">
        <ele>58.880000000000003</ele>
        <time>2019-04-22T12:35:16Z</time>
      </trkpt>
      <trkpt lat="50.80877372995019" lon="5.080910129472613">
        <ele>58.850000000000001</ele>
        <time>2019-04-22T12:35:17Z</time>
      </trkpt>
      <trkpt lat="50.808787476271391" lon="5.080936448648572">
        <ele>58.82</ele>
        <time>2019-04-22T12:35:18Z</time>
      </trkpt>
      <trkpt lat="50.80881480127573" lon="5.080972071737051">
        <ele>58.789999999999999</ele>
        <time>2019-04-22T12:35:19Z</time>
      </trkpt>
      <trkpt lat="50.808834163472056" lon="5.081006353721023">
        <ele>58.75</ele>
        <time>2019-04-22T12:35:20Z</time>
      </trkpt>
      <trkpt lat="50.809144880622625" lon="5.081554362550378">
        <ele>58.390000000000001</ele>
        <time>2019-04-22T12:35:32Z</time>
      </trkpt>
      <trkpt lat="50.809673024341464" lon="5.081900451332331">
        <ele>58</ele>
        <time>2019-04-22T12:35:45Z</time>
      </trkpt>
      <trkpt lat="50.810194378718734" lon="5.082259196788073">
        <ele>57.68</ele>
        <time>2019-04-22T12:36:01Z</time>
      </trkpt>
      <trkpt lat="50.810334775596857" lon="5.082328096032143">
        <ele>57.579999999999998</ele>
        <time>2019-04-22T12:36:07Z</time>
      </trkpt>
      <trkpt lat="50.810355814173818" lon="5.082334633916616">
        <ele>57.539999999999999</ele>
        <time>2019-04-22T12:36:08Z</time>
      </trkpt>
      <trkpt lat="50.810382468625903" lon="5.082342680543661">
        <ele>57.509999999999998</ele>
        <time>2019-04-22T12:36:09Z</time>
      </trkpt>
      <trkpt lat="50.810414906591177" lon="5.082348547875881">
        <ele>57.5</ele>
        <time>2019-04-22T12:36:10Z</time>
      </trkpt>
      <trkpt lat="50.81044583581388" lon="5.082349721342325">
        <ele>57.490000000000002</ele>
        <time>2019-04-22T12:36:11Z</time>
      </trkpt>
      <trkpt lat="50.810474921017885" lon="5.082351649180055">
        <ele>57.469999999999999</ele>
        <time>2019-04-22T12:36:12Z</time>
      </trkpt>
      <trkpt lat="50.81079326570034" lon="5.082399006932974">
        <ele>57.200000000000003</ele>
        <time>2019-04-22T12:36:24Z</time>
      </trkpt>
      <trkpt lat="50.810998287051916" lon="5.082461955025792">
        <ele>56.880000000000003</ele>
        <time>2019-04-22T12:36:37Z</time>
      </trkpt>
      <trkpt lat="50.811124686151743" lon="5.082628168165684">
        <ele>56.579999999999998</ele>
        <time>2019-04-22T12:36:49Z</time>
      </trkpt>
      <trkpt lat="50.811130134388804" lon="5.082647362723947">
        <ele>56.549999999999997</ele>
        <time>2019-04-22T12:36:50Z</time>
      </trkpt>
      <trkpt lat="50.811124015599489" lon="5.082665635272861">
        <ele>56.530000000000001</ele>
        <time>2019-04-22T12:36:51Z</time>
      </trkpt>
      <trkpt lat="50.810944642871618" lon="5.082852803170681">
        <ele>56.289999999999999</ele>
        <time>2019-04-22T12:37:01Z</time>
      </trkpt>
      <trkpt lat="50.810714727267623" lon="5.083088669925928">
        <ele>56.049999999999997</ele>
        <time>2019-04-22T12:37:12Z</time>
      </trkpt>
      <trkpt lat="50.810318011790514" lon="5.083399470895529">
        <ele>55.799999999999997</ele>
        <time>2019-04-22T12:37:24Z</time>
      </trkpt>
      <trkpt lat="50.809866897761822" lon="5.083744134753943">
        <ele>55.57</ele>
        <time>2019-04-22T12:37:38Z</time>
      </trkpt>
      <trkpt lat="50.809622732922435" lon="5.083967512473464">
        <ele>55.390000000000001</ele>
        <time>2019-04-22T12:37:48Z</time>
      </trkpt>
      <trkpt lat="50.809209337458014" lon="5.084266327321529">
        <ele>55.170000000000002</ele>
        <time>2019-04-22T12:38:00Z</time>
      </trkpt>
      <trkpt lat="50.808873642235994" lon="5.084468917921186">
        <ele>54.950000000000003</ele>
        <time>2019-04-22T12:38:14Z</time>
      </trkpt>
      <trkpt lat="50.808650013059378" lon="5.084643177688122">
        <ele>54.670000000000002</ele>
        <time>2019-04-22T12:38:29Z</time>
      </trkpt>
      <trkpt lat="50.808361088857055" lon="5.084873596206307">
        <ele>54.530000000000001</ele>
        <time>2019-04-22T12:38:38Z</time>
      </trkpt>
      <trkpt lat="50.808073254302144" lon="5.085077611729503">
        <ele>54.369999999999997</ele>
        <time>2019-04-22T12:38:48Z</time>
      </trkpt>
      <trkpt lat="50.807783994823694" lon="5.085274837911129">
        <ele>54.219999999999999</ele>
        <time>2019-04-22T12:38:58Z</time>
      </trkpt>
      <trkpt lat="50.807746108621359" lon="5.085288165137172">
        <ele>54.18</ele>
        <time>2019-04-22T12:39:00Z</time>
      </trkpt>
      <trkpt lat="50.807708222419024" lon="5.085361674427986">
        <ele>54.130000000000003</ele>
        <time>2019-04-22T12:39:03Z</time>
      </trkpt>
      <trkpt lat="50.80770562402904" lon="5.085393274202943">
        <ele>54.109999999999999</ele>
        <time>2019-04-22T12:39:04Z</time>
      </trkpt>
      <trkpt lat="50.80773051828146" lon="5.085606761276722">
        <ele>54.030000000000001</ele>
        <time>2019-04-22T12:39:07Z</time>
      </trkpt>
      <trkpt lat="50.807640664279461" lon="5.085491258651018">
        <ele>53.850000000000001</ele>
        <time>2019-04-22T12:39:15Z</time>
      </trkpt>
      <trkpt lat="50.807884158566594" lon="5.085752522572875">
        <ele>53.82</ele>
        <time>2019-04-22T12:39:16Z</time>
      </trkpt>
      <trkpt lat="50.807916931807995" lon="5.085782445967197">
        <ele>53.789999999999999</ele>
        <time>2019-04-22T12:39:17Z</time>
      </trkpt>
      <trkpt lat="50.80810921266675" lon="5.086157117038965">
        <ele>53.520000000000003</ele>
        <time>2019-04-22T12:39:27Z</time>
      </trkpt>
      <trkpt lat="50.808111475780606" lon="5.086199278011918">
        <ele>53.479999999999997</ele>
        <time>2019-04-22T12:39:28Z</time>
      </trkpt>
      <trkpt lat="50.808118265122175" lon="5.086251832544804">
        <ele>53.450000000000003</ele>
        <time>2019-04-22T12:39:29Z</time>
      </trkpt>
      <trkpt lat="50.808239551261067" lon="5.086443442851305">
        <ele>53.140000000000001</ele>
        <time>2019-04-22T12:39:39Z</time>
      </trkpt>
      <trkpt lat="50.808515651151538" lon="5.086561040952802">
        <ele>52.520000000000003</ele>
        <time>2019-04-22T12:39:59Z</time>
      </trkpt>
      <trkpt lat="50.808585723862052" lon="5.086607728153467">
        <ele>52.399999999999999</ele>
        <time>2019-04-22T12:40:03Z</time>
      </trkpt>
      <trkpt lat="50.808795858174562" lon="5.086810905486345">
        <ele>51.840000000000003</ele>
        <time>2019-04-22T12:40:20Z</time>
      </trkpt>
      <trkpt lat="50.80911579541862" lon="5.08708331733942">
        <ele>51.479999999999997</ele>
        <time>2019-04-22T12:40:31Z</time>
      </trkpt>
      <trkpt lat="50.809414442628622" lon="5.087321866303682">
        <ele>53.479999999999997</ele>
        <time>2019-04-22T12:40:41Z</time>
      </trkpt>
      <trkpt lat="50.809751814231277" lon="5.087477685883641">
        <ele>53.149999999999999</ele>
        <time>2019-04-22T12:40:51Z</time>
      </trkpt>
      <trkpt lat="50.809992039576173" lon="5.087692262604833">
        <ele>52.810000000000002</ele>
        <time>2019-04-22T12:41:01Z</time>
      </trkpt>
      <trkpt lat="50.81016730517149" lon="5.087931146845222">
        <ele>52.420000000000002</ele>
        <time>2019-04-22T12:41:14Z</time>
      </trkpt>
      <trkpt lat="50.81039504148066" lon="5.088030388578773">
        <ele>52.100000000000001</ele>
        <time>2019-04-22T12:41:26Z</time>
      </trkpt>
      <trkpt lat="50.810442147776484" lon="5.088029550388455">
        <ele>52.049999999999997</ele>
        <time>2019-04-22T12:41:28Z</time>
      </trkpt>
      <trkpt lat="50.810640212148428" lon="5.088134072721005">
        <ele>51.740000000000002</ele>
        <time>2019-04-22T12:41:41Z</time>
      </trkpt>
      <trkpt lat="50.810744231566787" lon="5.088194338604808">
        <ele>51.560000000000002</ele>
        <time>2019-04-22T12:41:48Z</time>
      </trkpt>
      <trkpt lat="50.810880856588483" lon="5.088278744369745">
        <ele>51.369999999999997</ele>
        <time>2019-04-22T12:41:56Z</time>
      </trkpt>
      <trkpt lat="50.810917485505342" lon="5.088274804875255">
        <ele>51.350000000000001</ele>
        <time>2019-04-22T12:41:57Z</time>
      </trkpt>
      <trkpt lat="50.810947073623538" lon="5.088275978341699">
        <ele>51.32</ele>
        <time>2019-04-22T12:41:58Z</time>
      </trkpt>
      <trkpt lat="50.810964507982135" lon="5.08828335441649">
        <ele>51.299999999999997</ele>
        <time>2019-04-22T12:41:59Z</time>
      </trkpt>
      <trkpt lat="50.810983702540398" lon="5.088301794603467">
        <ele>51.289999999999999</ele>
        <time>2019-04-22T12:42:00Z</time>
      </trkpt>
      <trkpt lat="50.810997616499662" lon="5.088322916999459">
        <ele>51.259999999999998</ele>
        <time>2019-04-22T12:42:01Z</time>
      </trkpt>
      <trkpt lat="50.811012033373117" lon="5.088339513167739">
        <ele>51.240000000000002</ele>
        <time>2019-04-22T12:42:02Z</time>
      </trkpt>
      <trkpt lat="50.811024690046906" lon="5.088363317772746">
        <ele>51.219999999999999</ele>
        <time>2019-04-22T12:42:03Z</time>
      </trkpt>
      <trkpt lat="50.811381926760077" lon="5.088620474562049">
        <ele>51</ele>
        <time>2019-04-22T12:42:14Z</time>
      </trkpt>
      <trkpt lat="50.811755927279592" lon="5.089067062363029">
        <ele>50.829999999999998</ele>
        <time>2019-04-22T12:42:27Z</time>
      </trkpt>
      <trkpt lat="50.812070835381746" lon="5.089440979063511">
        <ele>50.719999999999999</ele>
        <time>2019-04-22T12:42:38Z</time>
      </trkpt>
      <trkpt lat="50.812134621664882" lon="5.089530916884542">
        <ele>50.700000000000003</ele>
        <time>2019-04-22T12:42:40Z</time>
      </trkpt>
      <trkpt lat="50.812166137620807" lon="5.089578023180366">
        <ele>50.689999999999998</ele>
        <time>2019-04-22T12:42:41Z</time>
      </trkpt>
      <trkpt lat="50.81248976290226" lon="5.090115973725915">
        <ele>50.530000000000001</ele>
        <time>2019-04-22T12:42:54Z</time>
      </trkpt>
      <trkpt lat="50.812789667397738" lon="5.090454602614045">
        <ele>50.369999999999997</ele>
        <time>2019-04-22T12:43:05Z</time>
      </trkpt>
      <trkpt lat="50.81297742202878" lon="5.090649230405688">
        <ele>50.25</ele>
        <time>2019-04-22T12:43:13Z</time>
      </trkpt>
      <trkpt lat="50.813005920499563" lon="5.09067177772522">
        <ele>50.229999999999997</ele>
        <time>2019-04-22T12:43:14Z</time>
      </trkpt>
      <trkpt lat="50.813026120886207" lon="5.090703377500176">
        <ele>50.219999999999999</ele>
        <time>2019-04-22T12:43:15Z</time>
      </trkpt>
      <trkpt lat="50.813050009310246" lon="5.090741766616702">
        <ele>50.200000000000003</ele>
        <time>2019-04-22T12:43:16Z</time>
      </trkpt>
      <trkpt lat="50.813068533316255" lon="5.090793566778302">
        <ele>50.189999999999998</ele>
        <time>2019-04-22T12:43:17Z</time>
      </trkpt>
      <trkpt lat="50.813096025958657" lon="5.090832207351923">
        <ele>50.170000000000002</ele>
        <time>2019-04-22T12:43:18Z</time>
      </trkpt>
      <trkpt lat="50.813121423125267" lon="5.0908696744591">
        <ele>50.149999999999999</ele>
        <time>2019-04-22T12:43:19Z</time>
      </trkpt>
      <trkpt lat="50.813146233558655" lon="5.090917116031051">
        <ele>50.130000000000003</ele>
        <time>2019-04-22T12:43:20Z</time>
      </trkpt>
      <trkpt lat="50.813169116154313" lon="5.090966988354921">
        <ele>50.109999999999999</ele>
        <time>2019-04-22T12:43:21Z</time>
      </trkpt>
      <trkpt lat="50.813191747292876" lon="5.091010155156255">
        <ele>50.859999999999999</ele>
        <time>2019-04-22T12:43:22Z</time>
      </trkpt>
      <trkpt lat="50.813216557726264" lon="5.091051729395986">
        <ele>50.840000000000003</ele>
        <time>2019-04-22T12:43:23Z</time>
      </trkpt>
      <trkpt lat="50.813438845798373" lon="5.091439308598638">
        <ele>50.600000000000001</ele>
        <time>2019-04-22T12:43:33Z</time>
      </trkpt>
      <trkpt lat="50.813605478033423" lon="5.091598145663738">
        <ele>50.420000000000002</ele>
        <time>2019-04-22T12:43:40Z</time>
      </trkpt>
      <trkpt lat="50.813620733097196" lon="5.091625722125173">
        <ele>50.390000000000001</ele>
        <time>2019-04-22T12:43:41Z</time>
      </trkpt>
      <trkpt lat="50.813640346750617" lon="5.091650113463402">
        <ele>50.359999999999999</ele>
        <time>2019-04-22T12:43:42Z</time>
      </trkpt>
      <trkpt lat="50.813667671754956" lon="5.091671235859394">
        <ele>50.340000000000003</ele>
        <time>2019-04-22T12:43:43Z</time>
      </trkpt>
      <trkpt lat="50.813694912940264" lon="5.091686071828008">
        <ele>50.310000000000002</ele>
        <time>2019-04-22T12:43:44Z</time>
      </trkpt>
      <trkpt lat="50.813715280964971" lon="5.091713983565569">
        <ele>50.280000000000001</ele>
        <time>2019-04-22T12:43:45Z</time>
      </trkpt>
      <trkpt lat="50.813757441937923" lon="5.091801071539521">
        <ele>50.189999999999998</ele>
        <time>2019-04-22T12:43:48Z</time>
      </trkpt>
      <trkpt lat="50.813931785523891" lon="5.092037441208959">
        <ele>49.770000000000003</ele>
        <time>2019-04-22T12:44:00Z</time>
      </trkpt>
      <trkpt lat="50.814198832958937" lon="5.092020845040679">
        <ele>49.229999999999997</ele>
        <time>2019-04-22T12:44:15Z</time>
      </trkpt>
      <trkpt lat="50.814305869862437" lon="5.091835940256715">
        <ele>48.829999999999998</ele>
        <time>2019-04-22T12:44:27Z</time>
      </trkpt>
      <trkpt lat="50.814566547051072" lon="5.091537041589618">
        <ele>48.18</ele>
        <time>2019-04-22T12:44:46Z</time>
      </trkpt>
      <trkpt lat="50.814868044108152" lon="5.091437716037035">
        <ele>47.710000000000001</ele>
        <time>2019-04-22T12:45:01Z</time>
      </trkpt>
      <trkpt lat="50.814925376325846" lon="5.091464621946216">
        <ele>45.340000000000003</ele>
        <time>2019-04-22T12:45:04Z</time>
      </trkpt>
      <trkpt lat="50.815022019669414" lon="5.091532180085778">
        <ele>45.210000000000001</ele>
        <time>2019-04-22T12:45:09Z</time>
      </trkpt>
      <trkpt lat="50.815078681334853" lon="5.091579370200634">
        <ele>45.100000000000001</ele>
        <time>2019-04-22T12:45:13Z</time>
      </trkpt>
      <trkpt lat="50.815371461212635" lon="5.091803502291441">
        <ele>44.810000000000002</ele>
        <time>2019-04-22T12:45:27Z</time>
      </trkpt>
      <trkpt lat="50.815646890550852" lon="5.091958148404956">
        <ele>44.600000000000001</ele>
        <time>2019-04-22T12:45:38Z</time>
      </trkpt>
      <trkpt lat="50.815673712641001" lon="5.091971643269062">
        <ele>44.579999999999998</ele>
        <time>2019-04-22T12:45:39Z</time>
      </trkpt>
      <trkpt lat="50.815836321562529" lon="5.092191165313125">
        <ele>44.369999999999997</ele>
        <time>2019-04-22T12:45:52Z</time>
      </trkpt>
      <trkpt lat="50.815830621868372" lon="5.092209354043007">
        <ele>44.359999999999999</ele>
        <time>2019-04-22T12:45:53Z</time>
      </trkpt>
      <trkpt lat="50.815703300759196" lon="5.092569692060351">
        <ele>44.229999999999997</ele>
        <time>2019-04-22T12:46:04Z</time>
      </trkpt>
      <trkpt lat="50.815524430945516" lon="5.092949811369181">
        <ele>44.140000000000001</ele>
        <time>2019-04-22T12:46:13Z</time>
      </trkpt>
      <trkpt lat="50.815438013523817" lon="5.093185259029269">
        <ele>46.369999999999997</ele>
        <time>2019-04-22T12:46:17Z</time>
      </trkpt>
      <trkpt lat="50.815372969955206" lon="5.093384580686688">
        <ele>46.359999999999999</ele>
        <time>2019-04-22T12:46:20Z</time>
      </trkpt>
      <trkpt lat="50.815340029075742" lon="5.093445684760809">
        <ele>46.359999999999999</ele>
        <time>2019-04-22T12:46:21Z</time>
      </trkpt>
      <trkpt lat="50.815296610817313" lon="5.093494970351458">
        <ele>46.329999999999998</ele>
        <time>2019-04-22T12:46:22Z</time>
      </trkpt>
      <trkpt lat="50.815249253064394" lon="5.093530341982842">
        <ele>46.310000000000002</ele>
        <time>2019-04-22T12:46:23Z</time>
      </trkpt>
      <trkpt lat="50.815190579742193" lon="5.093554733321071">
        <ele>46.310000000000002</ele>
        <time>2019-04-22T12:46:24Z</time>
      </trkpt>
      <trkpt lat="50.815126625820994" lon="5.093577280640602">
        <ele>47.159999999999997</ele>
        <time>2019-04-22T12:46:25Z</time>
      </trkpt>
      <trkpt lat="50.815075244754553" lon="5.093598151579499">
        <ele>47.130000000000003</ele>
        <time>2019-04-22T12:46:26Z</time>
      </trkpt>
      <trkpt lat="50.815016906708479" lon="5.093631092458963">
        <ele>47.130000000000003</ele>
        <time>2019-04-22T12:46:27Z</time>
      </trkpt>
      <trkpt lat="50.814964268356562" lon="5.093680461868644">
        <ele>47.100000000000001</ele>
        <time>2019-04-22T12:46:28Z</time>
      </trkpt>
      <trkpt lat="50.814913725480437" lon="5.093738213181496">
        <ele>47.100000000000001</ele>
        <time>2019-04-22T12:46:29Z</time>
      </trkpt>
      <trkpt lat="50.814695879817009" lon="5.093996040523052">
        <ele>47.049999999999997</ele>
        <time>2019-04-22T12:46:34Z</time>
      </trkpt>
      <trkpt lat="50.814661849290133" lon="5.094047002494335">
        <ele>47.049999999999997</ele>
        <time>2019-04-22T12:46:35Z</time>
      </trkpt>
      <trkpt lat="50.814626310020685" lon="5.094097210094333">
        <ele>47.039999999999999</ele>
        <time>2019-04-22T12:46:36Z</time>
      </trkpt>
      <trkpt lat="50.814311653375626" lon="5.094492835924029">
        <ele>46.990000000000002</ele>
        <time>2019-04-22T12:46:43Z</time>
      </trkpt>
      <trkpt lat="50.813737493008375" lon="5.095239663496614">
        <ele>47.880000000000003</ele>
        <time>2019-04-22T12:46:56Z</time>
      </trkpt>
      <trkpt lat="50.813253354281187" lon="5.095848524942994">
        <ele>47.799999999999997</ele>
        <time>2019-04-22T12:47:08Z</time>
      </trkpt>
      <trkpt lat="50.813146652653813" lon="5.095994705334306">
        <ele>47.780000000000001</ele>
        <time>2019-04-22T12:47:11Z</time>
      </trkpt>
      <trkpt lat="50.812916317954659" lon="5.096334088593721">
        <ele>48.460000000000001</ele>
        <time>2019-04-22T12:47:23Z</time>
      </trkpt>
      <trkpt lat="50.812700651586056" lon="5.096685709431768">
        <ele>48.380000000000003</ele>
        <time>2019-04-22T12:47:36Z</time>
      </trkpt>
      <trkpt lat="50.812557823956013" lon="5.096949236467481">
        <ele>48.310000000000002</ele>
        <time>2019-04-22T12:47:48Z</time>
      </trkpt>
      <trkpt lat="50.812416672706604" lon="5.097248051315546">
        <ele>48.25</ele>
        <time>2019-04-22T12:48:01Z</time>
      </trkpt>
      <trkpt lat="50.812279880046844" lon="5.097502609714866">
        <ele>49.020000000000003</ele>
        <time>2019-04-22T12:48:14Z</time>
      </trkpt>
      <trkpt lat="50.812120288610458" lon="5.097818104550242">
        <ele>49.840000000000003</ele>
        <time>2019-04-22T12:48:30Z</time>
      </trkpt>
      <trkpt lat="50.811951225623488" lon="5.098114823922515">
        <ele>49.770000000000003</ele>
        <time>2019-04-22T12:48:47Z</time>
      </trkpt>
      <trkpt lat="50.811805631965399" lon="5.098437946289778">
        <ele>50.5</ele>
        <time>2019-04-22T12:49:05Z</time>
      </trkpt>
      <trkpt lat="50.811663391068578" lon="5.098782945424318">
        <ele>51.200000000000003</ele>
        <time>2019-04-22T12:49:22Z</time>
      </trkpt>
      <trkpt lat="50.81152961589396" lon="5.099134650081396">
        <ele>52.07</ele>
        <time>2019-04-22T12:49:36Z</time>
      </trkpt>
      <trkpt lat="50.811507906764746" lon="5.099222827702761">
        <ele>52.049999999999997</ele>
        <time>2019-04-22T12:49:39Z</time>
      </trkpt>
      <trkpt lat="50.811503799632192" lon="5.099246799945831">
        <ele>52.039999999999999</ele>
        <time>2019-04-22T12:49:40Z</time>
      </trkpt>
      <trkpt lat="50.811436073854566" lon="5.099440002813935">
        <ele>51.920000000000002</ele>
        <time>2019-04-22T12:49:54Z</time>
      </trkpt>
      <trkpt lat="50.811410425230861" lon="5.099518038332462">
        <ele>51.880000000000003</ele>
        <time>2019-04-22T12:50:01Z</time>
      </trkpt>
      <trkpt lat="50.811398020014167" lon="5.099541088566184">
        <ele>51.859999999999999</ele>
        <time>2019-04-22T12:50:02Z</time>
      </trkpt>
      <trkpt lat="50.81138402223587" lon="5.099564725533128">
        <ele>51.859999999999999</ele>
        <time>2019-04-22T12:50:03Z</time>
      </trkpt>
      <trkpt lat="50.811290144920349" lon="5.09979983791709">
        <ele>51.770000000000003</ele>
        <time>2019-04-22T12:50:15Z</time>
      </trkpt>
      <trkpt lat="50.811119405552745" lon="5.100127402693033">
        <ele>51.710000000000001</ele>
        <time>2019-04-22T12:50:32Z</time>
      </trkpt>
      <trkpt lat="50.810904325917363" lon="5.100463265553117">
        <ele>51.600000000000001</ele>
        <time>2019-04-22T12:50:50Z</time>
      </trkpt>
      <trkpt lat="50.810638703405857" lon="5.100748669356108">
        <ele>52.289999999999999</ele>
        <time>2019-04-22T12:51:10Z</time>
      </trkpt>
      <trkpt lat="50.810363106429577" lon="5.100944889709353">
        <ele>52.210000000000001</ele>
        <time>2019-04-22T12:51:31Z</time>
      </trkpt>
      <trkpt lat="50.810110559687018" lon="5.101088806986809">
        <ele>53.229999999999997</ele>
        <time>2019-04-22T12:51:50Z</time>
      </trkpt>
      <trkpt lat="50.810054484754801" lon="5.10114848613739">
        <ele>50.899999999999999</ele>
        <time>2019-04-22T12:51:56Z</time>
      </trkpt>
      <trkpt lat="50.810050629079342" lon="5.10123498737812">
        <ele>50.93</ele>
        <time>2019-04-22T12:52:02Z</time>
      </trkpt>
      <trkpt lat="50.810059513896704" lon="5.101247392594814">
        <ele>50.909999999999997</ele>
        <time>2019-04-22T12:52:03Z</time>
      </trkpt>
      <trkpt lat="50.810070661827922" lon="5.101259043440223">
        <ele>50.909999999999997</ele>
        <time>2019-04-22T12:52:04Z</time>
      </trkpt>
      <trkpt lat="50.81008424051106" lon="5.101270023733378">
        <ele>50.890000000000001</ele>
        <time>2019-04-22T12:52:05Z</time>
      </trkpt>
      <trkpt lat="50.810096645727754" lon="5.101282261312008">
        <ele>50.890000000000001</ele>
        <time>2019-04-22T12:52:06Z</time>
      </trkpt>
      <trkpt lat="50.81010963767767" lon="5.101293828338385">
        <ele>50.899999999999999</ele>
        <time>2019-04-22T12:52:07Z</time>
      </trkpt>
      <trkpt lat="50.810122461989522" lon="5.101302294060588">
        <ele>50.890000000000001</ele>
        <time>2019-04-22T12:52:08Z</time>
      </trkpt>
      <trkpt lat="50.810193791985512" lon="5.101365996524692">
        <ele>49.5</ele>
        <time>2019-04-22T12:52:14Z</time>
      </trkpt>
      <trkpt lat="50.810342067852616" lon="5.10152667760849">
        <ele>49.350000000000001</ele>
        <time>2019-04-22T12:52:28Z</time>
      </trkpt>
      <trkpt lat="50.810522362589836" lon="5.101711079478264">
        <ele>49.270000000000003</ele>
        <time>2019-04-22T12:52:45Z</time>
      </trkpt>
      <trkpt lat="50.810707015916705" lon="5.101826833561063">
        <ele>49.039999999999999</ele>
        <time>2019-04-22T12:53:00Z</time>
      </trkpt>
      <trkpt lat="50.810983618721366" lon="5.102004613727331">
        <ele>48.799999999999997</ele>
        <time>2019-04-22T12:53:17Z</time>
      </trkpt>
      <trkpt lat="50.811315206810832" lon="5.102275684475899">
        <ele>48.68</ele>
        <time>2019-04-22T12:53:32Z</time>
      </trkpt>
      <trkpt lat="50.811559204012156" lon="5.102519262582064">
        <ele>47.560000000000002</ele>
        <time>2019-04-22T12:53:49Z</time>
      </trkpt>
      <trkpt lat="50.811875117942691" lon="5.102978507056832">
        <ele>47.399999999999999</ele>
        <time>2019-04-22T12:54:01Z</time>
      </trkpt>
      <trkpt lat="50.812378115952015" lon="5.103595834225416">
        <ele>46.130000000000003</ele>
        <time>2019-04-22T12:54:14Z</time>
      </trkpt>
      <trkpt lat="50.813054367899895" lon="5.10400889441371">
        <ele>43.359999999999999</ele>
        <time>2019-04-22T12:54:28Z</time>
      </trkpt>
      <trkpt lat="50.813208594918251" lon="5.104087516665459">
        <ele>45.869999999999997</ele>
        <time>2019-04-22T12:54:31Z</time>
      </trkpt>
      <trkpt lat="50.81378904171288" lon="5.104269487783313">
        <ele>45.609999999999999</ele>
        <time>2019-04-22T12:54:44Z</time>
      </trkpt>
      <trkpt lat="50.814024405553937" lon="5.10433285497129">
        <ele>45.509999999999998</ele>
        <time>2019-04-22T12:54:52Z</time>
      </trkpt>
      <trkpt lat="50.814184080809355" lon="5.10437929071486">
        <ele>45.380000000000003</ele>
        <time>2019-04-22T12:55:04Z</time>
      </trkpt>
      <trkpt lat="50.814298745244741" lon="5.104416841641069">
        <ele>42.890000000000001</ele>
        <time>2019-04-22T12:55:12Z</time>
      </trkpt>
      <trkpt lat="50.814496055245399" lon="5.104423044249415">
        <ele>42.719999999999999</ele>
        <time>2019-04-22T12:55:22Z</time>
      </trkpt>
      <trkpt lat="50.814731922000647" lon="5.104259932413697">
        <ele>42.579999999999998</ele>
        <time>2019-04-22T12:55:35Z</time>
      </trkpt>
      <trkpt lat="50.81506434828043" lon="5.103905461728573">
        <ele>41.259999999999998</ele>
        <time>2019-04-22T12:55:45Z</time>
      </trkpt>
      <trkpt lat="50.815477324649692" lon="5.103447558358312">
        <ele>41.049999999999997</ele>
        <time>2019-04-22T12:55:56Z</time>
      </trkpt>
      <trkpt lat="50.815522586926818" lon="5.103392992168665">
        <ele>41.119999999999997</ele>
        <time>2019-04-22T12:55:57Z</time>
      </trkpt>
      <trkpt lat="50.815565921366215" lon="5.103337084874511">
        <ele>41.159999999999997</ele>
        <time>2019-04-22T12:55:58Z</time>
      </trkpt>
      <trkpt lat="50.815611518919468" lon="5.103278746828437">
        <ele>41.140000000000001</ele>
        <time>2019-04-22T12:55:59Z</time>
      </trkpt>
      <trkpt lat="50.815663821995258" lon="5.103221833705902">
        <ele>41.140000000000001</ele>
        <time>2019-04-22T12:56:00Z</time>
      </trkpt>
      <trkpt lat="50.815716795623302" lon="5.103180510923266">
        <ele>41.140000000000001</ele>
        <time>2019-04-22T12:56:01Z</time>
      </trkpt>
      <trkpt lat="50.815772702917457" lon="5.103155951946974">
        <ele>41.119999999999997</ele>
        <time>2019-04-22T12:56:02Z</time>
      </trkpt>
      <trkpt lat="50.815829783678055" lon="5.103143379092217">
        <ele>41.060000000000002</ele>
        <time>2019-04-22T12:56:03Z</time>
      </trkpt>
      <trkpt lat="50.815886529162526" lon="5.103141032159329">
        <ele>40.979999999999997</ele>
        <time>2019-04-22T12:56:04Z</time>
      </trkpt>
      <trkpt lat="50.815940508618951" lon="5.10314891114831">
        <ele>40.969999999999999</ele>
        <time>2019-04-22T12:56:05Z</time>
      </trkpt>
      <trkpt lat="50.8159932307899" lon="5.103162825107575">
        <ele>41.039999999999999</ele>
        <time>2019-04-22T12:56:06Z</time>
      </trkpt>
      <trkpt lat="50.816045450046659" lon="5.103179588913918">
        <ele>41.039999999999999</ele>
        <time>2019-04-22T12:56:07Z</time>
      </trkpt>
      <trkpt lat="50.816095657646656" lon="5.103202974423766">
        <ele>40.960000000000001</ele>
        <time>2019-04-22T12:56:08Z</time>
      </trkpt>
      <trkpt lat="50.81614569760859" lon="5.103231556713581">
        <ele>41.020000000000003</ele>
        <time>2019-04-22T12:56:09Z</time>
      </trkpt>
      <trkpt lat="50.816677529364824" lon="5.103544788435102">
        <ele>40.920000000000002</ele>
        <time>2019-04-22T12:56:21Z</time>
      </trkpt>
      <trkpt lat="50.816796300932765" lon="5.103660877794027">
        <ele>41</ele>
        <time>2019-04-22T12:56:24Z</time>
      </trkpt>
      <trkpt lat="50.816835947334766" lon="5.103692645207048">
        <ele>41.009999999999998</ele>
        <time>2019-04-22T12:56:25Z</time>
      </trkpt>
      <trkpt lat="50.816876515746117" lon="5.103725250810385">
        <ele>41</ele>
        <time>2019-04-22T12:56:26Z</time>
      </trkpt>
      <trkpt lat="50.81691917963326" lon="5.103752324357629">
        <ele>41</ele>
        <time>2019-04-22T12:56:27Z</time>
      </trkpt>
      <trkpt lat="50.81696611829102" lon="5.103770261630416">
        <ele>40.990000000000002</ele>
        <time>2019-04-22T12:56:28Z</time>
      </trkpt>
      <trkpt lat="50.817011296749115" lon="5.103787779808044">
        <ele>41.009999999999998</ele>
        <time>2019-04-22T12:56:29Z</time>
      </trkpt>
      <trkpt lat="50.817225873470306" lon="5.103881908580661">
        <ele>41.009999999999998</ele>
        <time>2019-04-22T12:56:34Z</time>
      </trkpt>
      <trkpt lat="50.817566346377134" lon="5.103827007114887">
        <ele>40.869999999999997</ele>
        <time>2019-04-22T12:56:46Z</time>
      </trkpt>
      <trkpt lat="50.817810846492648" lon="5.103514781221747">
        <ele>40.729999999999997</ele>
        <time>2019-04-22T12:57:01Z</time>
      </trkpt>
      <trkpt lat="50.817986950278282" lon="5.103650903329253">
        <ele>40.579999999999998</ele>
        <time>2019-04-22T12:57:13Z</time>
      </trkpt>
      <trkpt lat="50.818090466782451" lon="5.103777637705207">
        <ele>40.530000000000001</ele>
        <time>2019-04-22T12:57:18Z</time>
      </trkpt>
      <trkpt lat="50.818127179518342" lon="5.103783924132586">
        <ele>40.520000000000003</ele>
        <time>2019-04-22T12:57:19Z</time>
      </trkpt>
      <trkpt lat="50.818161377683282" lon="5.103783337399364">
        <ele>40.490000000000002</ele>
        <time>2019-04-22T12:57:20Z</time>
      </trkpt>
      <trkpt lat="50.818196497857571" lon="5.103779062628746">
        <ele>40.450000000000003</ele>
        <time>2019-04-22T12:57:21Z</time>
      </trkpt>
      <trkpt lat="50.818232456222177" lon="5.103767914697528">
        <ele>40.450000000000003</ele>
        <time>2019-04-22T12:57:22Z</time>
      </trkpt>
      <trkpt lat="50.81826631911099" lon="5.10374846868217">
        <ele>40.469999999999999</ele>
        <time>2019-04-22T12:57:23Z</time>
      </trkpt>
      <trkpt lat="50.818619532510638" lon="5.10331210680306">
        <ele>40.469999999999999</ele>
        <time>2019-04-22T12:57:34Z</time>
      </trkpt>
      <trkpt lat="50.819013565778732" lon="5.102836517617106">
        <ele>40.18</ele>
        <time>2019-04-22T12:57:47Z</time>
      </trkpt>
      <trkpt lat="50.819248426705599" lon="5.102574164047837">
        <ele>40.009999999999998</ele>
        <time>2019-04-22T12:58:01Z</time>
      </trkpt>
      <trkpt lat="50.819382453337312" lon="5.102396551519632">
        <ele>39.93</ele>
        <time>2019-04-22T12:58:14Z</time>
      </trkpt>
      <trkpt lat="50.819388320669532" lon="5.102358413860202">
        <ele>39.789999999999999</ele>
        <time>2019-04-22T12:58:34Z</time>
      </trkpt>
      <trkpt lat="50.819390416145325" lon="5.10234022513032">
        <ele>39.57</ele>
        <time>2019-04-22T12:59:08Z</time>
      </trkpt>
      <trkpt lat="50.819415813311934" lon="5.102339470759034">
        <ele>39.460000000000001</ele>
        <time>2019-04-22T12:59:27Z</time>
      </trkpt>
      <trkpt lat="50.819453531876206" lon="5.102287167683244">
        <ele>39.399999999999999</ele>
        <time>2019-04-22T12:59:41Z</time>
      </trkpt>
      <trkpt lat="50.819646399468184" lon="5.102109052240849">
        <ele>39.289999999999999</ele>
        <time>2019-04-22T12:59:59Z</time>
      </trkpt>
      <trkpt lat="50.819905484095216" lon="5.101789785549045">
        <ele>39.149999999999999</ele>
        <time>2019-04-22T13:00:21Z</time>
      </trkpt>
      <trkpt lat="50.820155013352633" lon="5.101555678993464">
        <ele>39.090000000000003</ele>
        <time>2019-04-22T13:00:40Z</time>
      </trkpt>
      <trkpt lat="50.820400267839432" lon="5.101251499727368">
        <ele>38.990000000000002</ele>
        <time>2019-04-22T13:00:56Z</time>
      </trkpt>
      <trkpt lat="50.820550387725234" lon="5.101093500852585">
        <ele>40.310000000000002</ele>
        <time>2019-04-22T13:01:00Z</time>
      </trkpt>
      <trkpt lat="50.820665555074811" lon="5.100957881659269">
        <ele>40.289999999999999</ele>
        <time>2019-04-22T13:01:03Z</time>
      </trkpt>
      <trkpt lat="50.821052379906178" lon="5.100473826751113">
        <ele>40.25</ele>
        <time>2019-04-22T13:01:17Z</time>
      </trkpt>
      <trkpt lat="50.821370640769601" lon="5.100126229226589">
        <ele>40.200000000000003</ele>
        <time>2019-04-22T13:01:28Z</time>
      </trkpt>
      <trkpt lat="50.821747491136193" lon="5.099675618112087">
        <ele>40.130000000000003</ele>
        <time>2019-04-22T13:01:41Z</time>
      </trkpt>
      <trkpt lat="50.82209961488843" lon="5.099255768582225">
        <ele>40.020000000000003</ele>
        <time>2019-04-22T13:01:54Z</time>
      </trkpt>
      <trkpt lat="50.822438411414623" lon="5.098870871588588">
        <ele>39.909999999999997</ele>
        <time>2019-04-22T13:02:07Z</time>
      </trkpt>
      <trkpt lat="50.822758851572871" lon="5.098491925746203">
        <ele>39.840000000000003</ele>
        <time>2019-04-22T13:02:19Z</time>
      </trkpt>
      <trkpt lat="50.823125978931785" lon="5.098046846687794">
        <ele>39.829999999999998</ele>
        <time>2019-04-22T13:02:32Z</time>
      </trkpt>
      <trkpt lat="50.823378106579185" lon="5.097615262493491">
        <ele>39.710000000000001</ele>
        <time>2019-04-22T13:02:44Z</time>
      </trkpt>
      <trkpt lat="50.823613135144114" lon="5.097291134297848">
        <ele>39.600000000000001</ele>
        <time>2019-04-22T13:03:00Z</time>
      </trkpt>
      <trkpt lat="50.823938855901361" lon="5.096978656947613">
        <ele>39.469999999999999</ele>
        <time>2019-04-22T13:03:17Z</time>
      </trkpt>
      <trkpt lat="50.824173549190164" lon="5.096687721088529">
        <ele>39.310000000000002</ele>
        <time>2019-04-22T13:03:36Z</time>
      </trkpt>
      <trkpt lat="50.824295002967119" lon="5.096419164910913">
        <ele>36.619999999999997</ele>
        <time>2019-04-22T13:03:46Z</time>
      </trkpt>
      <trkpt lat="50.824425676837564" lon="5.096072740852833">
        <ele>36.549999999999997</ele>
        <time>2019-04-22T13:04:02Z</time>
      </trkpt>
      <trkpt lat="50.824630949646235" lon="5.095986826345325">
        <ele>36.490000000000002</ele>
        <time>2019-04-22T13:04:16Z</time>
      </trkpt>
      <trkpt lat="50.824904954060912" lon="5.096058240160346">
        <ele>36.390000000000001</ele>
        <time>2019-04-22T13:04:35Z</time>
      </trkpt>
      <trkpt lat="50.825191615149379" lon="5.096264267340303">
        <ele>36.18</ele>
        <time>2019-04-22T13:04:56Z</time>
      </trkpt>
      <trkpt lat="50.825436618179083" lon="5.096424361690879">
        <ele>36.140000000000001</ele>
        <time>2019-04-22T13:05:12Z</time>
      </trkpt>
      <trkpt lat="50.825708275660872" lon="5.096561405807734">
        <ele>35.969999999999999</ele>
        <time>2019-04-22T13:05:30Z</time>
      </trkpt>
      <trkpt lat="50.825957218185067" lon="5.096661737188697">
        <ele>35.920000000000002</ele>
        <time>2019-04-22T13:05:47Z</time>
      </trkpt>
      <trkpt lat="50.826046569272876" lon="5.096701886504889">
        <ele>38.719999999999999</ele>
        <time>2019-04-22T13:05:52Z</time>
      </trkpt>
      <trkpt lat="50.826352005824447" lon="5.096824178472161">
        <ele>38.450000000000003</ele>
        <time>2019-04-22T13:06:11Z</time>
      </trkpt>
      <trkpt lat="50.826631961390376" lon="5.096933227032423">
        <ele>38.340000000000003</ele>
        <time>2019-04-22T13:06:30Z</time>
      </trkpt>
      <trkpt lat="50.826859110966325" lon="5.09703716263175">
        <ele>38.109999999999999</ele>
        <time>2019-04-22T13:06:46Z</time>
      </trkpt>
      <trkpt lat="50.827089361846447" lon="5.097118047997356">
        <ele>38.060000000000002</ele>
        <time>2019-04-22T13:07:01Z</time>
      </trkpt>
      <trkpt lat="50.827313996851444" lon="5.097217708826065">
        <ele>37.960000000000001</ele>
        <time>2019-04-22T13:07:17Z</time>
      </trkpt>
      <trkpt lat="50.827489430084825" lon="5.097302617505193">
        <ele>37.829999999999998</ele>
        <time>2019-04-22T13:07:33Z</time>
      </trkpt>
      <trkpt lat="50.827675508335233" lon="5.097470842301846">
        <ele>37.740000000000002</ele>
        <time>2019-04-22T13:07:48Z</time>
      </trkpt>
      <trkpt lat="50.827875165268779" lon="5.097701260820031">
        <ele>37.619999999999997</ele>
        <time>2019-04-22T13:08:04Z</time>
      </trkpt>
      <trkpt lat="50.827984130010009" lon="5.09782824665308">
        <ele>35.140000000000001</ele>
        <time>2019-04-22T13:08:14Z</time>
      </trkpt>
      <trkpt lat="50.828199042007327" lon="5.098064532503486">
        <ele>35.049999999999997</ele>
        <time>2019-04-22T13:08:31Z</time>
      </trkpt>
      <trkpt lat="50.828302390873432" lon="5.098177269101143">
        <ele>34.899999999999999</ele>
        <time>2019-04-22T13:08:38Z</time>
      </trkpt>
      <trkpt lat="50.828319657593966" lon="5.098192105069757">
        <ele>34.890000000000001</ele>
        <time>2019-04-22T13:08:39Z</time>
      </trkpt>
      <trkpt lat="50.828557536005974" lon="5.098439203575254">
        <ele>34.659999999999997</ele>
        <time>2019-04-22T13:08:57Z</time>
      </trkpt>
      <trkpt lat="50.828828103840351" lon="5.098643805831671">
        <ele>34.469999999999999</ele>
        <time>2019-04-22T13:09:16Z</time>
      </trkpt>
      <trkpt lat="50.829055840149522" lon="5.09882602840662">
        <ele>34.280000000000001</ele>
        <time>2019-04-22T13:09:33Z</time>
      </trkpt>
      <trkpt lat="50.829300424084067" lon="5.099053680896759">
        <ele>33.100000000000001</ele>
        <time>2019-04-22T13:09:50Z</time>
      </trkpt>
      <trkpt lat="50.829511564224958" lon="5.099489539861679">
        <ele>32.859999999999999</ele>
        <time>2019-04-22T13:10:13Z</time>
      </trkpt>
      <trkpt lat="50.829688254743814" lon="5.099912993609905">
        <ele>32.689999999999998</ele>
        <time>2019-04-22T13:10:35Z</time>
      </trkpt>
      <trkpt lat="50.829805852845311" lon="5.100205354392529">
        <ele>31.559999999999999</ele>
        <time>2019-04-22T13:10:50Z</time>
      </trkpt>
      <trkpt lat="50.830061081796885" lon="5.100599890574813">
        <ele>31.32</ele>
        <time>2019-04-22T13:11:13Z</time>
      </trkpt>
      <trkpt lat="50.830387389287353" lon="5.100689325481653">
        <ele>31.149999999999999</ele>
        <time>2019-04-22T13:11:31Z</time>
      </trkpt>
      <trkpt lat="50.830624597147107" lon="5.10068672709167">
        <ele>31.039999999999999</ele>
        <time>2019-04-22T13:11:46Z</time>
      </trkpt>
      <trkpt lat="50.830981330946088" lon="5.10074682533741">
        <ele>30.859999999999999</ele>
        <time>2019-04-22T13:12:10Z</time>
      </trkpt>
      <trkpt lat="50.831102952361107" lon="5.100812371820211">
        <ele>30.870000000000001</ele>
        <time>2019-04-22T13:12:19Z</time>
      </trkpt>
      <trkpt lat="50.831117201596498" lon="5.100816646590829">
        <ele>30.84</ele>
        <time>2019-04-22T13:12:20Z</time>
      </trkpt>
      <trkpt lat="50.831281486898661" lon="5.100930640473962">
        <ele>30.710000000000001</ele>
        <time>2019-04-22T13:12:32Z</time>
      </trkpt>
      <trkpt lat="50.83136941306293" lon="5.100972214713693">
        <ele>30.640000000000001</ele>
        <time>2019-04-22T13:12:38Z</time>
      </trkpt>
      <trkpt lat="50.831476114690304" lon="5.101028038188815">
        <ele>30.59</ele>
        <time>2019-04-22T13:12:47Z</time>
      </trkpt>
      <trkpt lat="50.831489525735378" lon="5.101031558588147">
        <ele>30.609999999999999</ele>
        <time>2019-04-22T13:12:48Z</time>
      </trkpt>
      <trkpt lat="50.831502098590136" lon="5.101031726226211">
        <ele>30.57</ele>
        <time>2019-04-22T13:12:49Z</time>
      </trkpt>
      <trkpt lat="50.83151894621551" lon="5.101031642407179">
        <ele>30.550000000000001</ele>
        <time>2019-04-22T13:12:50Z</time>
      </trkpt>
      <trkpt lat="50.831535374745727" lon="5.101029630750418">
        <ele>30.579999999999998</ele>
        <time>2019-04-22T13:12:51Z</time>
      </trkpt>
      <trkpt lat="50.83154970780015" lon="5.101021667942405">
        <ele>30.539999999999999</ele>
        <time>2019-04-22T13:12:52Z</time>
      </trkpt>
      <trkpt lat="50.8315643761307" lon="5.101011609658599">
        <ele>30.530000000000001</ele>
        <time>2019-04-22T13:12:53Z</time>
      </trkpt>
      <trkpt lat="50.831790855154395" lon="5.100847827270627">
        <ele>30.379999999999999</ele>
        <time>2019-04-22T13:13:09Z</time>
      </trkpt>
      <trkpt lat="50.831842320039868" lon="5.10084941983223">
        <ele>30.329999999999998</ele>
        <time>2019-04-22T13:13:12Z</time>
      </trkpt>
      <trkpt lat="50.831857994198799" lon="5.100853778421879">
        <ele>30.32</ele>
        <time>2019-04-22T13:13:13Z</time>
      </trkpt>
      <trkpt lat="50.831871824339032" lon="5.100853862240911">
        <ele>30.329999999999998</ele>
        <time>2019-04-22T13:13:14Z</time>
      </trkpt>
      <trkpt lat="50.832178685814142" lon="5.10091588832438">
        <ele>30.190000000000001</ele>
        <time>2019-04-22T13:13:30Z</time>
      </trkpt>
      <trkpt lat="50.832355627790093" lon="5.100916307419539">
        <ele>30.079999999999998</ele>
        <time>2019-04-22T13:13:43Z</time>
      </trkpt>
      <trkpt lat="50.832574479281902" lon="5.10090415365994">
        <ele>29.98</ele>
        <time>2019-04-22T13:13:59Z</time>
      </trkpt>
      <trkpt lat="50.832633236423135" lon="5.100869536399841">
        <ele>29.190000000000001</ele>
        <time>2019-04-22T13:14:05Z</time>
      </trkpt>
      <trkpt lat="50.832647485658526" lon="5.100843803957105">
        <ele>29.18</ele>
        <time>2019-04-22T13:14:06Z</time>
      </trkpt>
      <trkpt lat="50.832678833976388" lon="5.100593352690339">
        <ele>29.07</ele>
        <time>2019-04-22T13:14:21Z</time>
      </trkpt>
      <trkpt lat="50.832656538113952" lon="5.100516406819224">
        <ele>29.039999999999999</ele>
        <time>2019-04-22T13:14:25Z</time>
      </trkpt>
      <trkpt lat="50.83265352062881" lon="5.10049469769001">
        <ele>29.030000000000001</ele>
        <time>2019-04-22T13:14:26Z</time>
      </trkpt>
      <trkpt lat="50.83264815621078" lon="5.100476508960128">
        <ele>29.02</ele>
        <time>2019-04-22T13:14:27Z</time>
      </trkpt>
      <trkpt lat="50.832577329128981" lon="5.100053306668997">
        <ele>28.940000000000001</ele>
        <time>2019-04-22T13:14:48Z</time>
      </trkpt>
      <trkpt lat="50.83265695720911" lon="5.099809812381864">
        <ele>31.16</ele>
        <time>2019-04-22T13:15:01Z</time>
      </trkpt>
      <trkpt lat="50.832502562552691" lon="5.099470848217607">
        <ele>31.059999999999999</ele>
        <time>2019-04-22T13:15:19Z</time>
      </trkpt>
      <trkpt lat="50.832364093512297" lon="5.099021159112454">
        <ele>31.039999999999999</ele>
        <time>2019-04-22T13:15:37Z</time>
      </trkpt>
      <trkpt lat="50.832164520397782" lon="5.098572308197618">
        <ele>32</ele>
        <time>2019-04-22T13:16:00Z</time>
      </trkpt>
      <trkpt lat="50.832109367474914" lon="5.098461583256722">
        <ele>31.969999999999999</ele>
        <time>2019-04-22T13:16:06Z</time>
      </trkpt>
      <trkpt lat="50.831826226785779" lon="5.097955316305161">
        <ele>31.899999999999999</ele>
        <time>2019-04-22T13:16:35Z</time>
      </trkpt>
      <trkpt lat="50.83179647102952" lon="5.09755072183907">
        <ele>31.780000000000001</ele>
        <time>2019-04-22T13:16:54Z</time>
      </trkpt>
      <trkpt lat="50.831985482946038" lon="5.097124585881829">
        <ele>31.710000000000001</ele>
        <time>2019-04-22T13:17:05Z</time>
      </trkpt>
      <trkpt lat="50.832143062725663" lon="5.096922582015395">
        <ele>29.09</ele>
        <time>2019-04-22T13:17:13Z</time>
      </trkpt>
      <trkpt lat="50.832253703847528" lon="5.096774473786354">
        <ele>28.890000000000001</ele>
        <time>2019-04-22T13:17:31Z</time>
      </trkpt>
      <trkpt lat="50.832493342459202" lon="5.096453614532948">
        <ele>28.649999999999999</ele>
        <time>2019-04-22T13:17:48Z</time>
      </trkpt>
      <trkpt lat="50.832809088751674" lon="5.096112471073866">
        <ele>28.48</ele>
        <time>2019-04-22T13:17:58Z</time>
      </trkpt>
      <trkpt lat="50.833148807287216" lon="5.095642833039165">
        <ele>28.32</ele>
        <time>2019-04-22T13:18:09Z</time>
      </trkpt>
      <trkpt lat="50.833376878872514" lon="5.095273358747363">
        <ele>28.18</ele>
        <time>2019-04-22T13:18:21Z</time>
      </trkpt>
      <trkpt lat="50.833509983494878" lon="5.095114270225167">
        <ele>30.350000000000001</ele>
        <time>2019-04-22T13:18:31Z</time>
      </trkpt>
      <trkpt lat="50.833580307662487" lon="5.095028690993786">
        <ele>30.280000000000001</ele>
        <time>2019-04-22T13:18:37Z</time>
      </trkpt>
      <trkpt lat="50.833553904667497" lon="5.094860717654228">
        <ele>30.199999999999999</ele>
        <time>2019-04-22T13:18:46Z</time>
      </trkpt>
      <trkpt lat="50.833619786426425" lon="5.094968508929014">
        <ele>30.170000000000002</ele>
        <time>2019-04-22T13:18:50Z</time>
      </trkpt>
      <trkpt lat="50.83287145011127" lon="5.093563366681337">
        <ele>30.100000000000001</ele>
        <time>2019-04-22T13:19:04Z</time>
      </trkpt>
      <trkpt lat="50.832129484042525" lon="5.090945111587644">
        <ele>30.02</ele>
        <time>2019-04-22T13:19:18Z</time>
      </trkpt>
      <trkpt lat="50.831708125770092" lon="5.090378997847438">
        <ele>29.91</ele>
        <time>2019-04-22T13:19:43Z</time>
      </trkpt>
      <trkpt lat="50.832689143717289" lon="5.087295630946755">
        <ele>30.879999999999999</ele>
        <time>2019-04-22T13:27:06Z</time>
      </trkpt>
      <trkpt lat="50.83402119576931" lon="5.084523567929864">
        <ele>30.550000000000001</ele>
        <time>2019-04-22T13:27:39Z</time>
      </trkpt>
      <trkpt lat="50.834122281521559" lon="5.084220310673118">
        <ele>30.539999999999999</ele>
        <time>2019-04-22T13:27:53Z</time>
      </trkpt>
      <trkpt lat="50.834256559610367" lon="5.083973212167621">
        <ele>30.510000000000002</ele>
        <time>2019-04-22T13:28:08Z</time>
      </trkpt>
      <trkpt lat="50.834376253187656" lon="5.083786798641086">
        <ele>30.489999999999998</ele>
        <time>2019-04-22T13:28:20Z</time>
      </trkpt>
      <trkpt lat="50.834529055282474" lon="5.083461832255125">
        <ele>30.460000000000001</ele>
        <time>2019-04-22T13:28:36Z</time>
      </trkpt>
      <trkpt lat="50.83468034863472" lon="5.08319185115397">
        <ele>30.440000000000001</ele>
        <time>2019-04-22T13:28:50Z</time>
      </trkpt>
      <trkpt lat="50.834852177649736" lon="5.082957157865167">
        <ele>30.440000000000001</ele>
        <time>2019-04-22T13:29:04Z</time>
      </trkpt>
      <trkpt lat="50.83502727560699" lon="5.08260159753263">
        <ele>30.43</ele>
        <time>2019-04-22T13:29:22Z</time>
      </trkpt>
      <trkpt lat="50.835190722718835" lon="5.082282749935985">
        <ele>30.41</ele>
        <time>2019-04-22T13:29:38Z</time>
      </trkpt>
      <trkpt lat="50.835346709936857" lon="5.082002962008119">
        <ele>30.399999999999999</ele>
        <time>2019-04-22T13:29:53Z</time>
      </trkpt>
      <trkpt lat="50.835503870621324" lon="5.081672463566065">
        <ele>30.390000000000001</ele>
        <time>2019-04-22T13:30:08Z</time>
      </trkpt>
      <trkpt lat="50.835697995498776" lon="5.081339115276933">
        <ele>30.390000000000001</ele>
        <time>2019-04-22T13:30:26Z</time>
      </trkpt>
      <trkpt lat="50.83583646453917" lon="5.081030577421188">
        <ele>30.390000000000001</ele>
        <time>2019-04-22T13:30:43Z</time>
      </trkpt>
      <trkpt lat="50.835893796756864" lon="5.080921864137054">
        <ele>33.460000000000001</ele>
        <time>2019-04-22T13:30:49Z</time>
      </trkpt>
      <trkpt lat="50.835902513936162" lon="5.080905184149742">
        <ele>33.460000000000001</ele>
        <time>2019-04-22T13:30:50Z</time>
      </trkpt>
      <trkpt lat="50.835937969386578" lon="5.080839637666941">
        <ele>29.539999999999999</ele>
        <time>2019-04-22T13:30:54Z</time>
      </trkpt>
      <trkpt lat="50.835947189480066" lon="5.080820610746741">
        <ele>29.539999999999999</ele>
        <time>2019-04-22T13:30:55Z</time>
      </trkpt>
      <trkpt lat="50.836107451468706" lon="5.080528082326055">
        <ele>29.530000000000001</ele>
        <time>2019-04-22T13:31:09Z</time>
      </trkpt>
      <trkpt lat="50.836270060390234" lon="5.080243851989508">
        <ele>29.52</ele>
        <time>2019-04-22T13:31:20Z</time>
      </trkpt>
      <trkpt lat="50.836418839171529" lon="5.079957274720073">
        <ele>29.460000000000001</ele>
        <time>2019-04-22T13:31:34Z</time>
      </trkpt>
      <trkpt lat="50.836602402850986" lon="5.079606827348471">
        <ele>29.390000000000001</ele>
        <time>2019-04-22T13:31:52Z</time>
      </trkpt>
      <trkpt lat="50.836801640689373" lon="5.07924715988338">
        <ele>29.350000000000001</ele>
        <time>2019-04-22T13:32:06Z</time>
      </trkpt>
      <trkpt lat="50.836950000375509" lon="5.078949434682727">
        <ele>29.309999999999999</ele>
        <time>2019-04-22T13:32:22Z</time>
      </trkpt>
      <trkpt lat="50.837074723094702" lon="5.078706359490752">
        <ele>31.559999999999999</ele>
        <time>2019-04-22T13:32:37Z</time>
      </trkpt>
      <trkpt lat="50.837208162993193" lon="5.078464625403285">
        <ele>31.550000000000001</ele>
        <time>2019-04-22T13:32:50Z</time>
      </trkpt>
      <trkpt lat="50.837355768308043" lon="5.078198835253716">
        <ele>31.539999999999999</ele>
        <time>2019-04-22T13:33:06Z</time>
      </trkpt>
      <trkpt lat="50.837366245687008" lon="5.078135635703802">
        <ele>31.550000000000001</ele>
        <time>2019-04-22T13:33:09Z</time>
      </trkpt>
      <trkpt lat="50.837377980351448" lon="5.078120213001967">
        <ele>31.550000000000001</ele>
        <time>2019-04-22T13:33:10Z</time>
      </trkpt>
      <trkpt lat="50.837389463558793" lon="5.078107137233019">
        <ele>31.550000000000001</ele>
        <time>2019-04-22T13:33:11Z</time>
      </trkpt>
      <trkpt lat="50.837398013100028" lon="5.078091965988278">
        <ele>31.550000000000001</ele>
        <time>2019-04-22T13:33:12Z</time>
      </trkpt>
      <trkpt lat="50.837405724450946" lon="5.078077213838697">
        <ele>31.550000000000001</ele>
        <time>2019-04-22T13:33:13Z</time>
      </trkpt>
      <trkpt lat="50.837537068873644" lon="5.077748307958245">
        <ele>31.559999999999999</ele>
        <time>2019-04-22T13:33:31Z</time>
      </trkpt>
      <trkpt lat="50.83769422955811" lon="5.077417474240065">
        <ele>31.559999999999999</ele>
        <time>2019-04-22T13:33:49Z</time>
      </trkpt>
      <trkpt lat="50.837881732732058" lon="5.077069625258446">
        <ele>31.52</ele>
        <time>2019-04-22T13:34:08Z</time>
      </trkpt>
      <trkpt lat="50.838063703849912" lon="5.076687661930919">
        <ele>31.57</ele>
        <time>2019-04-22T13:34:30Z</time>
      </trkpt>
      <trkpt lat="50.838230419903994" lon="5.076377699151635">
        <ele>31.59</ele>
        <time>2019-04-22T13:34:43Z</time>
      </trkpt>
      <trkpt lat="50.838389927521348" lon="5.076052900403738">
        <ele>31.550000000000001</ele>
        <time>2019-04-22T13:34:58Z</time>
      </trkpt>
      <trkpt lat="50.838574999943376" lon="5.075712762773037">
        <ele>31.609999999999999</ele>
        <time>2019-04-22T13:35:16Z</time>
      </trkpt>
      <trkpt lat="50.838635265827179" lon="5.075570270419121">
        <ele>31.449999999999999</ele>
        <time>2019-04-22T13:35:23Z</time>
      </trkpt>
      <trkpt lat="50.838649934157729" lon="5.075546549633145">
        <ele>31.48</ele>
        <time>2019-04-22T13:35:24Z</time>
      </trkpt>
      <trkpt lat="50.838705589994788" lon="5.075443703681231">
        <ele>31.510000000000002</ele>
        <time>2019-04-22T13:35:28Z</time>
      </trkpt>
      <trkpt lat="50.838720593601465" lon="5.075415708124638">
        <ele>31.52</ele>
        <time>2019-04-22T13:35:29Z</time>
      </trkpt>
      <trkpt lat="50.838731238618493" lon="5.075393160805106">
        <ele>31.48</ele>
        <time>2019-04-22T13:35:30Z</time>
      </trkpt>
      <trkpt lat="50.838751271367073" lon="5.07536793127656">
        <ele>31.5</ele>
        <time>2019-04-22T13:35:31Z</time>
      </trkpt>
      <trkpt lat="50.838767532259226" lon="5.075343120843172">
        <ele>31.48</ele>
        <time>2019-04-22T13:35:32Z</time>
      </trkpt>
      <trkpt lat="50.838907929137349" lon="5.075120748952031">
        <ele>31.48</ele>
        <time>2019-04-22T13:35:42Z</time>
      </trkpt>
      <trkpt lat="50.83900180645287" lon="5.074890414252877">
        <ele>31.390000000000001</ele>
        <time>2019-04-22T13:35:51Z</time>
      </trkpt>
      <trkpt lat="50.839111357927322" lon="5.074656140059233">
        <ele>31.32</ele>
        <time>2019-04-22T13:36:05Z</time>
      </trkpt>
      <trkpt lat="50.839239684864879" lon="5.07443712092936">
        <ele>31.280000000000001</ele>
        <time>2019-04-22T13:36:18Z</time>
      </trkpt>
      <trkpt lat="50.839384105056524" lon="5.074107544496656">
        <ele>31.18</ele>
        <time>2019-04-22T13:36:36Z</time>
      </trkpt>
      <trkpt lat="50.839523831382394" lon="5.073869749903679">
        <ele>31.129999999999999</ele>
        <time>2019-04-22T13:36:48Z</time>
      </trkpt>
      <trkpt lat="50.83967856131494" lon="5.073596751317382">
        <ele>31.129999999999999</ele>
        <time>2019-04-22T13:37:00Z</time>
      </trkpt>
      <trkpt lat="50.839802110567689" lon="5.073383515700698">
        <ele>31.129999999999999</ele>
        <time>2019-04-22T13:37:11Z</time>
      </trkpt>
      <trkpt lat="50.839932281523943" lon="5.073112864047289">
        <ele>31.07</ele>
        <time>2019-04-22T13:37:25Z</time>
      </trkpt>
      <trkpt lat="50.840139565989375" lon="5.072736935690045">
        <ele>31.039999999999999</ele>
        <time>2019-04-22T13:37:46Z</time>
      </trkpt>
      <trkpt lat="50.840298151597381" lon="5.072417417541146">
        <ele>30.91</ele>
        <time>2019-04-22T13:37:59Z</time>
      </trkpt>
      <trkpt lat="50.8403973095119" lon="5.072222454473376">
        <ele>30.899999999999999</ele>
        <time>2019-04-22T13:38:03Z</time>
      </trkpt>
      <trkpt lat="50.840423796325922" lon="5.072169480845332">
        <ele>30.899999999999999</ele>
        <time>2019-04-22T13:38:04Z</time>
      </trkpt>
      <trkpt lat="50.840483140200377" lon="5.07207359187305">
        <ele>30.890000000000001</ele>
        <time>2019-04-22T13:38:06Z</time>
      </trkpt>
      <trkpt lat="50.840612975880504" lon="5.071793887764216">
        <ele>30.93</ele>
        <time>2019-04-22T13:38:16Z</time>
      </trkpt>
      <trkpt lat="50.840638121590018" lon="5.071733286604285">
        <ele>30.920000000000002</ele>
        <time>2019-04-22T13:38:18Z</time>
      </trkpt>
      <trkpt lat="50.840658489614725" lon="5.071704369038343">
        <ele>30.940000000000001</ele>
        <time>2019-04-22T13:38:19Z</time>
      </trkpt>
      <trkpt lat="50.840680198743939" lon="5.071672014892101">
        <ele>30.920000000000002</ele>
        <time>2019-04-22T13:38:20Z</time>
      </trkpt>
      <trkpt lat="50.840848255902529" lon="5.071382420137525">
        <ele>30.859999999999999</ele>
        <time>2019-04-22T13:38:32Z</time>
      </trkpt>
      <trkpt lat="50.840989490970969" lon="5.07121704518795">
        <ele>30.809999999999999</ele>
        <time>2019-04-22T13:38:40Z</time>
      </trkpt>
      <trkpt lat="50.841007260605693" lon="5.071179326623678">
        <ele>30.809999999999999</ele>
        <time>2019-04-22T13:38:41Z</time>
      </trkpt>
      <trkpt lat="50.841067945584655" lon="5.071061225607991">
        <ele>27.379999999999999</ele>
        <time>2019-04-22T13:38:45Z</time>
      </trkpt>
      <trkpt lat="50.841102562844753" lon="5.070994338020682">
        <ele>31.960000000000001</ele>
        <time>2019-04-22T13:38:47Z</time>
      </trkpt>
      <trkpt lat="50.841120751574636" lon="5.070957709103823">
        <ele>31.960000000000001</ele>
        <time>2019-04-22T13:38:48Z</time>
      </trkpt>
      <trkpt lat="50.841154614463449" lon="5.070887971669436">
        <ele>29.600000000000001</ele>
        <time>2019-04-22T13:38:50Z</time>
      </trkpt>
      <trkpt lat="50.841359384357929" lon="5.070526292547584">
        <ele>29.559999999999999</ele>
        <time>2019-04-22T13:39:00Z</time>
      </trkpt>
      <trkpt lat="50.841530794277787" lon="5.070189842954278">
        <ele>29.510000000000002</ele>
        <time>2019-04-22T13:39:09Z</time>
      </trkpt>
      <trkpt lat="50.841832039877772" lon="5.069697489961982">
        <ele>29.460000000000001</ele>
        <time>2019-04-22T13:39:21Z</time>
      </trkpt>
      <trkpt lat="50.841981908306479" lon="5.0693822465837">
        <ele>29.34</ele>
        <time>2019-04-22T13:39:34Z</time>
      </trkpt>
      <trkpt lat="50.842062039300799" lon="5.069163646548986">
        <ele>28.539999999999999</ele>
        <time>2019-04-22T13:39:43Z</time>
      </trkpt>
      <trkpt lat="50.842068158090115" lon="5.069147385656834">
        <ele>28.539999999999999</ele>
        <time>2019-04-22T13:39:44Z</time>
      </trkpt>
      <trkpt lat="50.842078635469079" lon="5.069128442555666">
        <ele>28.539999999999999</ele>
        <time>2019-04-22T13:39:45Z</time>
      </trkpt>
      <trkpt lat="50.842087771743536" lon="5.069109834730625">
        <ele>28.539999999999999</ele>
        <time>2019-04-22T13:39:46Z</time>
      </trkpt>
      <trkpt lat="50.842095147818327" lon="5.069092568010092">
        <ele>28.559999999999999</ele>
        <time>2019-04-22T13:39:47Z</time>
      </trkpt>
      <trkpt lat="50.842251135036349" lon="5.068733403459191">
        <ele>28.510000000000002</ele>
        <time>2019-04-22T13:40:01Z</time>
      </trkpt>
      <trkpt lat="50.842503933236003" lon="5.06826862692833">
        <ele>28.43</ele>
        <time>2019-04-22T13:40:12Z</time>
      </trkpt>
      <trkpt lat="50.842714570462704" lon="5.067729502916336">
        <ele>28.350000000000001</ele>
        <time>2019-04-22T13:40:24Z</time>
      </trkpt>
      <trkpt lat="50.842937864363194" lon="5.067403698340058">
        <ele>28.309999999999999</ele>
        <time>2019-04-22T13:40:34Z</time>
      </trkpt>
      <trkpt lat="50.842992346733809" lon="5.067317029461265">
        <ele>32.409999999999997</ele>
        <time>2019-04-22T13:40:38Z</time>
      </trkpt>
      <trkpt lat="50.843014810234308" lon="5.067291967570782">
        <ele>32.369999999999997</ele>
        <time>2019-04-22T13:40:39Z</time>
      </trkpt>
      <trkpt lat="50.843035010620952" lon="5.067270593717694">
        <ele>27.629999999999999</ele>
        <time>2019-04-22T13:40:40Z</time>
      </trkpt>
      <trkpt lat="50.843046829104424" lon="5.067247711122036">
        <ele>30.07</ele>
        <time>2019-04-22T13:40:41Z</time>
      </trkpt>
      <trkpt lat="50.843056635931134" lon="5.067226924002171">
        <ele>30.050000000000001</ele>
        <time>2019-04-22T13:40:42Z</time>
      </trkpt>
      <trkpt lat="50.843069963157177" lon="5.067212674766779">
        <ele>30.039999999999999</ele>
        <time>2019-04-22T13:40:43Z</time>
      </trkpt>
      <trkpt lat="50.843217903748155" lon="5.066925594583154">
        <ele>30.609999999999999</ele>
        <time>2019-04-22T13:40:58Z</time>
      </trkpt>
      <trkpt lat="50.843412363901734" lon="5.066552683711052">
        <ele>30.609999999999999</ele>
        <time>2019-04-22T13:41:11Z</time>
      </trkpt>
      <trkpt lat="50.843639764934778" lon="5.066173486411572">
        <ele>30.609999999999999</ele>
        <time>2019-04-22T13:41:22Z</time>
      </trkpt>
      <trkpt lat="50.843987865373492" lon="5.065488182008266">
        <ele>30.579999999999998</ele>
        <time>2019-04-22T13:41:36Z</time>
      </trkpt>
      <trkpt lat="50.844280645251274" lon="5.064840344712138">
        <ele>30.510000000000002</ele>
        <time>2019-04-22T13:41:49Z</time>
      </trkpt>
      <trkpt lat="50.844483571127057" lon="5.064288312569261">
        <ele>30.420000000000002</ele>
        <time>2019-04-22T13:42:00Z</time>
      </trkpt>
      <trkpt lat="50.844502346590161" lon="5.064226789399982">
        <ele>30.420000000000002</ele>
        <time>2019-04-22T13:42:01Z</time>
      </trkpt>
      <trkpt lat="50.84451500326395" lon="5.064167864620686">
        <ele>30.41</ele>
        <time>2019-04-22T13:42:02Z</time>
      </trkpt>
      <trkpt lat="50.844681886956096" lon="5.063514579087496">
        <ele>30.32</ele>
        <time>2019-04-22T13:42:15Z</time>
      </trkpt>
      <trkpt lat="50.844825049862266" lon="5.062898173928261">
        <ele>30.239999999999998</ele>
        <time>2019-04-22T13:42:26Z</time>
      </trkpt>
      <trkpt lat="50.844884058460593" lon="5.06252626888454">
        <ele>30.219999999999999</ele>
        <time>2019-04-22T13:42:31Z</time>
      </trkpt>
      <trkpt lat="50.844892105087638" lon="5.062394253909588">
        <ele>26.699999999999999</ele>
        <time>2019-04-22T13:42:33Z</time>
      </trkpt>
      <trkpt lat="50.844902079552412" lon="5.062340945005417">
        <ele>26.699999999999999</ele>
        <time>2019-04-22T13:42:34Z</time>
      </trkpt>
      <trkpt lat="50.844908701255918" lon="5.062247738242149">
        <ele>29.02</ele>
        <time>2019-04-22T13:42:36Z</time>
      </trkpt>
      <trkpt lat="50.84493275731802" lon="5.061780950054526">
        <ele>28.960000000000001</ele>
        <time>2019-04-22T13:42:47Z</time>
      </trkpt>
      <trkpt lat="50.844916328787804" lon="5.061135459691286">
        <ele>28.899999999999999</ele>
        <time>2019-04-22T13:42:59Z</time>
      </trkpt>
      <trkpt lat="50.844885483384132" lon="5.060491729527712">
        <ele>28.84</ele>
        <time>2019-04-22T13:43:11Z</time>
      </trkpt>
      <trkpt lat="50.844915909692645" lon="5.060105659067631">
        <ele>28.77</ele>
        <time>2019-04-22T13:43:20Z</time>
      </trkpt>
      <trkpt lat="50.844976427033544" lon="5.059786727651954">
        <ele>28.609999999999999</ele>
        <time>2019-04-22T13:43:31Z</time>
      </trkpt>
      <trkpt lat="50.8449493534863" lon="5.059385485947132">
        <ele>28.350000000000001</ele>
        <time>2019-04-22T13:43:46Z</time>
      </trkpt>
      <trkpt lat="50.844931164756417" lon="5.05895390175283">
        <ele>27.98</ele>
        <time>2019-04-22T13:44:07Z</time>
      </trkpt>
      <trkpt lat="50.844829743728042" lon="5.058639999479055">
        <ele>27.690000000000001</ele>
        <time>2019-04-22T13:44:22Z</time>
      </trkpt>
      <trkpt lat="50.844788756221533" lon="5.058510834351182">
        <ele>27.559999999999999</ele>
        <time>2019-04-22T13:44:29Z</time>
      </trkpt>
      <trkpt lat="50.844643916934729" lon="5.058111185207963">
        <ele>27.27</ele>
        <time>2019-04-22T13:44:45Z</time>
      </trkpt>
      <trkpt lat="50.844523552805185" lon="5.057754535228014">
        <ele>27.07</ele>
        <time>2019-04-22T13:45:00Z</time>
      </trkpt>
      <trkpt lat="50.844388687983155" lon="5.057331416755915">
        <ele>27.5</ele>
        <time>2019-04-22T13:45:24Z</time>
      </trkpt>
      <trkpt lat="50.844299839809537" lon="5.05709613673389">
        <ele>27.43</ele>
        <time>2019-04-22T13:45:33Z</time>
      </trkpt>
      <trkpt lat="50.844295313581824" lon="5.057063112035394">
        <ele>27.41</ele>
        <time>2019-04-22T13:45:34Z</time>
      </trkpt>
      <trkpt lat="50.844286680221558" lon="5.057044001296163">
        <ele>27.399999999999999</ele>
        <time>2019-04-22T13:45:35Z</time>
      </trkpt>
      <trkpt lat="50.844204621389508" lon="5.056756753474474">
        <ele>27.219999999999999</ele>
        <time>2019-04-22T13:45:47Z</time>
      </trkpt>
      <trkpt lat="50.844206884503365" lon="5.056667821481824">
        <ele>27.18</ele>
        <time>2019-04-22T13:45:50Z</time>
      </trkpt>
      <trkpt lat="50.844284165650606" lon="5.056463470682502">
        <ele>27.789999999999999</ele>
        <time>2019-04-22T13:46:03Z</time>
      </trkpt>
      <trkpt lat="50.844190204516053" lon="5.05613598972559">
        <ele>27.629999999999999</ele>
        <time>2019-04-22T13:46:18Z</time>
      </trkpt>
      <trkpt lat="50.844112923368812" lon="5.055802389979363">
        <ele>27.550000000000001</ele>
        <time>2019-04-22T13:46:31Z</time>
      </trkpt>
      <trkpt lat="50.843990044668317" lon="5.055455882102251">
        <ele>27.449999999999999</ele>
        <time>2019-04-22T13:46:47Z</time>
      </trkpt>
      <trkpt lat="50.843868171796203" lon="5.055102333426476">
        <ele>27.350000000000001</ele>
        <time>2019-04-22T13:47:01Z</time>
      </trkpt>
      <trkpt lat="50.843751914799213" lon="5.054654320701957">
        <ele>27.23</ele>
        <time>2019-04-22T13:47:19Z</time>
      </trkpt>
      <trkpt lat="50.843642363324761" lon="5.054309740662575">
        <ele>27.16</ele>
        <time>2019-04-22T13:47:33Z</time>
      </trkpt>
      <trkpt lat="50.843490567058325" lon="5.05392299965024">
        <ele>27.07</ele>
        <time>2019-04-22T13:47:46Z</time>
      </trkpt>
      <trkpt lat="50.843475144356489" lon="5.053895842283964">
        <ele>27.059999999999999</ele>
        <time>2019-04-22T13:47:47Z</time>
      </trkpt>
      <trkpt lat="50.843426529318094" lon="5.053541623055935">
        <ele>26.920000000000002</ele>
        <time>2019-04-22T13:48:01Z</time>
      </trkpt>
      <trkpt lat="50.843390235677361" lon="5.053199892863631">
        <ele>26.800000000000001</ele>
        <time>2019-04-22T13:48:18Z</time>
      </trkpt>
      <trkpt lat="50.84327825345099" lon="5.052675101906061">
        <ele>26.600000000000001</ele>
        <time>2019-04-22T13:48:42Z</time>
      </trkpt>
      <trkpt lat="50.843192087486386" lon="5.052029611542821">
        <ele>26.449999999999999</ele>
        <time>2019-04-22T13:48:57Z</time>
      </trkpt>
      <trkpt lat="50.842999387532473" lon="5.052124662324786">
        <ele>26.329999999999998</ele>
        <time>2019-04-22T13:49:08Z</time>
      </trkpt>
      <trkpt lat="50.842989329248667" lon="5.05211946554482">
        <ele>26.32</ele>
        <time>2019-04-22T13:49:09Z</time>
      </trkpt>
      <trkpt lat="50.842852368950844" lon="5.052130445837975">
        <ele>26.960000000000001</ele>
        <time>2019-04-22T13:49:25Z</time>
      </trkpt>
      <trkpt lat="50.842806771397591" lon="5.052149137482047">
        <ele>26.829999999999998</ele>
        <time>2019-04-22T13:49:42Z</time>
      </trkpt>
      <trkpt lat="50.842813812196255" lon="5.052166152745485">
        <ele>26.690000000000001</ele>
        <time>2019-04-22T13:50:06Z</time>
      </trkpt>
      <trkpt lat="50.842811800539494" lon="5.052157519385219">
        <ele>26.620000000000001</ele>
        <time>2019-04-22T13:50:25Z</time>
      </trkpt>
      <trkpt lat="50.842824373394251" lon="5.05216053687036">
        <ele>24.699999999999999</ele>
        <time>2019-04-22T13:50:32Z</time>
      </trkpt>
      <trkpt lat="50.842824624851346" lon="5.052167493849993">
        <ele>31.309999999999999</ele>
        <time>2019-04-22T13:50:33Z</time>
      </trkpt>
      <trkpt lat="50.842828145250678" lon="5.052178222686052">
        <ele>27.41</ele>
        <time>2019-04-22T13:50:34Z</time>
      </trkpt>
      <trkpt lat="50.842833928763866" lon="5.052199261263013">
        <ele>26.140000000000001</ele>
        <time>2019-04-22T13:50:36Z</time>
      </trkpt>
      <trkpt lat="50.842867707833648" lon="5.052253575995565">
        <ele>26.050000000000001</ele>
        <time>2019-04-22T13:50:56Z</time>
      </trkpt>
      <trkpt lat="50.842860750854015" lon="5.052270004525781">
        <ele>26.350000000000001</ele>
        <time>2019-04-22T13:51:02Z</time>
      </trkpt>
      <trkpt lat="50.842867456376553" lon="5.052373269572854">
        <ele>32.670000000000002</ele>
        <time>2019-04-22T14:32:06Z</time>
      </trkpt>
      <trkpt lat="50.84284289740026" lon="5.052068922668695">
        <ele>32.609999999999999</ele>
        <time>2019-04-22T14:32:21Z</time>
      </trkpt>
      <trkpt lat="50.842838454991579" lon="5.052050650119782">
        <ele>32.609999999999999</ele>
        <time>2019-04-22T14:32:22Z</time>
      </trkpt>
      <trkpt lat="50.842813896015286" lon="5.051919808611274">
        <ele>32.579999999999998</ele>
        <time>2019-04-22T14:32:29Z</time>
      </trkpt>
      <trkpt lat="50.842812471091747" lon="5.051894159987569">
        <ele>32.57</ele>
        <time>2019-04-22T14:32:30Z</time>
      </trkpt>
      <trkpt lat="50.842718761414289" lon="5.051605235785246">
        <ele>32.539999999999999</ele>
        <time>2019-04-22T14:32:43Z</time>
      </trkpt>
      <trkpt lat="50.842678947374225" lon="5.051455618813634">
        <ele>32.530000000000001</ele>
        <time>2019-04-22T14:32:49Z</time>
      </trkpt>
      <trkpt lat="50.842661261558533" lon="5.051397951319814">
        <ele>32.530000000000001</ele>
        <time>2019-04-22T14:32:52Z</time>
      </trkpt>
      <trkpt lat="50.842569563537836" lon="5.051099555566907">
        <ele>32.439999999999998</ele>
        <time>2019-04-22T14:33:08Z</time>
      </trkpt>
      <trkpt lat="50.842447355389595" lon="5.050715245306492">
        <ele>32.390000000000001</ele>
        <time>2019-04-22T14:33:24Z</time>
      </trkpt>
      <trkpt lat="50.842315508052707" lon="5.050424560904503">
        <ele>32.350000000000001</ele>
        <time>2019-04-22T14:33:38Z</time>
      </trkpt>
      <trkpt lat="50.842231353744864" lon="5.050190202891827">
        <ele>32.310000000000002</ele>
        <time>2019-04-22T14:33:53Z</time>
      </trkpt>
      <trkpt lat="50.842157173901796" lon="5.049906140193343">
        <ele>32.229999999999997</ele>
        <time>2019-04-22T14:34:07Z</time>
      </trkpt>
      <trkpt lat="50.842095734551549" lon="5.049781920388341">
        <ele>32.200000000000003</ele>
        <time>2019-04-22T14:34:13Z</time>
      </trkpt>
      <trkpt lat="50.841999175027013" lon="5.049482099711895">
        <ele>32.159999999999997</ele>
        <time>2019-04-22T14:34:27Z</time>
      </trkpt>
      <trkpt lat="50.841887947171926" lon="5.049188900738955">
        <ele>32.049999999999997</ele>
        <time>2019-04-22T14:34:44Z</time>
      </trkpt>
      <trkpt lat="50.841794153675437" lon="5.048834262415767">
        <ele>31.920000000000002</ele>
        <time>2019-04-22T14:34:59Z</time>
      </trkpt>
      <trkpt lat="50.841687871143222" lon="5.048496806994081">
        <ele>31.829999999999998</ele>
        <time>2019-04-22T14:35:12Z</time>
      </trkpt>
      <trkpt lat="50.841555939987302" lon="5.048098918050528">
        <ele>31.710000000000001</ele>
        <time>2019-04-22T14:35:24Z</time>
      </trkpt>
      <trkpt lat="50.841417219489813" lon="5.047675212845206">
        <ele>31.649999999999999</ele>
        <time>2019-04-22T14:35:35Z</time>
      </trkpt>
      <trkpt lat="50.841275313869119" lon="5.047305738553405">
        <ele>31.579999999999998</ele>
        <time>2019-04-22T14:35:46Z</time>
      </trkpt>
      <trkpt lat="50.841128379106522" lon="5.046869292855263">
        <ele>32.299999999999997</ele>
        <time>2019-04-22T14:35:57Z</time>
      </trkpt>
      <trkpt lat="50.840912461280823" lon="5.04664583131671">
        <ele>32.119999999999997</ele>
        <time>2019-04-22T14:36:12Z</time>
      </trkpt>
      <trkpt lat="50.840634601190686" lon="5.046564443036914">
        <ele>31.949999999999999</ele>
        <time>2019-04-22T14:36:29Z</time>
      </trkpt>
      <trkpt lat="50.840395800769329" lon="5.046622781082988">
        <ele>31.850000000000001</ele>
        <time>2019-04-22T14:36:45Z</time>
      </trkpt>
      <trkpt lat="50.840201005339622" lon="5.046812212094665">
        <ele>31.739999999999998</ele>
        <time>2019-04-22T14:37:01Z</time>
      </trkpt>
      <trkpt lat="50.840039821341634" lon="5.047024944797158">
        <ele>31.699999999999999</ele>
        <time>2019-04-22T14:37:15Z</time>
      </trkpt>
      <trkpt lat="50.840022638440132" lon="5.047021508216858">
        <ele>31.68</ele>
        <time>2019-04-22T14:37:16Z</time>
      </trkpt>
      <trkpt lat="50.839849133044481" lon="5.0468535348773">
        <ele>31.59</ele>
        <time>2019-04-22T14:37:32Z</time>
      </trkpt>
      <trkpt lat="50.839691134169698" lon="5.046713137999177">
        <ele>31.510000000000002</ele>
        <time>2019-04-22T14:37:47Z</time>
      </trkpt>
      <trkpt lat="50.839597089216113" lon="5.04685839638114">
        <ele>31.420000000000002</ele>
        <time>2019-04-22T14:38:00Z</time>
      </trkpt>
      <trkpt lat="50.839568926021457" lon="5.046884045004845">
        <ele>28.969999999999999</ele>
        <time>2019-04-22T14:38:03Z</time>
      </trkpt>
      <trkpt lat="50.83942886441946" lon="5.047138100489974">
        <ele>28.899999999999999</ele>
        <time>2019-04-22T14:38:17Z</time>
      </trkpt>
      <trkpt lat="50.839307913556695" lon="5.047453427687287">
        <ele>27.989999999999998</ele>
        <time>2019-04-22T14:38:32Z</time>
      </trkpt>
      <trkpt lat="50.839142538607121" lon="5.047834720462561">
        <ele>27</ele>
        <time>2019-04-22T14:38:50Z</time>
      </trkpt>
      <trkpt lat="50.838992586359382" lon="5.048114256933332">
        <ele>27.010000000000002</ele>
        <time>2019-04-22T14:39:04Z</time>
      </trkpt>
      <trkpt lat="50.838841125369072" lon="5.048442240804434">
        <ele>26.940000000000001</ele>
        <time>2019-04-22T14:39:21Z</time>
      </trkpt>
      <trkpt lat="50.83872084505856" lon="5.048676514998078">
        <ele>26.870000000000001</ele>
        <time>2019-04-22T14:39:35Z</time>
      </trkpt>
      <trkpt lat="50.838680947199464" lon="5.048770727589726">
        <ele>26.84</ele>
        <time>2019-04-22T14:39:40Z</time>
      </trkpt>
      <trkpt lat="50.838675079867244" lon="5.048784893006086">
        <ele>26.84</ele>
        <time>2019-04-22T14:39:41Z</time>
      </trkpt>
      <trkpt lat="50.838667703792453" lon="5.048802746459842">
        <ele>26.84</ele>
        <time>2019-04-22T14:39:42Z</time>
      </trkpt>
      <trkpt lat="50.83857667632401" lon="5.049018999561667">
        <ele>26.75</ele>
        <time>2019-04-22T14:39:57Z</time>
      </trkpt>
      <trkpt lat="50.838494617491961" lon="5.049215219914913">
        <ele>26.690000000000001</ele>
        <time>2019-04-22T14:40:08Z</time>
      </trkpt>
      <trkpt lat="50.838396465405822" lon="5.049407668411732">
        <ele>26.579999999999998</ele>
        <time>2019-04-22T14:40:19Z</time>
      </trkpt>
      <trkpt lat="50.838368721306324" lon="5.049460306763649">
        <ele>26.539999999999999</ele>
        <time>2019-04-22T14:40:22Z</time>
      </trkpt>
      <trkpt lat="50.838352795690298" lon="5.049475058913231">
        <ele>26.52</ele>
        <time>2019-04-22T14:40:23Z</time>
      </trkpt>
      <trkpt lat="50.838335445150733" lon="5.049489894881845">
        <ele>26.510000000000002</ele>
        <time>2019-04-22T14:40:24Z</time>
      </trkpt>
      <trkpt lat="50.838322201743722" lon="5.049505066126585">
        <ele>26.5</ele>
        <time>2019-04-22T14:40:25Z</time>
      </trkpt>
      <trkpt lat="50.838311389088631" lon="5.049519147723913">
        <ele>26.48</ele>
        <time>2019-04-22T14:40:26Z</time>
      </trkpt>
      <trkpt lat="50.838299402967095" lon="5.049533983692527">
        <ele>26.469999999999999</ele>
        <time>2019-04-22T14:40:27Z</time>
      </trkpt>
      <trkpt lat="50.838282722979784" lon="5.049554267898202">
        <ele>26.460000000000001</ele>
        <time>2019-04-22T14:40:28Z</time>
      </trkpt>
      <trkpt lat="50.838012658059597" lon="5.049847718328238">
        <ele>26.280000000000001</ele>
        <time>2019-04-22T14:40:42Z</time>
      </trkpt>
      <trkpt lat="50.83785985596478" lon="5.049972105771303">
        <ele>26.129999999999999</ele>
        <time>2019-04-22T14:40:54Z</time>
      </trkpt>
      <trkpt lat="50.837683333083987" lon="5.050125829875469">
        <ele>25.920000000000002</ele>
        <time>2019-04-22T14:41:09Z</time>
      </trkpt>
      <trkpt lat="50.837641507387161" lon="5.050186598673463">
        <ele>25.870000000000001</ele>
        <time>2019-04-22T14:41:12Z</time>
      </trkpt>
      <trkpt lat="50.837616696953773" lon="5.050215180963278">
        <ele>25.850000000000001</ele>
        <time>2019-04-22T14:41:13Z</time>
      </trkpt>
      <trkpt lat="50.837586019188166" lon="5.050238482654095">
        <ele>25.829999999999998</ele>
        <time>2019-04-22T14:41:14Z</time>
      </trkpt>
      <trkpt lat="50.837558442726731" lon="5.050262371078134">
        <ele>25.82</ele>
        <time>2019-04-22T14:41:15Z</time>
      </trkpt>
      <trkpt lat="50.837528686970472" lon="5.050293300300837">
        <ele>25.800000000000001</ele>
        <time>2019-04-22T14:41:16Z</time>
      </trkpt>
      <trkpt lat="50.837503205984831" lon="5.050317859277129">
        <ele>25.780000000000001</ele>
        <time>2019-04-22T14:41:17Z</time>
      </trkpt>
      <trkpt lat="50.837470684200525" lon="5.050346441566944">
        <ele>25.77</ele>
        <time>2019-04-22T14:41:18Z</time>
      </trkpt>
      <trkpt lat="50.837113531306386" lon="5.050480803474784">
        <ele>25.579999999999998</ele>
        <time>2019-04-22T14:41:29Z</time>
      </trkpt>
      <trkpt lat="50.83686894737184" lon="5.050290869548917">
        <ele>25.5</ele>
        <time>2019-04-22T14:41:40Z</time>
      </trkpt>
      <trkpt lat="50.836716564372182" lon="5.050132954493165">
        <ele>25.32</ele>
        <time>2019-04-22T14:41:55Z</time>
      </trkpt>
      <trkpt lat="50.83670130930841" lon="5.050116525962949">
        <ele>25.309999999999999</ele>
        <time>2019-04-22T14:41:56Z</time>
      </trkpt>
      <trkpt lat="50.836686221882701" lon="5.050104707479477">
        <ele>25.300000000000001</ele>
        <time>2019-04-22T14:41:57Z</time>
      </trkpt>
      <trkpt lat="50.836672056466341" lon="5.050085680559278">
        <ele>25.300000000000001</ele>
        <time>2019-04-22T14:41:58Z</time>
      </trkpt>
      <trkpt lat="50.836656885221601" lon="5.05006087012589">
        <ele>25.289999999999999</ele>
        <time>2019-04-22T14:41:59Z</time>
      </trkpt>
      <trkpt lat="50.836645653471351" lon="5.050036981701851">
        <ele>25.289999999999999</ele>
        <time>2019-04-22T14:42:00Z</time>
      </trkpt>
      <trkpt lat="50.836632661521435" lon="5.050018122419715">
        <ele>25.280000000000001</ele>
        <time>2019-04-22T14:42:01Z</time>
      </trkpt>
      <trkpt lat="50.83662218414247" lon="5.050002699717879">
        <ele>25.27</ele>
        <time>2019-04-22T14:42:02Z</time>
      </trkpt>
      <trkpt lat="50.836612209677696" lon="5.049992892891169">
        <ele>25.260000000000002</ele>
        <time>2019-04-22T14:42:03Z</time>
      </trkpt>
      <trkpt lat="50.836599553003907" lon="5.049980571493506">
        <ele>25.260000000000002</ele>
        <time>2019-04-22T14:42:04Z</time>
      </trkpt>
      <trkpt lat="50.836587818339467" lon="5.049970429390669">
        <ele>25.260000000000002</ele>
        <time>2019-04-22T14:42:05Z</time>
      </trkpt>
      <trkpt lat="50.836335690692067" lon="5.049725007265806">
        <ele>25.18</ele>
        <time>2019-04-22T14:42:16Z</time>
      </trkpt>
      <trkpt lat="50.836301241070032" lon="5.049695000052452">
        <ele>25.16</ele>
        <time>2019-04-22T14:42:17Z</time>
      </trkpt>
      <trkpt lat="50.836267462000251" lon="5.049671698361635">
        <ele>25.149999999999999</ele>
        <time>2019-04-22T14:42:18Z</time>
      </trkpt>
      <trkpt lat="50.836232174187899" lon="5.049655186012387">
        <ele>25.140000000000001</ele>
        <time>2019-04-22T14:42:19Z</time>
      </trkpt>
      <trkpt lat="50.836199149489403" lon="5.04964311607182">
        <ele>25.149999999999999</ele>
        <time>2019-04-22T14:42:20Z</time>
      </trkpt>
      <trkpt lat="50.836071912199259" lon="5.049572121351957">
        <ele>25.129999999999999</ele>
        <time>2019-04-22T14:42:25Z</time>
      </trkpt>
      <trkpt lat="50.836028913035989" lon="5.049540605396032">
        <ele>25.120000000000001</ele>
        <time>2019-04-22T14:42:27Z</time>
      </trkpt>
      <trkpt lat="50.836010221391916" lon="5.04951604641974">
        <ele>25.109999999999999</ele>
        <time>2019-04-22T14:42:28Z</time>
      </trkpt>
      <trkpt lat="50.835915924981236" lon="5.049417726695538">
        <ele>25.109999999999999</ele>
        <time>2019-04-22T14:42:31Z</time>
      </trkpt>
      <trkpt lat="50.835871081799269" lon="5.049372212961316">
        <ele>25.09</ele>
        <time>2019-04-22T14:42:32Z</time>
      </trkpt>
      <trkpt lat="50.835553240031004" lon="5.048990836367011">
        <ele>25.039999999999999</ele>
        <time>2019-04-22T14:42:39Z</time>
      </trkpt>
      <trkpt lat="50.834942534565926" lon="5.048332856968045">
        <ele>25.010000000000002</ele>
        <time>2019-04-22T14:42:49Z</time>
      </trkpt>
      <trkpt lat="50.834402153268456" lon="5.047646127641201">
        <ele>24.989999999999998</ele>
        <time>2019-04-22T14:43:00Z</time>
      </trkpt>
      <trkpt lat="50.834139129146934" lon="5.047318981960416">
        <ele>24.940000000000001</ele>
        <time>2019-04-22T14:43:11Z</time>
      </trkpt>
      <trkpt lat="50.833984650671482" lon="5.047145644202828">
        <ele>24.890000000000001</ele>
        <time>2019-04-22T14:43:20Z</time>
      </trkpt>
      <trkpt lat="50.833967132493854" lon="5.047141537070274">
        <ele>24.890000000000001</ele>
        <time>2019-04-22T14:43:21Z</time>
      </trkpt>
      <trkpt lat="50.833949614316225" lon="5.047124018892646">
        <ele>24.890000000000001</ele>
        <time>2019-04-22T14:43:22Z</time>
      </trkpt>
      <trkpt lat="50.833933353424072" lon="5.047100801020861">
        <ele>24.879999999999999</ele>
        <time>2019-04-22T14:43:23Z</time>
      </trkpt>
      <trkpt lat="50.833893455564976" lon="5.047048414126039">
        <ele>24.870000000000001</ele>
        <time>2019-04-22T14:43:26Z</time>
      </trkpt>
      <trkpt lat="50.833873841911554" lon="5.047033661976457">
        <ele>24.870000000000001</ele>
        <time>2019-04-22T14:43:27Z</time>
      </trkpt>
      <trkpt lat="50.833845678716898" lon="5.047019245103002">
        <ele>24.870000000000001</ele>
        <time>2019-04-22T14:43:28Z</time>
      </trkpt>
      <trkpt lat="50.833444939926267" lon="5.046515995636582">
        <ele>24.82</ele>
        <time>2019-04-22T14:43:38Z</time>
      </trkpt>
      <trkpt lat="50.832943450659513" lon="5.045809904113412">
        <ele>24.780000000000001</ele>
        <time>2019-04-22T14:43:48Z</time>
      </trkpt>
      <trkpt lat="50.832298463210464" lon="5.044922595843673">
        <ele>24.789999999999999</ele>
        <time>2019-04-22T14:43:59Z</time>
      </trkpt>
      <trkpt lat="50.832156473770738" lon="5.044742217287421">
        <ele>24.73</ele>
        <time>2019-04-22T14:44:02Z</time>
      </trkpt>
      <trkpt lat="50.832112217321992" lon="5.044676503166556">
        <ele>24.73</ele>
        <time>2019-04-22T14:44:03Z</time>
      </trkpt>
      <trkpt lat="50.832070726901293" lon="5.044598886743188">
        <ele>24.73</ele>
        <time>2019-04-22T14:44:04Z</time>
      </trkpt>
      <trkpt lat="50.831756573170424" lon="5.043948953971267">
        <ele>24.710000000000001</ele>
        <time>2019-04-22T14:44:13Z</time>
      </trkpt>
      <trkpt lat="50.831682393327355" lon="5.043788608163595">
        <ele>24.690000000000001</ele>
        <time>2019-04-22T14:44:15Z</time>
      </trkpt>
      <trkpt lat="50.831643585115671" lon="5.043698251247406">
        <ele>24.699999999999999</ele>
        <time>2019-04-22T14:44:16Z</time>
      </trkpt>
      <trkpt lat="50.831605028361082" lon="5.043601607903838">
        <ele>24.68</ele>
        <time>2019-04-22T14:44:17Z</time>
      </trkpt>
      <trkpt lat="50.831566136330366" lon="5.043512843549252">
        <ele>24.66</ele>
        <time>2019-04-22T14:44:18Z</time>
      </trkpt>
      <trkpt lat="50.831531602889299" lon="5.043438663706183">
        <ele>24.670000000000002</ele>
        <time>2019-04-22T14:44:19Z</time>
      </trkpt>
      <trkpt lat="50.831403695046902" lon="5.043164659291506">
        <ele>24.640000000000001</ele>
        <time>2019-04-22T14:44:23Z</time>
      </trkpt>
      <trkpt lat="50.831357091665268" lon="5.043046977370977">
        <ele>24.640000000000001</ele>
        <time>2019-04-22T14:44:25Z</time>
      </trkpt>
      <trkpt lat="50.831296825781465" lon="5.042903898283839">
        <ele>24.620000000000001</ele>
        <time>2019-04-22T14:44:27Z</time>
      </trkpt>
      <trkpt lat="50.831254832446575" lon="5.042786216363311">
        <ele>24.620000000000001</ele>
        <time>2019-04-22T14:44:29Z</time>
      </trkpt>
      <trkpt lat="50.830943863838911" lon="5.042018434032798">
        <ele>24.539999999999999</ele>
        <time>2019-04-22T14:44:38Z</time>
      </trkpt>
      <trkpt lat="50.830720569938421" lon="5.041296500712633">
        <ele>24.48</ele>
        <time>2019-04-22T14:44:46Z</time>
      </trkpt>
      <trkpt lat="50.830610767006874" lon="5.040815295651555">
        <ele>24.379999999999999</ele>
        <time>2019-04-22T14:44:57Z</time>
      </trkpt>
      <trkpt lat="50.830572042614222" lon="5.040630390867591">
        <ele>24.32</ele>
        <time>2019-04-22T14:45:03Z</time>
      </trkpt>
      <trkpt lat="50.830564415082335" lon="5.040604574605823">
        <ele>24.309999999999999</ele>
        <time>2019-04-22T14:45:04Z</time>
      </trkpt>
      <trkpt lat="50.830555111169815" lon="5.040576495230198">
        <ele>24.300000000000001</ele>
        <time>2019-04-22T14:45:05Z</time>
      </trkpt>
      <trkpt lat="50.830548070371151" lon="5.040551600977778">
        <ele>24.280000000000001</ele>
        <time>2019-04-22T14:45:06Z</time>
      </trkpt>
      <trkpt lat="50.83043172955513" lon="5.040230909362435">
        <ele>24.149999999999999</ele>
        <time>2019-04-22T14:45:21Z</time>
      </trkpt>
      <trkpt lat="50.830365428701043" lon="5.039950115606189">
        <ele>26.289999999999999</ele>
        <time>2019-04-22T14:45:35Z</time>
      </trkpt>
      <trkpt lat="50.830286890268326" lon="5.039518028497696">
        <ele>26.129999999999999</ele>
        <time>2019-04-22T14:45:55Z</time>
      </trkpt>
      <trkpt lat="50.830202400684357" lon="5.039114942774177">
        <ele>26.010000000000002</ele>
        <time>2019-04-22T14:46:11Z</time>
      </trkpt>
      <trkpt lat="50.830146912485361" lon="5.038769021630287">
        <ele>25.93</ele>
        <time>2019-04-22T14:46:25Z</time>
      </trkpt>
      <trkpt lat="50.830079186707735" lon="5.03851848654449">
        <ele>25.890000000000001</ele>
        <time>2019-04-22T14:46:35Z</time>
      </trkpt>
      <trkpt lat="50.830037109553814" lon="5.038270298391581">
        <ele>25.870000000000001</ele>
        <time>2019-04-22T14:46:46Z</time>
      </trkpt>
      <trkpt lat="50.830030152574182" lon="5.03824976272881">
        <ele>25.859999999999999</ele>
        <time>2019-04-22T14:46:47Z</time>
      </trkpt>
      <trkpt lat="50.829993775114417" lon="5.038007693365216">
        <ele>25.870000000000001</ele>
        <time>2019-04-22T14:46:58Z</time>
      </trkpt>
      <trkpt lat="50.829982543364167" lon="5.037966119125485">
        <ele>25.870000000000001</ele>
        <time>2019-04-22T14:47:00Z</time>
      </trkpt>
      <trkpt lat="50.829919511452317" lon="5.037672501057386">
        <ele>25.91</ele>
        <time>2019-04-22T14:47:13Z</time>
      </trkpt>
      <trkpt lat="50.829910458996892" lon="5.037522464990616">
        <ele>25.949999999999999</ele>
        <time>2019-04-22T14:47:20Z</time>
      </trkpt>
      <trkpt lat="50.829823203384876" lon="5.037059281021357">
        <ele>26.039999999999999</ele>
        <time>2019-04-22T14:47:37Z</time>
      </trkpt>
      <trkpt lat="50.829743659123778" lon="5.036802124232054">
        <ele>26.920000000000002</ele>
        <time>2019-04-22T14:47:47Z</time>
      </trkpt>
      <trkpt lat="50.829731840640306" lon="5.036782845854759">
        <ele>26.93</ele>
        <time>2019-04-22T14:47:48Z</time>
      </trkpt>
      <trkpt lat="50.829717507585883" lon="5.036770273000002">
        <ele>26.940000000000001</ele>
        <time>2019-04-22T14:47:49Z</time>
      </trkpt>
      <trkpt lat="50.829704850912094" lon="5.036768093705177">
        <ele>26.940000000000001</ele>
        <time>2019-04-22T14:47:50Z</time>
      </trkpt>
      <trkpt lat="50.829625725746155" lon="5.036791814491153">
        <ele>26.969999999999999</ele>
        <time>2019-04-22T14:47:55Z</time>
      </trkpt>
      <trkpt lat="50.829611225053668" lon="5.036801705136895">
        <ele>26.98</ele>
        <time>2019-04-22T14:47:56Z</time>
      </trkpt>
      <trkpt lat="50.829570656642318" lon="5.036816876381636">
        <ele>27</ele>
        <time>2019-04-22T14:47:59Z</time>
      </trkpt>
      <trkpt lat="50.829562107101083" lon="5.036829700693488">
        <ele>27</ele>
        <time>2019-04-22T14:48:00Z</time>
      </trkpt>
      <trkpt lat="50.829549785703421" lon="5.036843698471785">
        <ele>27.010000000000002</ele>
        <time>2019-04-22T14:48:01Z</time>
      </trkpt>
      <trkpt lat="50.829537129029632" lon="5.036860462278128">
        <ele>27.02</ele>
        <time>2019-04-22T14:48:02Z</time>
      </trkpt>
      <trkpt lat="50.829528160393238" lon="5.036877058446407">
        <ele>27.030000000000001</ele>
        <time>2019-04-22T14:48:03Z</time>
      </trkpt>
      <trkpt lat="50.829446604475379" lon="5.037015695124865">
        <ele>27.079999999999998</ele>
        <time>2019-04-22T14:48:14Z</time>
      </trkpt>
      <trkpt lat="50.829370832070708" lon="5.037193726748228">
        <ele>27.16</ele>
        <time>2019-04-22T14:48:26Z</time>
      </trkpt>
      <trkpt lat="50.829182155430317" lon="5.03758130595088">
        <ele>27.210000000000001</ele>
        <time>2019-04-22T14:48:42Z</time>
      </trkpt>
      <trkpt lat="50.829009488224983" lon="5.037907529622316">
        <ele>27.210000000000001</ele>
        <time>2019-04-22T14:48:57Z</time>
      </trkpt>
      <trkpt lat="50.828828187659383" lon="5.038235681131482">
        <ele>27.219999999999999</ele>
        <time>2019-04-22T14:49:13Z</time>
      </trkpt>
      <trkpt lat="50.828674798831344" lon="5.038465093821287">
        <ele>27.239999999999998</ele>
        <time>2019-04-22T14:49:28Z</time>
      </trkpt>
      <trkpt lat="50.828469945117831" lon="5.038631977513433">
        <ele>27.190000000000001</ele>
        <time>2019-04-22T14:49:42Z</time>
      </trkpt>
      <trkpt lat="50.828334661200643" lon="5.038767512887716">
        <ele>27.120000000000001</ele>
        <time>2019-04-22T14:49:53Z</time>
      </trkpt>
      <trkpt lat="50.828158054500818" lon="5.038912771269679">
        <ele>27.02</ele>
        <time>2019-04-22T14:50:07Z</time>
      </trkpt>
      <trkpt lat="50.827975161373615" lon="5.03911854699254">
        <ele>27.649999999999999</ele>
        <time>2019-04-22T14:50:20Z</time>
      </trkpt>
      <trkpt lat="50.827920427545905" lon="5.039199180901051">
        <ele>27.59</ele>
        <time>2019-04-22T14:50:25Z</time>
      </trkpt>
      <trkpt lat="50.827910033985972" lon="5.039212591946125">
        <ele>27.59</ele>
        <time>2019-04-22T14:50:26Z</time>
      </trkpt>
      <trkpt lat="50.827894946560264" lon="5.039225835353136">
        <ele>27.59</ele>
        <time>2019-04-22T14:50:27Z</time>
      </trkpt>
      <trkpt lat="50.827880026772618" lon="5.039234552532435">
        <ele>27.57</ele>
        <time>2019-04-22T14:50:28Z</time>
      </trkpt>
      <trkpt lat="50.827867789193988" lon="5.039244778454304">
        <ele>27.559999999999999</ele>
        <time>2019-04-22T14:50:29Z</time>
      </trkpt>
      <trkpt lat="50.827855132520199" lon="5.039254920557141">
        <ele>27.539999999999999</ele>
        <time>2019-04-22T14:50:30Z</time>
      </trkpt>
      <trkpt lat="50.82784348167479" lon="5.039268499240279">
        <ele>27.530000000000001</ele>
        <time>2019-04-22T14:50:31Z</time>
      </trkpt>
      <trkpt lat="50.827828729525208" lon="5.039284005761147">
        <ele>27.52</ele>
        <time>2019-04-22T14:50:32Z</time>
      </trkpt>
      <trkpt lat="50.827657906338573" lon="5.039449213072658">
        <ele>27.350000000000001</ele>
        <time>2019-04-22T14:50:46Z</time>
      </trkpt>
      <trkpt lat="50.827468223869801" lon="5.039645433425903">
        <ele>28.010000000000002</ele>
        <time>2019-04-22T14:51:01Z</time>
      </trkpt>
      <trkpt lat="50.827306369319558" lon="5.03981969319284">
        <ele>27.809999999999999</ele>
        <time>2019-04-22T14:51:15Z</time>
      </trkpt>
      <trkpt lat="50.827088439837098" lon="5.040066204965115">
        <ele>27.649999999999999</ele>
        <time>2019-04-22T14:51:34Z</time>
      </trkpt>
      <trkpt lat="50.826930189505219" lon="5.040222611278296">
        <ele>27.530000000000001</ele>
        <time>2019-04-22T14:51:47Z</time>
      </trkpt>
      <trkpt lat="50.826781913638115" lon="5.040342640131712">
        <ele>29.09</ele>
        <time>2019-04-22T14:52:01Z</time>
      </trkpt>
      <trkpt lat="50.826733214780688" lon="5.04042855463922">
        <ele>29.02</ele>
        <time>2019-04-22T14:52:07Z</time>
      </trkpt>
      <trkpt lat="50.826735645532608" lon="5.040457220748067">
        <ele>29.010000000000002</ele>
        <time>2019-04-22T14:52:08Z</time>
      </trkpt>
      <trkpt lat="50.826738914474845" lon="5.040493262931705">
        <ele>29.010000000000002</ele>
        <time>2019-04-22T14:52:09Z</time>
      </trkpt>
      <trkpt lat="50.826779818162322" lon="5.040850583463907">
        <ele>30.030000000000001</ele>
        <time>2019-04-22T14:52:22Z</time>
      </trkpt>
      <trkpt lat="50.826845113188028" lon="5.041053090244532">
        <ele>29.989999999999998</ele>
        <time>2019-04-22T14:52:29Z</time>
      </trkpt>
      <trkpt lat="50.826855422928929" lon="5.041094413027167">
        <ele>29.989999999999998</ele>
        <time>2019-04-22T14:52:30Z</time>
      </trkpt>
      <trkpt lat="50.826866151764989" lon="5.041130622848868">
        <ele>29.989999999999998</ele>
        <time>2019-04-22T14:52:31Z</time>
      </trkpt>
      <trkpt lat="50.82694343291223" lon="5.04140336997807">
        <ele>29.969999999999999</ele>
        <time>2019-04-22T14:52:40Z</time>
      </trkpt>
      <trkpt lat="50.82695122808218" lon="5.041435053572059">
        <ele>29.969999999999999</ele>
        <time>2019-04-22T14:52:41Z</time>
      </trkpt>
      <trkpt lat="50.826962795108557" lon="5.041460199281573">
        <ele>29.960000000000001</ele>
        <time>2019-04-22T14:52:42Z</time>
      </trkpt>
      <trkpt lat="50.826973859220743" lon="5.041498085483909">
        <ele>29.949999999999999</ele>
        <time>2019-04-22T14:52:43Z</time>
      </trkpt>
      <trkpt lat="50.826984671875834" lon="5.041535049676895">
        <ele>29.960000000000001</ele>
        <time>2019-04-22T14:52:44Z</time>
      </trkpt>
      <trkpt lat="50.826998921111226" lon="5.041577462106943">
        <ele>29.960000000000001</ele>
        <time>2019-04-22T14:52:45Z</time>
      </trkpt>
      <trkpt lat="50.827016439288855" lon="5.041605541482568">
        <ele>29.960000000000001</ele>
        <time>2019-04-22T14:52:46Z</time>
      </trkpt>
      <trkpt lat="50.827032532542944" lon="5.041638314723969">
        <ele>29.960000000000001</ele>
        <time>2019-04-22T14:52:47Z</time>
      </trkpt>
      <trkpt lat="50.827060444280505" lon="5.041709560900927">
        <ele>27.390000000000001</ele>
        <time>2019-04-22T14:52:49Z</time>
      </trkpt>
      <trkpt lat="50.827098246663809" lon="5.041822632774711">
        <ele>26.579999999999998</ele>
        <time>2019-04-22T14:52:52Z</time>
      </trkpt>
      <trkpt lat="50.827104784548283" lon="5.041847443208098">
        <ele>26.579999999999998</ele>
        <time>2019-04-22T14:52:53Z</time>
      </trkpt>
      <trkpt lat="50.82712029106915" lon="5.041916510090232">
        <ele>26.57</ele>
        <time>2019-04-22T14:52:56Z</time>
      </trkpt>
      <trkpt lat="50.827133031561971" lon="5.041939560323954">
        <ele>26.559999999999999</ele>
        <time>2019-04-22T14:52:57Z</time>
      </trkpt>
      <trkpt lat="50.827122051268816" lon="5.042097140103579">
        <ele>26.530000000000001</ele>
        <time>2019-04-22T14:53:02Z</time>
      </trkpt>
      <trkpt lat="50.82711685448885" lon="5.0421201903373">
        <ele>26.530000000000001</ele>
        <time>2019-04-22T14:53:03Z</time>
      </trkpt>
      <trkpt lat="50.82706362940371" lon="5.042571891099215">
        <ele>26.43</ele>
        <time>2019-04-22T14:53:18Z</time>
      </trkpt>
      <trkpt lat="50.827032197266817" lon="5.043001379817724">
        <ele>26.32</ele>
        <time>2019-04-22T14:53:33Z</time>
      </trkpt>
      <trkpt lat="50.827032113447785" lon="5.043063573539257">
        <ele>26.309999999999999</ele>
        <time>2019-04-22T14:53:36Z</time>
      </trkpt>
      <trkpt lat="50.827042842283845" lon="5.043313186615706">
        <ele>26.260000000000002</ele>
        <time>2019-04-22T14:53:50Z</time>
      </trkpt>
      <trkpt lat="50.827031023800373" lon="5.043570091947913">
        <ele>26.18</ele>
        <time>2019-04-22T14:54:01Z</time>
      </trkpt>
      <trkpt lat="50.827028341591358" lon="5.043612252920866">
        <ele>26.18</ele>
        <time>2019-04-22T14:54:02Z</time>
      </trkpt>
      <trkpt lat="50.82702892832458" lon="5.04363832063973">
        <ele>26.16</ele>
        <time>2019-04-22T14:54:03Z</time>
      </trkpt>
      <trkpt lat="50.827049966901541" lon="5.043715769425035">
        <ele>26.140000000000001</ele>
        <time>2019-04-22T14:54:08Z</time>
      </trkpt>
      <trkpt lat="50.82701375707984" lon="5.044126398861408">
        <ele>26.039999999999999</ele>
        <time>2019-04-22T14:54:22Z</time>
      </trkpt>
      <trkpt lat="50.827033203095198" lon="5.044372323900461">
        <ele>25.920000000000002</ele>
        <time>2019-04-22T14:54:35Z</time>
      </trkpt>
      <trkpt lat="50.827025575563312" lon="5.044638197869062">
        <ele>25.84</ele>
        <time>2019-04-22T14:54:44Z</time>
      </trkpt>
      <trkpt lat="50.827028593048453" lon="5.044665606692433">
        <ele>25.84</ele>
        <time>2019-04-22T14:54:45Z</time>
      </trkpt>
      <trkpt lat="50.827029095962644" lon="5.044738445430994">
        <ele>25.800000000000001</ele>
        <time>2019-04-22T14:54:48Z</time>
      </trkpt>
      <trkpt lat="50.827023312449455" lon="5.044781444594264">
        <ele>25.800000000000001</ele>
        <time>2019-04-22T14:54:49Z</time>
      </trkpt>
      <trkpt lat="50.827015349641442" lon="5.044814385473728">
        <ele>25.789999999999999</ele>
        <time>2019-04-22T14:54:50Z</time>
      </trkpt>
      <trkpt lat="50.827014846727252" lon="5.044838944450021">
        <ele>25.780000000000001</ele>
        <time>2019-04-22T14:54:51Z</time>
      </trkpt>
      <trkpt lat="50.82701182924211" lon="5.044870041310787">
        <ele>25.77</ele>
        <time>2019-04-22T14:54:52Z</time>
      </trkpt>
      <trkpt lat="50.827013505622745" lon="5.044898288324475">
        <ele>25.760000000000002</ele>
        <time>2019-04-22T14:54:53Z</time>
      </trkpt>
      <trkpt lat="50.827002692967653" lon="5.045153433457017">
        <ele>28.370000000000001</ele>
        <time>2019-04-22T14:55:01Z</time>
      </trkpt>
      <trkpt lat="50.826985510066152" lon="5.045214286074042">
        <ele>28.350000000000001</ele>
        <time>2019-04-22T14:55:03Z</time>
      </trkpt>
      <trkpt lat="50.826946953311563" lon="5.045138513669372">
        <ele>28.219999999999999</ele>
        <time>2019-04-22T14:55:16Z</time>
      </trkpt>
      <trkpt lat="50.826924405992031" lon="5.045135747641325">
        <ele>28.199999999999999</ele>
        <time>2019-04-22T14:55:18Z</time>
      </trkpt>
      <trkpt lat="50.826711589470506" lon="5.045200791209936">
        <ele>28.09</ele>
        <time>2019-04-22T14:55:31Z</time>
      </trkpt>
      <trkpt lat="50.826465915888548" lon="5.04534705542028">
        <ele>28.02</ele>
        <time>2019-04-22T14:55:44Z</time>
      </trkpt>
      <trkpt lat="50.826112367212772" lon="5.045579150319099">
        <ele>27.969999999999999</ele>
        <time>2019-04-22T14:55:58Z</time>
      </trkpt>
      <trkpt lat="50.825820676982403" lon="5.045806551352143">
        <ele>28.870000000000001</ele>
        <time>2019-04-22T14:56:10Z</time>
      </trkpt>
      <trkpt lat="50.825598472729325" lon="5.045937560498714">
        <ele>31.449999999999999</ele>
        <time>2019-04-22T14:56:18Z</time>
      </trkpt>
      <trkpt lat="50.825544325634837" lon="5.045985672622919">
        <ele>33.030000000000001</ele>
        <time>2019-04-22T14:56:21Z</time>
      </trkpt>
      <trkpt lat="50.825531417503953" lon="5.046014841645956">
        <ele>33.880000000000003</ele>
        <time>2019-04-22T14:56:31Z</time>
      </trkpt>
      <trkpt lat="50.825335448607802" lon="5.046123219653964">
        <ele>33.890000000000001</ele>
        <time>2019-04-22T14:56:42Z</time>
      </trkpt>
      <trkpt lat="50.82522002980113" lon="5.046193962916732">
        <ele>35.869999999999997</ele>
        <time>2019-04-22T14:56:46Z</time>
      </trkpt>
      <trkpt lat="50.824866145849228" lon="5.046410132199526">
        <ele>38.469999999999999</ele>
        <time>2019-04-22T14:56:59Z</time>
      </trkpt>
      <trkpt lat="50.824593147262931" lon="5.046566957607865">
        <ele>40.240000000000002</ele>
        <time>2019-04-22T14:57:11Z</time>
      </trkpt>
      <trkpt lat="50.824260888621211" lon="5.046796118840575">
        <ele>40.229999999999997</ele>
        <time>2019-04-22T14:57:23Z</time>
      </trkpt>
      <trkpt lat="50.824078749865294" lon="5.046848338097334">
        <ele>40.200000000000003</ele>
        <time>2019-04-22T14:57:28Z</time>
      </trkpt>
      <trkpt lat="50.82357726059854" lon="5.047198450192809">
        <ele>40.170000000000002</ele>
        <time>2019-04-22T14:57:40Z</time>
      </trkpt>
      <trkpt lat="50.823148526251316" lon="5.047498354688287">
        <ele>40.149999999999999</ele>
        <time>2019-04-22T14:57:51Z</time>
      </trkpt>
      <trkpt lat="50.822995388880372" lon="5.047603212296963">
        <ele>37.829999999999998</ele>
        <time>2019-04-22T14:57:55Z</time>
      </trkpt>
      <trkpt lat="50.822509657591581" lon="5.047923233360052">
        <ele>37.75</ele>
        <time>2019-04-22T14:58:07Z</time>
      </trkpt>
      <trkpt lat="50.822271862998605" lon="5.048102354630828">
        <ele>36.719999999999999</ele>
        <time>2019-04-22T14:58:16Z</time>
      </trkpt>
      <trkpt lat="50.822218302637339" lon="5.048169745132327">
        <ele>36.670000000000002</ele>
        <time>2019-04-22T14:58:24Z</time>
      </trkpt>
      <trkpt lat="50.822220565751195" lon="5.048306956887245">
        <ele>36.619999999999997</ele>
        <time>2019-04-22T14:58:31Z</time>
      </trkpt>
      <trkpt lat="50.822192318737507" lon="5.048491694033146">
        <ele>36.57</ele>
        <time>2019-04-22T14:58:41Z</time>
      </trkpt>
      <trkpt lat="50.82235517911613" lon="5.048866868019104">
        <ele>36.509999999999998</ele>
        <time>2019-04-22T14:59:00Z</time>
      </trkpt>
      <trkpt lat="50.822523403912783" lon="5.049266098067164">
        <ele>36.460000000000001</ele>
        <time>2019-04-22T14:59:18Z</time>
      </trkpt>
      <trkpt lat="50.822650473564863" lon="5.049652419984341">
        <ele>36.43</ele>
        <time>2019-04-22T14:59:35Z</time>
      </trkpt>
      <trkpt lat="50.822768826037645" lon="5.050036730244756">
        <ele>35.57</ele>
        <time>2019-04-22T14:59:52Z</time>
      </trkpt>
      <trkpt lat="50.822870414704084" lon="5.05046496167779">
        <ele>35.509999999999998</ele>
        <time>2019-04-22T15:00:12Z</time>
      </trkpt>
      <trkpt lat="50.822968985885382" lon="5.050923619419336">
        <ele>34.689999999999998</ele>
        <time>2019-04-22T15:00:34Z</time>
      </trkpt>
      <trkpt lat="50.82306663505733" lon="5.051334584131837">
        <ele>34.789999999999999</ele>
        <time>2019-04-22T15:00:53Z</time>
      </trkpt>
      <trkpt lat="50.823111729696393" lon="5.051519237458706">
        <ele>37.079999999999998</ele>
        <time>2019-04-22T15:01:01Z</time>
      </trkpt>
      <trkpt lat="50.823196219280362" lon="5.051957778632641">
        <ele>37.109999999999999</ele>
        <time>2019-04-22T15:01:19Z</time>
      </trkpt>
      <trkpt lat="50.823277523741126" lon="5.052322978153825">
        <ele>37.18</ele>
        <time>2019-04-22T15:01:36Z</time>
      </trkpt>
      <trkpt lat="50.823332173749804" lon="5.052588684484363">
        <ele>37.189999999999998</ele>
        <time>2019-04-22T15:01:48Z</time>
      </trkpt>
      <trkpt lat="50.823342064395547" lon="5.052662026137114">
        <ele>37.210000000000001</ele>
        <time>2019-04-22T15:01:51Z</time>
      </trkpt>
      <trkpt lat="50.823413394391537" lon="5.052916333079338">
        <ele>37.219999999999999</ele>
        <time>2019-04-22T15:02:03Z</time>
      </trkpt>
      <trkpt lat="50.823418088257313" lon="5.052934940904379">
        <ele>37.219999999999999</ele>
        <time>2019-04-22T15:02:04Z</time>
      </trkpt>
      <trkpt lat="50.823426973074675" lon="5.053022364154458">
        <ele>37.270000000000003</ele>
        <time>2019-04-22T15:02:08Z</time>
      </trkpt>
      <trkpt lat="50.823448095470667" lon="5.053165778517723">
        <ele>37.270000000000003</ele>
        <time>2019-04-22T15:02:14Z</time>
      </trkpt>
      <trkpt lat="50.823488077148795" lon="5.053505077958107">
        <ele>37.210000000000001</ele>
        <time>2019-04-22T15:02:27Z</time>
      </trkpt>
      <trkpt lat="50.823559993878007" lon="5.053820572793484">
        <ele>37.229999999999997</ele>
        <time>2019-04-22T15:02:41Z</time>
      </trkpt>
      <trkpt lat="50.823609614744782" lon="5.054152328521013">
        <ele>37.210000000000001</ele>
        <time>2019-04-22T15:02:55Z</time>
      </trkpt>
      <trkpt lat="50.823636185377836" lon="5.054385596886277">
        <ele>37.210000000000001</ele>
        <time>2019-04-22T15:03:06Z</time>
      </trkpt>
      <trkpt lat="50.823671724647284" lon="5.054627330973744">
        <ele>37.200000000000003</ele>
        <time>2019-04-22T15:03:17Z</time>
      </trkpt>
      <trkpt lat="50.823656553402543" lon="5.05513820797205">
        <ele>37.210000000000001</ele>
        <time>2019-04-22T15:03:32Z</time>
      </trkpt>
      <trkpt lat="50.823661750182509" lon="5.055469376966357">
        <ele>37.240000000000002</ele>
        <time>2019-04-22T15:03:43Z</time>
      </trkpt>
      <trkpt lat="50.823665773496032" lon="5.055877910926938">
        <ele>37.299999999999997</ele>
        <time>2019-04-22T15:03:59Z</time>
      </trkpt>
      <trkpt lat="50.82375755533576" lon="5.056319888681173">
        <ele>37.369999999999997</ele>
        <time>2019-04-22T15:04:16Z</time>
      </trkpt>
      <trkpt lat="50.823886385187507" lon="5.056685674935579">
        <ele>37.380000000000003</ele>
        <time>2019-04-22T15:04:33Z</time>
      </trkpt>
      <trkpt lat="50.823907172307372" lon="5.056819869205356">
        <ele>37.43</ele>
        <time>2019-04-22T15:04:39Z</time>
      </trkpt>
      <trkpt lat="50.823770714923739" lon="5.0569798797369">
        <ele>35.240000000000002</ele>
        <time>2019-04-22T15:04:49Z</time>
      </trkpt>
      <trkpt lat="50.82353912293911" lon="5.057146511971951">
        <ele>35.25</ele>
        <time>2019-04-22T15:05:02Z</time>
      </trkpt>
      <trkpt lat="50.823342818766832" lon="5.057326555252075">
        <ele>35.270000000000003</ele>
        <time>2019-04-22T15:05:16Z</time>
      </trkpt>
      <trkpt lat="50.82308423705399" lon="5.057574575766921">
        <ele>35.219999999999999</ele>
        <time>2019-04-22T15:05:33Z</time>
      </trkpt>
      <trkpt lat="50.82290637306869" lon="5.057741375640035">
        <ele>35.299999999999997</ele>
        <time>2019-04-22T15:05:47Z</time>
      </trkpt>
      <trkpt lat="50.822732029482722" lon="5.057899709790945">
        <ele>35.289999999999999</ele>
        <time>2019-04-22T15:06:00Z</time>
      </trkpt>
      <trkpt lat="50.822520302608609" lon="5.058156279847026">
        <ele>34.340000000000003</ele>
        <time>2019-04-22T15:06:15Z</time>
      </trkpt>
      <trkpt lat="50.822303462773561" lon="5.058323247358203">
        <ele>34.340000000000003</ele>
        <time>2019-04-22T15:06:28Z</time>
      </trkpt>
      <trkpt lat="50.822124509140849" lon="5.058186370879412">
        <ele>34.329999999999998</ele>
        <time>2019-04-22T15:06:40Z</time>
      </trkpt>
      <trkpt lat="50.821964163333178" lon="5.057931393384934">
        <ele>34.270000000000003</ele>
        <time>2019-04-22T15:06:53Z</time>
      </trkpt>
      <trkpt lat="50.821861568838358" lon="5.057848580181599">
        <ele>34.240000000000002</ele>
        <time>2019-04-22T15:07:00Z</time>
      </trkpt>
      <trkpt lat="50.8218455594033" lon="5.057852100580931">
        <ele>34.229999999999997</ele>
        <time>2019-04-22T15:07:01Z</time>
      </trkpt>
      <trkpt lat="50.821829466149211" lon="5.057855620980263">
        <ele>34.229999999999997</ele>
        <time>2019-04-22T15:07:02Z</time>
      </trkpt>
      <trkpt lat="50.821812031790614" lon="5.057861153036356">
        <ele>34.229999999999997</ele>
        <time>2019-04-22T15:07:03Z</time>
      </trkpt>
      <trkpt lat="50.821795184165239" lon="5.057867607101798">
        <ele>34.25</ele>
        <time>2019-04-22T15:07:04Z</time>
      </trkpt>
      <trkpt lat="50.821553114801645" lon="5.058038933202624">
        <ele>34.140000000000001</ele>
        <time>2019-04-22T15:07:20Z</time>
      </trkpt>
      <trkpt lat="50.821327976882458" lon="5.058255773037672">
        <ele>34.130000000000003</ele>
        <time>2019-04-22T15:07:37Z</time>
      </trkpt>
      <trkpt lat="50.821090182289481" lon="5.05846381187439">
        <ele>34.060000000000002</ele>
        <time>2019-04-22T15:07:54Z</time>
      </trkpt>
      <trkpt lat="50.820876862853765" lon="5.058647627010942">
        <ele>34.030000000000001</ele>
        <time>2019-04-22T15:08:09Z</time>
      </trkpt>
      <trkpt lat="50.820618364959955" lon="5.058856252580881">
        <ele>33.939999999999998</ele>
        <time>2019-04-22T15:08:25Z</time>
      </trkpt>
      <trkpt lat="50.820376295596361" lon="5.059060184285045">
        <ele>33.950000000000003</ele>
        <time>2019-04-22T15:08:41Z</time>
      </trkpt>
      <trkpt lat="50.820169430226088" lon="5.059348102658987">
        <ele>33.090000000000003</ele>
        <time>2019-04-22T15:08:58Z</time>
      </trkpt>
      <trkpt lat="50.819986537098885" lon="5.0595822930336">
        <ele>32.93</ele>
        <time>2019-04-22T15:09:13Z</time>
      </trkpt>
      <trkpt lat="50.819799369201064" lon="5.059829726815224">
        <ele>33.009999999999998</ele>
        <time>2019-04-22T15:09:29Z</time>
      </trkpt>
      <trkpt lat="50.819579595699906" lon="5.060017313808203">
        <ele>32.939999999999998</ele>
        <time>2019-04-22T15:09:44Z</time>
      </trkpt>
      <trkpt lat="50.819295952096581" lon="5.0601867120713">
        <ele>32.93</ele>
        <time>2019-04-22T15:10:01Z</time>
      </trkpt>
      <trkpt lat="50.819152537733316" lon="5.060267010703683">
        <ele>32.899999999999999</ele>
        <time>2019-04-22T15:10:10Z</time>
      </trkpt>
      <trkpt lat="50.819138623774052" lon="5.060275224968791">
        <ele>32.880000000000003</ele>
        <time>2019-04-22T15:10:11Z</time>
      </trkpt>
      <trkpt lat="50.818892614915967" lon="5.060387793928385">
        <ele>32.859999999999999</ele>
        <time>2019-04-22T15:10:27Z</time>
      </trkpt>
      <trkpt lat="50.818644929677248" lon="5.060509918257594">
        <ele>32.939999999999998</ele>
        <time>2019-04-22T15:10:44Z</time>
      </trkpt>
      <trkpt lat="50.81845885142684" lon="5.060571441426873">
        <ele>32.939999999999998</ele>
        <time>2019-04-22T15:10:57Z</time>
      </trkpt>
      <trkpt lat="50.818430352956057" lon="5.060581667348743">
        <ele>35.469999999999999</ele>
        <time>2019-04-22T15:10:59Z</time>
      </trkpt>
      <trkpt lat="50.818218793720007" lon="5.060641346499324">
        <ele>36.240000000000002</ele>
        <time>2019-04-22T15:11:12Z</time>
      </trkpt>
      <trkpt lat="50.818113265559077" lon="5.060663893818855">
        <ele>36.229999999999997</ele>
        <time>2019-04-22T15:11:19Z</time>
      </trkpt>
      <trkpt lat="50.818098597228527" lon="5.060673197731376">
        <ele>36.219999999999999</ele>
        <time>2019-04-22T15:11:20Z</time>
      </trkpt>
      <trkpt lat="50.818084347993135" lon="5.060677472501993">
        <ele>36.219999999999999</ele>
        <time>2019-04-22T15:11:21Z</time>
      </trkpt>
      <trkpt lat="50.817839428782463" lon="5.060766320675612">
        <ele>36.200000000000003</ele>
        <time>2019-04-22T15:11:37Z</time>
      </trkpt>
      <trkpt lat="50.817555114626884" lon="5.06083614192903">
        <ele>36.170000000000002</ele>
        <time>2019-04-22T15:11:54Z</time>
      </trkpt>
      <trkpt lat="50.817331233993173" lon="5.060887774452567">
        <ele>37.640000000000001</ele>
        <time>2019-04-22T15:12:08Z</time>
      </trkpt>
      <trkpt lat="50.817278595641255" lon="5.061053400859237">
        <ele>37.490000000000002</ele>
        <time>2019-04-22T15:12:18Z</time>
      </trkpt>
      <trkpt lat="50.817285468801856" lon="5.061072679236531">
        <ele>37.490000000000002</ele>
        <time>2019-04-22T15:12:19Z</time>
      </trkpt>
      <trkpt lat="50.817386722192168" lon="5.061452379450202">
        <ele>37.509999999999998</ele>
        <time>2019-04-22T15:12:34Z</time>
      </trkpt>
      <trkpt lat="50.817412286996841" lon="5.061623705551028">
        <ele>35.240000000000002</ele>
        <time>2019-04-22T15:12:40Z</time>
      </trkpt>
      <trkpt lat="50.817421255633235" lon="5.06164625287056">
        <ele>35.259999999999998</ele>
        <time>2019-04-22T15:12:41Z</time>
      </trkpt>
      <trkpt lat="50.817491831257939" lon="5.061925621703267">
        <ele>35.189999999999998</ele>
        <time>2019-04-22T15:12:54Z</time>
      </trkpt>
      <trkpt lat="50.817602640017867" lon="5.062286546453834">
        <ele>35.149999999999999</ele>
        <time>2019-04-22T15:13:10Z</time>
      </trkpt>
      <trkpt lat="50.817720154300332" lon="5.062768757343292">
        <ele>35.119999999999997</ele>
        <time>2019-04-22T15:13:30Z</time>
      </trkpt>
      <trkpt lat="50.81780263222754" lon="5.063069919124246">
        <ele>35.049999999999997</ele>
        <time>2019-04-22T15:13:45Z</time>
      </trkpt>
      <trkpt lat="50.817943783476949" lon="5.063489601016045">
        <ele>35.100000000000001</ele>
        <time>2019-04-22T15:14:05Z</time>
      </trkpt>
      <trkpt lat="50.818066913634539" lon="5.063965106382966">
        <ele>33.869999999999997</ele>
        <time>2019-04-22T15:14:24Z</time>
      </trkpt>
      <trkpt lat="50.818179734051228" lon="5.064380010589957">
        <ele>33.899999999999999</ele>
        <time>2019-04-22T15:14:41Z</time>
      </trkpt>
      <trkpt lat="50.818194570019841" lon="5.064427871257067">
        <ele>36.670000000000002</ele>
        <time>2019-04-22T15:14:43Z</time>
      </trkpt>
      <trkpt lat="50.818230696022511" lon="5.064546810463071">
        <ele>33.700000000000003</ele>
        <time>2019-04-22T15:14:48Z</time>
      </trkpt>
      <trkpt lat="50.818359861150384" lon="5.065058777108789">
        <ele>33.829999999999998</ele>
        <time>2019-04-22T15:15:09Z</time>
      </trkpt>
      <trkpt lat="50.818483242765069" lon="5.06547175347805">
        <ele>33.740000000000002</ele>
        <time>2019-04-22T15:15:27Z</time>
      </trkpt>
      <trkpt lat="50.818578628823161" lon="5.065868301317096">
        <ele>33.75</ele>
        <time>2019-04-22T15:15:44Z</time>
      </trkpt>
      <trkpt lat="50.818664291873574" lon="5.066340370103717">
        <ele>33.729999999999997</ele>
        <time>2019-04-22T15:16:03Z</time>
      </trkpt>
      <trkpt lat="50.818702932447195" lon="5.066551342606545">
        <ele>32.359999999999999</ele>
        <time>2019-04-22T15:16:12Z</time>
      </trkpt>
      <trkpt lat="50.818791529163718" lon="5.066989716142416">
        <ele>34.850000000000001</ele>
        <time>2019-04-22T15:16:30Z</time>
      </trkpt>
      <trkpt lat="50.818795468658209" lon="5.067011760547757">
        <ele>34.780000000000001</ele>
        <time>2019-04-22T15:16:31Z</time>
      </trkpt>
      <trkpt lat="50.818847855553031" lon="5.06724301725626">
        <ele>32.409999999999997</ele>
        <time>2019-04-22T15:16:40Z</time>
      </trkpt>
      <trkpt lat="50.818887669593096" lon="5.067485505715013">
        <ele>32.409999999999997</ele>
        <time>2019-04-22T15:16:50Z</time>
      </trkpt>
      <trkpt lat="50.818889597430825" lon="5.067509394139051">
        <ele>32.5</ele>
        <time>2019-04-22T15:16:51Z</time>
      </trkpt>
      <trkpt lat="50.818894039839506" lon="5.067536048591137">
        <ele>32.57</ele>
        <time>2019-04-22T15:16:52Z</time>
      </trkpt>
      <trkpt lat="50.818966794759035" lon="5.068017086014152">
        <ele>32.530000000000001</ele>
        <time>2019-04-22T15:17:12Z</time>
      </trkpt>
      <trkpt lat="50.819036867469549" lon="5.068479431793094">
        <ele>32.57</ele>
        <time>2019-04-22T15:17:31Z</time>
      </trkpt>
      <trkpt lat="50.819108448922634" lon="5.068924259394407">
        <ele>32.619999999999997</ele>
        <time>2019-04-22T15:17:49Z</time>
      </trkpt>
      <trkpt lat="50.819116914644837" lon="5.068997098132968">
        <ele>31.34</ele>
        <time>2019-04-22T15:17:52Z</time>
      </trkpt>
      <trkpt lat="50.819169888272882" lon="5.069364393129945">
        <ele>31.370000000000001</ele>
        <time>2019-04-22T15:18:07Z</time>
      </trkpt>
      <trkpt lat="50.819195536896586" lon="5.069522308185697">
        <ele>33.789999999999999</ele>
        <time>2019-04-22T15:18:13Z</time>
      </trkpt>
      <trkpt lat="50.819283043965697" lon="5.069965878501535">
        <ele>33.710000000000001</ele>
        <time>2019-04-22T15:18:30Z</time>
      </trkpt>
      <trkpt lat="50.819386811926961" lon="5.070427721366286">
        <ele>32.490000000000002</ele>
        <time>2019-04-22T15:18:49Z</time>
      </trkpt>
      <trkpt lat="50.819393852725625" lon="5.070452447980642">
        <ele>32.530000000000001</ele>
        <time>2019-04-22T15:18:50Z</time>
      </trkpt>
      <trkpt lat="50.819416232407093" lon="5.070586055517197">
        <ele>35.060000000000002</ele>
        <time>2019-04-22T15:18:55Z</time>
      </trkpt>
      <trkpt lat="50.819528885185719" lon="5.070894677191973">
        <ele>34.920000000000002</ele>
        <time>2019-04-22T15:19:09Z</time>
      </trkpt>
      <trkpt lat="50.819706246256828" lon="5.071306731551886">
        <ele>34.920000000000002</ele>
        <time>2019-04-22T15:19:28Z</time>
      </trkpt>
      <trkpt lat="50.819753855466843" lon="5.071390215307474">
        <ele>32.149999999999999</ele>
        <time>2019-04-22T15:19:32Z</time>
      </trkpt>
      <trkpt lat="50.819941023364663" lon="5.071749547496438">
        <ele>32.200000000000003</ele>
        <time>2019-04-22T15:19:49Z</time>
      </trkpt>
      <trkpt lat="50.820080162957311" lon="5.071968901902437">
        <ele>30.800000000000001</ele>
        <time>2019-04-22T15:20:02Z</time>
      </trkpt>
      <trkpt lat="50.820321813225746" lon="5.072333682328463">
        <ele>33.549999999999997</ele>
        <time>2019-04-22T15:20:21Z</time>
      </trkpt>
      <trkpt lat="50.82054921425879" lon="5.07263551466167">
        <ele>34.270000000000003</ele>
        <time>2019-04-22T15:20:38Z</time>
      </trkpt>
      <trkpt lat="50.820680391043425" lon="5.072795609012246">
        <ele>31.390000000000001</ele>
        <time>2019-04-22T15:20:48Z</time>
      </trkpt>
      <trkpt lat="50.820900164544582" lon="5.073089897632599">
        <ele>33.740000000000002</ele>
        <time>2019-04-22T15:21:05Z</time>
      </trkpt>
      <trkpt lat="50.821102671325207" lon="5.073358286172152">
        <ele>33.729999999999997</ele>
        <time>2019-04-22T15:21:22Z</time>
      </trkpt>
      <trkpt lat="50.821308782324195" lon="5.073621142655611">
        <ele>31.43</ele>
        <time>2019-04-22T15:21:39Z</time>
      </trkpt>
      <trkpt lat="50.821485389024019" lon="5.073844939470291">
        <ele>31.460000000000001</ele>
        <time>2019-04-22T15:21:54Z</time>
      </trkpt>
      <trkpt lat="50.821609273552895" lon="5.073978463187814">
        <ele>31.43</ele>
        <time>2019-04-22T15:22:04Z</time>
      </trkpt>
      <trkpt lat="50.821625115349889" lon="5.073997154831886">
        <ele>31.43</ele>
        <time>2019-04-22T15:22:05Z</time>
      </trkpt>
      <trkpt lat="50.821763835847378" lon="5.074171666055918">
        <ele>31.489999999999998</ele>
        <time>2019-04-22T15:22:17Z</time>
      </trkpt>
      <trkpt lat="50.821811780333519" lon="5.074231093749404">
        <ele>31.420000000000002</ele>
        <time>2019-04-22T15:22:21Z</time>
      </trkpt>
      <trkpt lat="50.821825275197625" lon="5.074242409318686">
        <ele>31.399999999999999</ele>
        <time>2019-04-22T15:22:22Z</time>
      </trkpt>
      <trkpt lat="50.821838015690446" lon="5.074256658554077">
        <ele>31.399999999999999</ele>
        <time>2019-04-22T15:22:23Z</time>
      </trkpt>
      <trkpt lat="50.821849582716823" lon="5.074270069599152">
        <ele>31.379999999999999</ele>
        <time>2019-04-22T15:22:24Z</time>
      </trkpt>
      <trkpt lat="50.821862407028675" lon="5.074283396825194">
        <ele>31.41</ele>
        <time>2019-04-22T15:22:25Z</time>
      </trkpt>
      <trkpt lat="50.821875398978591" lon="5.074298651888967">
        <ele>31.440000000000001</ele>
        <time>2019-04-22T15:22:26Z</time>
      </trkpt>
      <trkpt lat="50.821889564394951" lon="5.074317175894976">
        <ele>31.449999999999999</ele>
        <time>2019-04-22T15:22:27Z</time>
      </trkpt>
      <trkpt lat="50.822060303762555" lon="5.074538374319673">
        <ele>31.449999999999999</ele>
        <time>2019-04-22T15:22:41Z</time>
      </trkpt>
      <trkpt lat="50.822296589612961" lon="5.074920086190105">
        <ele>31.469999999999999</ele>
        <time>2019-04-22T15:23:01Z</time>
      </trkpt>
      <trkpt lat="50.822478057816625" lon="5.075204819440842">
        <ele>31.440000000000001</ele>
        <time>2019-04-22T15:23:16Z</time>
      </trkpt>
      <trkpt lat="50.822663130238652" lon="5.075473710894585">
        <ele>31.43</ele>
        <time>2019-04-22T15:23:31Z</time>
      </trkpt>
      <trkpt lat="50.822825403884053" lon="5.07576079107821">
        <ele>31.420000000000002</ele>
        <time>2019-04-22T15:23:46Z</time>
      </trkpt>
      <trkpt lat="50.822989102452993" lon="5.076000848785043">
        <ele>31.420000000000002</ele>
        <time>2019-04-22T15:24:01Z</time>
      </trkpt>
      <trkpt lat="50.823144670575857" lon="5.076269321143627">
        <ele>31.420000000000002</ele>
        <time>2019-04-22T15:24:17Z</time>
      </trkpt>
      <trkpt lat="50.823302753269672" lon="5.07649714127183">
        <ele>31.440000000000001</ele>
        <time>2019-04-22T15:24:33Z</time>
      </trkpt>
      <trkpt lat="50.823325887322426" lon="5.076561933383346">
        <ele>31.420000000000002</ele>
        <time>2019-04-22T15:24:44Z</time>
      </trkpt>
      <trkpt lat="50.82332655787468" lon="5.076579116284847">
        <ele>31.420000000000002</ele>
        <time>2019-04-22T15:24:45Z</time>
      </trkpt>
      <trkpt lat="50.823325049132109" lon="5.076600154861808">
        <ele>31.399999999999999</ele>
        <time>2019-04-22T15:24:46Z</time>
      </trkpt>
      <trkpt lat="50.823322283104062" lon="5.076621109619737">
        <ele>31.379999999999999</ele>
        <time>2019-04-22T15:24:47Z</time>
      </trkpt>
      <trkpt lat="50.823317253962159" lon="5.076639214530587">
        <ele>31.399999999999999</ele>
        <time>2019-04-22T15:24:48Z</time>
      </trkpt>
      <trkpt lat="50.823308704420924" lon="5.076656984165311">
        <ele>31.43</ele>
        <time>2019-04-22T15:24:49Z</time>
      </trkpt>
      <trkpt lat="50.823298813775182" lon="5.076676765456796">
        <ele>31.43</ele>
        <time>2019-04-22T15:24:50Z</time>
      </trkpt>
      <trkpt lat="50.823157746344805" lon="5.076971976086497">
        <ele>31.390000000000001</ele>
        <time>2019-04-22T15:25:05Z</time>
      </trkpt>
      <trkpt lat="50.822987426072359" lon="5.077314879745245">
        <ele>31.34</ele>
        <time>2019-04-22T15:25:21Z</time>
      </trkpt>
      <trkpt lat="50.822814591228962" lon="5.077685443684459">
        <ele>31.359999999999999</ele>
        <time>2019-04-22T15:25:39Z</time>
      </trkpt>
      <trkpt lat="50.822640331462026" lon="5.078044775873423">
        <ele>31.359999999999999</ele>
        <time>2019-04-22T15:25:56Z</time>
      </trkpt>
      <trkpt lat="50.822483589872718" lon="5.078356917947531">
        <ele>31.350000000000001</ele>
        <time>2019-04-22T15:26:11Z</time>
      </trkpt>
      <trkpt lat="50.822308491915464" lon="5.07873603142798">
        <ele>31.309999999999999</ele>
        <time>2019-04-22T15:26:29Z</time>
      </trkpt>
      <trkpt lat="50.822175135836005" lon="5.079094525426626">
        <ele>31.280000000000001</ele>
        <time>2019-04-22T15:26:46Z</time>
      </trkpt>
      <trkpt lat="50.822060974314809" lon="5.079493168741465">
        <ele>30.449999999999999</ele>
        <time>2019-04-22T15:27:03Z</time>
      </trkpt>
      <trkpt lat="50.8220458868891" lon="5.079902457073331">
        <ele>30.469999999999999</ele>
        <time>2019-04-22T15:27:19Z</time>
      </trkpt>
      <trkpt lat="50.822016214951873" lon="5.080381566658616">
        <ele>30.449999999999999</ele>
        <time>2019-04-22T15:27:37Z</time>
      </trkpt>
      <trkpt lat="50.821901634335518" lon="5.080714244395495">
        <ele>30.52</ele>
        <time>2019-04-22T15:27:54Z</time>
      </trkpt>
      <trkpt lat="50.821806415915489" lon="5.080955978482962">
        <ele>30.550000000000001</ele>
        <time>2019-04-22T15:28:11Z</time>
      </trkpt>
      <trkpt lat="50.821745730936527" lon="5.081109032034874">
        <ele>30.57</ele>
        <time>2019-04-22T15:28:27Z</time>
      </trkpt>
      <trkpt lat="50.821640286594629" lon="5.081349089741707">
        <ele>30.600000000000001</ele>
        <time>2019-04-22T15:28:41Z</time>
      </trkpt>
      <trkpt lat="50.821480946615338" lon="5.081734405830503">
        <ele>30.649999999999999</ele>
        <time>2019-04-22T15:28:59Z</time>
      </trkpt>
      <trkpt lat="50.821307525038719" lon="5.082088625058532">
        <ele>29.789999999999999</ele>
        <time>2019-04-22T15:29:17Z</time>
      </trkpt>
      <trkpt lat="50.821077525615692" lon="5.082577960565686">
        <ele>29.859999999999999</ele>
        <time>2019-04-22T15:29:40Z</time>
      </trkpt>
      <trkpt lat="50.821050368249416" lon="5.082629760727286">
        <ele>29.879999999999999</ele>
        <time>2019-04-22T15:29:43Z</time>
      </trkpt>
      <trkpt lat="50.821042824536562" lon="5.082649374380708">
        <ele>29.870000000000001</ele>
        <time>2019-04-22T15:29:44Z</time>
      </trkpt>
      <trkpt lat="50.821031592786312" lon="5.082667982205749">
        <ele>29.859999999999999</ele>
        <time>2019-04-22T15:29:45Z</time>
      </trkpt>
      <trkpt lat="50.821019522845745" lon="5.082687009125948">
        <ele>29.870000000000001</ele>
        <time>2019-04-22T15:29:46Z</time>
      </trkpt>
      <trkpt lat="50.821008626371622" lon="5.082708802074194">
        <ele>29.870000000000001</ele>
        <time>2019-04-22T15:29:47Z</time>
      </trkpt>
      <trkpt lat="50.820998903363943" lon="5.082729253917933">
        <ele>29.859999999999999</ele>
        <time>2019-04-22T15:29:48Z</time>
      </trkpt>
      <trkpt lat="50.820810478180647" lon="5.083135524764657">
        <ele>29.91</ele>
        <time>2019-04-22T15:30:07Z</time>
      </trkpt>
      <trkpt lat="50.820607887580991" lon="5.083561828359962">
        <ele>29.960000000000001</ele>
        <time>2019-04-22T15:30:28Z</time>
      </trkpt>
      <trkpt lat="50.820427173748612" lon="5.083903726190329">
        <ele>30.010000000000002</ele>
        <time>2019-04-22T15:30:45Z</time>
      </trkpt>
      <trkpt lat="50.820310078561306" lon="5.084224501624703">
        <ele>30.039999999999999</ele>
        <time>2019-04-22T15:31:01Z</time>
      </trkpt>
      <trkpt lat="50.820180326700211" lon="5.084572434425354">
        <ele>30.050000000000001</ele>
        <time>2019-04-22T15:31:17Z</time>
      </trkpt>
      <trkpt lat="50.820080246776342" lon="5.084884827956557">
        <ele>30.09</ele>
        <time>2019-04-22T15:31:31Z</time>
      </trkpt>
      <trkpt lat="50.81994672305882" lon="5.08521918207407">
        <ele>30.09</ele>
        <time>2019-04-22T15:31:46Z</time>
      </trkpt>
      <trkpt lat="50.819806745275855" lon="5.085552614182234">
        <ele>30.100000000000001</ele>
        <time>2019-04-22T15:32:02Z</time>
      </trkpt>
      <trkpt lat="50.819789478555322" lon="5.085585387423635">
        <ele>30.109999999999999</ele>
        <time>2019-04-22T15:32:04Z</time>
      </trkpt>
      <trkpt lat="50.819782521575689" lon="5.085603995248675">
        <ele>30.100000000000001</ele>
        <time>2019-04-22T15:32:05Z</time>
      </trkpt>
      <trkpt lat="50.819618739187717" lon="5.08595259860158">
        <ele>30.100000000000001</ele>
        <time>2019-04-22T15:32:23Z</time>
      </trkpt>
      <trkpt lat="50.819459650665522" lon="5.086296172812581">
        <ele>29.329999999999998</ele>
        <time>2019-04-22T15:32:40Z</time>
      </trkpt>
      <trkpt lat="50.819416735321283" lon="5.086392899975181">
        <ele>29.34</ele>
        <time>2019-04-22T15:32:45Z</time>
      </trkpt>
      <trkpt lat="50.819408353418112" lon="5.086415614932776">
        <ele>29.34</ele>
        <time>2019-04-22T15:32:46Z</time>
      </trkpt>
      <trkpt lat="50.819286396726966" lon="5.086640082299709">
        <ele>29.350000000000001</ele>
        <time>2019-04-22T15:32:58Z</time>
      </trkpt>
      <trkpt lat="50.819278853014112" lon="5.086663803085685">
        <ele>29.359999999999999</ele>
        <time>2019-04-22T15:32:59Z</time>
      </trkpt>
      <trkpt lat="50.819271141663194" lon="5.086684757843614">
        <ele>29.359999999999999</ele>
        <time>2019-04-22T15:33:00Z</time>
      </trkpt>
      <trkpt lat="50.819082465022802" lon="5.087083568796516">
        <ele>29.370000000000001</ele>
        <time>2019-04-22T15:33:18Z</time>
      </trkpt>
      <trkpt lat="50.818935027346015" lon="5.087322369217873">
        <ele>29.379999999999999</ele>
        <time>2019-04-22T15:33:32Z</time>
      </trkpt>
      <trkpt lat="50.818746769800782" lon="5.08757047355175">
        <ele>29.43</ele>
        <time>2019-04-22T15:33:50Z</time>
      </trkpt>
      <trkpt lat="50.818635625764728" lon="5.087640713900328">
        <ele>29.420000000000002</ele>
        <time>2019-04-22T15:33:56Z</time>
      </trkpt>
      <trkpt lat="50.818617520853877" lon="5.087625794112682">
        <ele>29.420000000000002</ele>
        <time>2019-04-22T15:33:57Z</time>
      </trkpt>
      <trkpt lat="50.818587765097618" lon="5.08758069947362">
        <ele>29.420000000000002</ele>
        <time>2019-04-22T15:33:59Z</time>
      </trkpt>
      <trkpt lat="50.818563541397452" lon="5.087545746937394">
        <ele>29.43</ele>
        <time>2019-04-22T15:34:00Z</time>
      </trkpt>
      <trkpt lat="50.818541329354048" lon="5.087504759430885">
        <ele>29.440000000000001</ele>
        <time>2019-04-22T15:34:01Z</time>
      </trkpt>
      <trkpt lat="50.818204041570425" lon="5.087038474157453">
        <ele>29.41</ele>
        <time>2019-04-22T15:34:13Z</time>
      </trkpt>
      <trkpt lat="50.817931042984128" lon="5.086716022342444">
        <ele>29.34</ele>
        <time>2019-04-22T15:34:24Z</time>
      </trkpt>
      <trkpt lat="50.81762183457613" lon="5.086605548858643">
        <ele>29.25</ele>
        <time>2019-04-22T15:34:36Z</time>
      </trkpt>
      <trkpt lat="50.817283121868968" lon="5.086518712341785">
        <ele>29.149999999999999</ele>
        <time>2019-04-22T15:34:46Z</time>
      </trkpt>
      <trkpt lat="50.816853046417236" lon="5.086143035441637">
        <ele>29.030000000000001</ele>
        <time>2019-04-22T15:34:58Z</time>
      </trkpt>
      <trkpt lat="50.816445518285036" lon="5.085540795698762">
        <ele>28.890000000000001</ele>
        <time>2019-04-22T15:35:12Z</time>
      </trkpt>
      <trkpt lat="50.81604553386569" lon="5.085216667503119">
        <ele>28.800000000000001</ele>
        <time>2019-04-22T15:35:24Z</time>
      </trkpt>
      <trkpt lat="50.81562333740294" lon="5.084966383874416">
        <ele>28.739999999999998</ele>
        <time>2019-04-22T15:35:37Z</time>
      </trkpt>
      <trkpt lat="50.815447904169559" lon="5.084651475772262">
        <ele>28.670000000000002</ele>
        <time>2019-04-22T15:35:46Z</time>
      </trkpt>
      <trkpt lat="50.815335754305124" lon="5.084253838285804">
        <ele>28.559999999999999</ele>
        <time>2019-04-22T15:35:56Z</time>
      </trkpt>
      <trkpt lat="50.815164092928171" lon="5.083726029843092">
        <ele>28.420000000000002</ele>
        <time>2019-04-22T15:36:06Z</time>
      </trkpt>
      <trkpt lat="50.815073568373919" lon="5.083364015445113">
        <ele>28.280000000000001</ele>
        <time>2019-04-22T15:36:15Z</time>
      </trkpt>
      <trkpt lat="50.815018750727177" lon="5.083187827840447">
        <ele>28.18</ele>
        <time>2019-04-22T15:36:20Z</time>
      </trkpt>
      <trkpt lat="50.814988827332854" lon="5.083161341026425">
        <ele>28.16</ele>
        <time>2019-04-22T15:36:21Z</time>
      </trkpt>
      <trkpt lat="50.814809203147888" lon="5.082545187324286">
        <ele>28.129999999999999</ele>
        <time>2019-04-22T15:36:22Z</time>
      </trkpt>
      <trkpt lat="50.814449870958924" lon="5.082660689949989">
        <ele>27.850000000000001</ele>
        <time>2019-04-22T15:36:33Z</time>
      </trkpt>
      <trkpt lat="50.814180392771959" lon="5.082602938637137">
        <ele>27.52</ele>
        <time>2019-04-22T15:36:44Z</time>
      </trkpt>
      <trkpt lat="50.813695499673486" lon="5.082675609737635">
        <ele>27.16</ele>
        <time>2019-04-22T15:36:56Z</time>
      </trkpt>
      <trkpt lat="50.813161320984364" lon="5.082515934482217">
        <ele>26.870000000000001</ele>
        <time>2019-04-22T15:37:10Z</time>
      </trkpt>
      <trkpt lat="50.812978176400065" lon="5.082444101572037">
        <ele>26.800000000000001</ele>
        <time>2019-04-22T15:37:15Z</time>
      </trkpt>
      <trkpt lat="50.812739292159677" lon="5.082512078806758">
        <ele>26.760000000000002</ele>
        <time>2019-04-22T15:37:21Z</time>
      </trkpt>
      <trkpt lat="50.812696125358343" lon="5.082500008866191">
        <ele>26.75</ele>
        <time>2019-04-22T15:37:22Z</time>
      </trkpt>
      <trkpt lat="50.812653545290232" lon="5.082475617527962">
        <ele>26.739999999999998</ele>
        <time>2019-04-22T15:37:23Z</time>
      </trkpt>
      <trkpt lat="50.812613731250167" lon="5.082439407706261">
        <ele>26.73</ele>
        <time>2019-04-22T15:37:24Z</time>
      </trkpt>
      <trkpt lat="50.812578275799751" lon="5.08240026421845">
        <ele>26.710000000000001</ele>
        <time>2019-04-22T15:37:25Z</time>
      </trkpt>
      <trkpt lat="50.812543742358685" lon="5.08235483430326">
        <ele>26.719999999999999</ele>
        <time>2019-04-22T15:37:26Z</time>
      </trkpt>
      <trkpt lat="50.812513651326299" lon="5.08230647072196">
        <ele>26.710000000000001</ele>
        <time>2019-04-22T15:37:27Z</time>
      </trkpt>
      <trkpt lat="50.812481213361025" lon="5.082254838198423">
        <ele>26.710000000000001</ele>
        <time>2019-04-22T15:37:28Z</time>
      </trkpt>
      <trkpt lat="50.812143674120307" lon="5.081995921209455">
        <ele>26.670000000000002</ele>
        <time>2019-04-22T15:37:38Z</time>
      </trkpt>
      <trkpt lat="50.811670934781432" lon="5.082203540951014">
        <ele>26.640000000000001</ele>
        <time>2019-04-22T15:37:51Z</time>
      </trkpt>
      <trkpt lat="50.811647633090615" lon="5.082254000008106">
        <ele>26.640000000000001</ele>
        <time>2019-04-22T15:37:52Z</time>
      </trkpt>
      <trkpt lat="50.811625253409147" lon="5.082310158759356">
        <ele>26.629999999999999</ele>
        <time>2019-04-22T15:37:53Z</time>
      </trkpt>
      <trkpt lat="50.811172714456916" lon="5.082528507336974">
        <ele>26.640000000000001</ele>
        <time>2019-04-22T15:38:08Z</time>
      </trkpt>
      <trkpt lat="50.811105826869607" lon="5.082482323050499">
        <ele>26.719999999999999</ele>
        <time>2019-04-22T15:38:10Z</time>
      </trkpt>
      <trkpt lat="50.81065303646028" lon="5.082413423806429">
        <ele>28.890000000000001</ele>
        <time>2019-04-22T15:38:22Z</time>
      </trkpt>
      <trkpt lat="50.810443069785833" lon="5.082384506240487">
        <ele>28.82</ele>
        <time>2019-04-22T15:38:33Z</time>
      </trkpt>
      <trkpt lat="50.810200162231922" lon="5.082279564812779">
        <ele>28.719999999999999</ele>
        <time>2019-04-22T15:38:50Z</time>
      </trkpt>
      <trkpt lat="50.809866394847631" lon="5.082046631723642">
        <ele>28.640000000000001</ele>
        <time>2019-04-22T15:39:11Z</time>
      </trkpt>
      <trkpt lat="50.809536734595895" lon="5.081677325069904">
        <ele>28.609999999999999</ele>
        <time>2019-04-22T15:39:34Z</time>
      </trkpt>
      <trkpt lat="50.809246553108096" lon="5.081442799419165">
        <ele>28.600000000000001</ele>
        <time>2019-04-22T15:39:53Z</time>
      </trkpt>
      <trkpt lat="50.809082603082061" lon="5.081040384247899">
        <ele>28.59</ele>
        <time>2019-04-22T15:40:11Z</time>
      </trkpt>
      <trkpt lat="50.808971542865038" lon="5.080824969336391">
        <ele>28.59</ele>
        <time>2019-04-22T15:40:23Z</time>
      </trkpt>
      <trkpt lat="50.808810107409954" lon="5.080683398991823">
        <ele>28.579999999999998</ele>
        <time>2019-04-22T15:40:38Z</time>
      </trkpt>
      <trkpt lat="50.808583628386259" lon="5.080456668511033">
        <ele>28.539999999999999</ele>
        <time>2019-04-22T15:40:53Z</time>
      </trkpt>
      <trkpt lat="50.808569882065058" lon="5.080437809228897">
        <ele>28.539999999999999</ele>
        <time>2019-04-22T15:40:54Z</time>
      </trkpt>
      <trkpt lat="50.808554962277412" lon="5.080421715974808">
        <ele>28.530000000000001</ele>
        <time>2019-04-22T15:40:55Z</time>
      </trkpt>
      <trkpt lat="50.808353209868073" lon="5.080299340188503">
        <ele>28.460000000000001</ele>
        <time>2019-04-22T15:41:08Z</time>
      </trkpt>
      <trkpt lat="50.808167550712824" lon="5.080195488408208">
        <ele>28.359999999999999</ele>
        <time>2019-04-22T15:41:20Z</time>
      </trkpt>
      <trkpt lat="50.807980634272099" lon="5.079894410446286">
        <ele>28.219999999999999</ele>
        <time>2019-04-22T15:41:34Z</time>
      </trkpt>
      <trkpt lat="50.807619038969278" lon="5.079330140724778">
        <ele>28.010000000000002</ele>
        <time>2019-04-22T15:42:02Z</time>
      </trkpt>
      <trkpt lat="50.807384848594666" lon="5.079311700537801">
        <ele>28</ele>
        <time>2019-04-22T15:42:16Z</time>
      </trkpt>
      <trkpt lat="50.807155268266797" lon="5.079020848497748">
        <ele>27.98</ele>
        <time>2019-04-22T15:42:33Z</time>
      </trkpt>
      <trkpt lat="50.807035323232412" lon="5.078578535467386">
        <ele>27.969999999999999</ele>
        <time>2019-04-22T15:42:49Z</time>
      </trkpt>
      <trkpt lat="50.806876821443439" lon="5.0782186165452">
        <ele>27.98</ele>
        <time>2019-04-22T15:43:05Z</time>
      </trkpt>
      <trkpt lat="50.806748578324914" lon="5.077828103676438">
        <ele>28.760000000000002</ele>
        <time>2019-04-22T15:43:23Z</time>
      </trkpt>
      <trkpt lat="50.806671464815736" lon="5.077506406232715">
        <ele>28.760000000000002</ele>
        <time>2019-04-22T15:43:36Z</time>
      </trkpt>
      <trkpt lat="50.806559566408396" lon="5.077058644965291">
        <ele>30.870000000000001</ele>
        <time>2019-04-22T15:43:54Z</time>
      </trkpt>
      <trkpt lat="50.80655193887651" lon="5.077031822875142">
        <ele>26.84</ele>
        <time>2019-04-22T15:43:55Z</time>
      </trkpt>
      <trkpt lat="50.806543305516243" lon="5.077007599174976">
        <ele>26.809999999999999</ele>
        <time>2019-04-22T15:43:56Z</time>
      </trkpt>
      <trkpt lat="50.806502569466829" lon="5.076888408511877">
        <ele>29.960000000000001</ele>
        <time>2019-04-22T15:44:01Z</time>
      </trkpt>
      <trkpt lat="50.80649527721107" lon="5.076864520087838">
        <ele>29.949999999999999</ele>
        <time>2019-04-22T15:44:02Z</time>
      </trkpt>
      <trkpt lat="50.806437861174345" lon="5.076724626123905">
        <ele>27.52</ele>
        <time>2019-04-22T15:44:08Z</time>
      </trkpt>
      <trkpt lat="50.8063452411443" lon="5.076520694419742">
        <ele>34.130000000000003</ele>
        <time>2019-04-22T15:44:17Z</time>
      </trkpt>
      <trkpt lat="50.806336188688874" lon="5.076499320566654">
        <ele>30.32</ele>
        <time>2019-04-22T15:44:18Z</time>
      </trkpt>
      <trkpt lat="50.806316155940294" lon="5.076453052461147">
        <ele>28.699999999999999</ele>
        <time>2019-04-22T15:44:20Z</time>
      </trkpt>
      <trkpt lat="50.806204006075859" lon="5.076092379167676">
        <ele>28.73</ele>
        <time>2019-04-22T15:44:36Z</time>
      </trkpt>
      <trkpt lat="50.806187661364675" lon="5.07565132342279">
        <ele>28.710000000000001</ele>
        <time>2019-04-22T15:44:52Z</time>
      </trkpt>
      <trkpt lat="50.806135023012757" lon="5.075265588238835">
        <ele>28.710000000000001</ele>
        <time>2019-04-22T15:45:07Z</time>
      </trkpt>
      <trkpt lat="50.80607358366251" lon="5.07498387247324">
        <ele>28.68</ele>
        <time>2019-04-22T15:45:19Z</time>
      </trkpt>
      <trkpt lat="50.806069979444146" lon="5.074960151687264">
        <ele>28.670000000000002</ele>
        <time>2019-04-22T15:45:20Z</time>
      </trkpt>
      <trkpt lat="50.806066375225782" lon="5.07493550889194">
        <ele>28.649999999999999</ele>
        <time>2019-04-22T15:45:21Z</time>
      </trkpt>
      <trkpt lat="50.806060256436467" lon="5.074911117553711">
        <ele>28.640000000000001</ele>
        <time>2019-04-22T15:45:22Z</time>
      </trkpt>
      <trkpt lat="50.80605355091393" lon="5.074887480586767">
        <ele>28.629999999999999</ele>
        <time>2019-04-22T15:45:23Z</time>
      </trkpt>
      <trkpt lat="50.80605112016201" lon="5.074864346534014">
        <ele>28.640000000000001</ele>
        <time>2019-04-22T15:45:24Z</time>
      </trkpt>
      <trkpt lat="50.806046426296234" lon="5.074841547757387">
        <ele>28.670000000000002</ele>
        <time>2019-04-22T15:45:25Z</time>
      </trkpt>
      <trkpt lat="50.806040223687887" lon="5.074817826971412">
        <ele>28.640000000000001</ele>
        <time>2019-04-22T15:45:26Z</time>
      </trkpt>
      <trkpt lat="50.805923966690898" lon="5.07452504709363">
        <ele>28.649999999999999</ele>
        <time>2019-04-22T15:45:42Z</time>
      </trkpt>
      <trkpt lat="50.805802009999752" lon="5.074096815660596">
        <ele>28.579999999999998</ele>
        <time>2019-04-22T15:45:59Z</time>
      </trkpt>
      <trkpt lat="50.805751048028469" lon="5.073727509006858">
        <ele>28.469999999999999</ele>
        <time>2019-04-22T15:46:13Z</time>
      </trkpt>
      <trkpt lat="50.805651722475886" lon="5.073478985577822">
        <ele>28.379999999999999</ele>
        <time>2019-04-22T15:46:27Z</time>
      </trkpt>
      <trkpt lat="50.805640826001763" lon="5.073465406894684">
        <ele>28.370000000000001</ele>
        <time>2019-04-22T15:46:28Z</time>
      </trkpt>
      <trkpt lat="50.805628588423133" lon="5.073451325297356">
        <ele>28.370000000000001</ele>
        <time>2019-04-22T15:46:29Z</time>
      </trkpt>
      <trkpt lat="50.805288786068559" lon="5.073157204315066">
        <ele>28.27</ele>
        <time>2019-04-22T15:46:51Z</time>
      </trkpt>
      <trkpt lat="50.805036239326" lon="5.072761494666338">
        <ele>28.25</ele>
        <time>2019-04-22T15:47:12Z</time>
      </trkpt>
      <trkpt lat="50.804819986224174" lon="5.072578517720103">
        <ele>28.210000000000001</ele>
        <time>2019-04-22T15:47:29Z</time>
      </trkpt>
      <trkpt lat="50.804554866626859" lon="5.072804661467671">
        <ele>28.280000000000001</ele>
        <time>2019-04-22T15:47:48Z</time>
      </trkpt>
      <trkpt lat="50.80449728295207" lon="5.072836596518755">
        <ele>30.59</ele>
        <time>2019-04-22T15:47:52Z</time>
      </trkpt>
      <trkpt lat="50.80426225438714" lon="5.072967438027263">
        <ele>30.510000000000002</ele>
        <time>2019-04-22T15:48:08Z</time>
      </trkpt>
      <trkpt lat="50.804005013778806" lon="5.073203388601542">
        <ele>30.530000000000001</ele>
        <time>2019-04-22T15:48:27Z</time>
      </trkpt>
      <trkpt lat="50.803738469257951" lon="5.073516452684999">
        <ele>30.620000000000001</ele>
        <time>2019-04-22T15:48:47Z</time>
      </trkpt>
      <trkpt lat="50.803461028262973" lon="5.073657687753439">
        <ele>30.579999999999998</ele>
        <time>2019-04-22T15:49:07Z</time>
      </trkpt>
      <trkpt lat="50.803261119872332" lon="5.073760198429227">
        <ele>30.620000000000001</ele>
        <time>2019-04-22T15:49:21Z</time>
      </trkpt>
      <trkpt lat="50.803223568946123" lon="5.073766568675637">
        <ele>30.600000000000001</ele>
        <time>2019-04-22T15:49:24Z</time>
      </trkpt>
      <trkpt lat="50.802994910627604" lon="5.073774699121714">
        <ele>30.670000000000002</ele>
        <time>2019-04-22T15:49:39Z</time>
      </trkpt>
      <trkpt lat="50.802756529301405" lon="5.073827337473631">
        <ele>30.670000000000002</ele>
        <time>2019-04-22T15:49:54Z</time>
      </trkpt>
      <trkpt lat="50.802517645061016" lon="5.073851142078638">
        <ele>31.440000000000001</ele>
        <time>2019-04-22T15:50:10Z</time>
      </trkpt>
      <trkpt lat="50.802465928718448" lon="5.073774447664619">
        <ele>31.43</ele>
        <time>2019-04-22T15:50:15Z</time>
      </trkpt>
      <trkpt lat="50.802458552643657" lon="5.073756845667958">
        <ele>31.440000000000001</ele>
        <time>2019-04-22T15:50:16Z</time>
      </trkpt>
      <trkpt lat="50.802414044737816" lon="5.0736528262496">
        <ele>31.420000000000002</ele>
        <time>2019-04-22T15:50:22Z</time>
      </trkpt>
      <trkpt lat="50.802324023097754" lon="5.073426095768809">
        <ele>31.370000000000001</ele>
        <time>2019-04-22T15:50:36Z</time>
      </trkpt>
      <trkpt lat="50.802246741950512" lon="5.073153348639607">
        <ele>31.379999999999999</ele>
        <time>2019-04-22T15:50:51Z</time>
      </trkpt>
      <trkpt lat="50.802138112485409" lon="5.072789574041963">
        <ele>31.219999999999999</ele>
        <time>2019-04-22T15:51:05Z</time>
      </trkpt>
      <trkpt lat="50.801976090297103" lon="5.072422865778208">
        <ele>31.129999999999999</ele>
        <time>2019-04-22T15:51:20Z</time>
      </trkpt>
      <trkpt lat="50.801863772794604" lon="5.07203159853816">
        <ele>31</ele>
        <time>2019-04-22T15:51:34Z</time>
      </trkpt>
      <trkpt lat="50.801753299310803" lon="5.071779638528824">
        <ele>31.739999999999998</ele>
        <time>2019-04-22T15:51:47Z</time>
      </trkpt>
      <trkpt lat="50.801629330962896" lon="5.071426257491112">
        <ele>31.579999999999998</ele>
        <time>2019-04-22T15:52:02Z</time>
      </trkpt>
      <trkpt lat="50.801489688456059" lon="5.071044964715838">
        <ele>31.43</ele>
        <time>2019-04-22T15:52:19Z</time>
      </trkpt>
      <trkpt lat="50.801352979615331" lon="5.07071865722537">
        <ele>31.359999999999999</ele>
        <time>2019-04-22T15:52:34Z</time>
      </trkpt>
      <trkpt lat="50.801180815324187" lon="5.070377513766289">
        <ele>31.27</ele>
        <time>2019-04-22T15:52:50Z</time>
      </trkpt>
      <trkpt lat="50.800998006016016" lon="5.070086494088173">
        <ele>31.199999999999999</ele>
        <time>2019-04-22T15:53:06Z</time>
      </trkpt>
      <trkpt lat="50.800832379609346" lon="5.069821793586016">
        <ele>31.93</ele>
        <time>2019-04-22T15:53:20Z</time>
      </trkpt>
      <trkpt lat="50.800657197833061" lon="5.069548794999719">
        <ele>31.879999999999999</ele>
        <time>2019-04-22T15:53:34Z</time>
      </trkpt>
      <trkpt lat="50.800452847033739" lon="5.069231037050486">
        <ele>32.530000000000001</ele>
        <time>2019-04-22T15:53:51Z</time>
      </trkpt>
      <trkpt lat="50.800278838723898" lon="5.068975724279881">
        <ele>32.409999999999997</ele>
        <time>2019-04-22T15:54:06Z</time>
      </trkpt>
      <trkpt lat="50.800066189840436" lon="5.068661654368043">
        <ele>32.390000000000001</ele>
        <time>2019-04-22T15:54:23Z</time>
      </trkpt>
      <trkpt lat="50.799848763272166" lon="5.068317325785756">
        <ele>32.350000000000001</ele>
        <time>2019-04-22T15:54:42Z</time>
      </trkpt>
      <trkpt lat="50.799627061933279" lon="5.067992275580764">
        <ele>33.369999999999997</ele>
        <time>2019-04-22T15:55:00Z</time>
      </trkpt>
      <trkpt lat="50.79943117685616" lon="5.06769840605557">
        <ele>33.299999999999997</ele>
        <time>2019-04-22T15:55:16Z</time>
      </trkpt>
      <trkpt lat="50.799274099990726" lon="5.067411661148071">
        <ele>33.310000000000002</ele>
        <time>2019-04-22T15:55:32Z</time>
      </trkpt>
      <trkpt lat="50.799055835232139" lon="5.06710471585393">
        <ele>33.350000000000001</ele>
        <time>2019-04-22T15:55:49Z</time>
      </trkpt>
      <trkpt lat="50.798847377300262" lon="5.066786119714379">
        <ele>33.329999999999998</ele>
        <time>2019-04-22T15:56:06Z</time>
      </trkpt>
      <trkpt lat="50.798681080341339" lon="5.066535165533423">
        <ele>33.340000000000003</ele>
        <time>2019-04-22T15:56:21Z</time>
      </trkpt>
      <trkpt lat="50.798481842502952" lon="5.066232997924089">
        <ele>33.329999999999998</ele>
        <time>2019-04-22T15:56:38Z</time>
      </trkpt>
      <trkpt lat="50.798337506130338" lon="5.065998891368508">
        <ele>34.140000000000001</ele>
        <time>2019-04-22T15:56:52Z</time>
      </trkpt>
      <trkpt lat="50.798165341839194" lon="5.065727904438973">
        <ele>34.149999999999999</ele>
        <time>2019-04-22T15:57:07Z</time>
      </trkpt>
      <trkpt lat="50.798018742352724" lon="5.065482817590237">
        <ele>34.960000000000001</ele>
        <time>2019-04-22T15:57:22Z</time>
      </trkpt>
      <trkpt lat="50.797822270542383" lon="5.06518785841763">
        <ele>34.960000000000001</ele>
        <time>2019-04-22T15:57:37Z</time>
      </trkpt>
      <trkpt lat="50.797549691051245" lon="5.064790304750204">
        <ele>34.950000000000003</ele>
        <time>2019-04-22T15:57:58Z</time>
      </trkpt>
      <trkpt lat="50.797337461262941" lon="5.064473804086447">
        <ele>34.93</ele>
        <time>2019-04-22T15:58:16Z</time>
      </trkpt>
      <trkpt lat="50.797147359699011" lon="5.064184628427029">
        <ele>34.93</ele>
        <time>2019-04-22T15:58:32Z</time>
      </trkpt>
      <trkpt lat="50.796955665573478" lon="5.063887406140566">
        <ele>34.93</ele>
        <time>2019-04-22T15:58:49Z</time>
      </trkpt>
      <trkpt lat="50.796745028346777" lon="5.063580041751266">
        <ele>35</ele>
        <time>2019-04-22T15:59:07Z</time>
      </trkpt>
      <trkpt lat="50.796524165198207" lon="5.063248369842768">
        <ele>35.009999999999998</ele>
        <time>2019-04-22T15:59:26Z</time>
      </trkpt>
      <trkpt lat="50.796314869076014" lon="5.062894318252802">
        <ele>35.030000000000001</ele>
        <time>2019-04-22T15:59:45Z</time>
      </trkpt>
      <trkpt lat="50.796113535761833" lon="5.06258980371058">
        <ele>35.049999999999997</ele>
        <time>2019-04-22T16:00:03Z</time>
      </trkpt>
      <trkpt lat="50.795984454452991" lon="5.062362989410758">
        <ele>35.079999999999998</ele>
        <time>2019-04-22T16:00:17Z</time>
      </trkpt>
      <trkpt lat="50.795821510255337" lon="5.06211438216269">
        <ele>35.07</ele>
        <time>2019-04-22T16:00:34Z</time>
      </trkpt>
      <trkpt lat="50.795811787247658" lon="5.062095103785396">
        <ele>35.07</ele>
        <time>2019-04-22T16:00:35Z</time>
      </trkpt>
      <trkpt lat="50.795801226049662" lon="5.062079010531306">
        <ele>35.07</ele>
        <time>2019-04-22T16:00:36Z</time>
      </trkpt>
      <trkpt lat="50.79579041339457" lon="5.062062498182058">
        <ele>35.07</ele>
        <time>2019-04-22T16:00:37Z</time>
      </trkpt>
      <trkpt lat="50.795779936015606" lon="5.06204791367054">
        <ele>35.060000000000002</ele>
        <time>2019-04-22T16:00:38Z</time>
      </trkpt>
      <trkpt lat="50.795767363160849" lon="5.062032071873546">
        <ele>35.060000000000002</ele>
        <time>2019-04-22T16:00:39Z</time>
      </trkpt>
      <trkpt lat="50.795752946287394" lon="5.062016481533647">
        <ele>35.060000000000002</ele>
        <time>2019-04-22T16:00:40Z</time>
      </trkpt>
      <trkpt lat="50.795738026499748" lon="5.062000136822462">
        <ele>35.060000000000002</ele>
        <time>2019-04-22T16:00:41Z</time>
      </trkpt>
      <trkpt lat="50.795724363997579" lon="5.061981864273548">
        <ele>35.060000000000002</ele>
        <time>2019-04-22T16:00:42Z</time>
      </trkpt>
      <trkpt lat="50.795710114762187" lon="5.061961663886905">
        <ele>35.060000000000002</ele>
        <time>2019-04-22T16:00:43Z</time>
      </trkpt>
      <trkpt lat="50.795486066490412" lon="5.061603588983417">
        <ele>35.049999999999997</ele>
        <time>2019-04-22T16:01:01Z</time>
      </trkpt>
      <trkpt lat="50.795232262462378" lon="5.061232689768076">
        <ele>35.039999999999999</ele>
        <time>2019-04-22T16:01:21Z</time>
      </trkpt>
      <trkpt lat="50.794970663264394" lon="5.061103692278266">
        <ele>35.990000000000002</ele>
        <time>2019-04-22T16:01:37Z</time>
      </trkpt>
      <trkpt lat="50.794603284448385" lon="5.061045521870256">
        <ele>36.009999999999998</ele>
        <time>2019-04-22T16:01:59Z</time>
      </trkpt>
      <trkpt lat="50.794486859813333" lon="5.060907639563084">
        <ele>36.899999999999999</ele>
        <time>2019-04-22T16:02:13Z</time>
      </trkpt>
      <trkpt lat="50.794484848156571" lon="5.060846786946058">
        <ele>36.880000000000003</ele>
        <time>2019-04-22T16:02:17Z</time>
      </trkpt>
      <trkpt lat="50.79450043849647" lon="5.060445293784142">
        <ele>36.869999999999997</ele>
        <time>2019-04-22T16:02:35Z</time>
      </trkpt>
      <trkpt lat="50.794539330527186" lon="5.060087805613875">
        <ele>36.859999999999999</ele>
        <time>2019-04-22T16:02:50Z</time>
      </trkpt>
      <trkpt lat="50.794541593641043" lon="5.059741297736764">
        <ele>36.859999999999999</ele>
        <time>2019-04-22T16:03:05Z</time>
      </trkpt>
      <trkpt lat="50.794548718258739" lon="5.059331171214581">
        <ele>36.859999999999999</ele>
        <time>2019-04-22T16:03:22Z</time>
      </trkpt>
      <trkpt lat="50.794567996636033" lon="5.058898162096739">
        <ele>36.82</ele>
        <time>2019-04-22T16:03:39Z</time>
      </trkpt>
      <trkpt lat="50.794570678845048" lon="5.05858208052814">
        <ele>36.810000000000002</ele>
        <time>2019-04-22T16:03:52Z</time>
      </trkpt>
      <trkpt lat="50.7945766299963" lon="5.058476636186242">
        <ele>36.82</ele>
        <time>2019-04-22T16:03:56Z</time>
      </trkpt>
      <trkpt lat="50.794581826776266" lon="5.058442018926144">
        <ele>36.810000000000002</ele>
        <time>2019-04-22T16:03:57Z</time>
      </trkpt>
      <trkpt lat="50.794599009677768" lon="5.05803382024169">
        <ele>36.789999999999999</ele>
        <time>2019-04-22T16:04:12Z</time>
      </trkpt>
      <trkpt lat="50.794619796797633" lon="5.057734083384275">
        <ele>36.789999999999999</ele>
        <time>2019-04-22T16:04:25Z</time>
      </trkpt>
      <trkpt lat="50.794624155387282" lon="5.057711116969585">
        <ele>36.789999999999999</ele>
        <time>2019-04-22T16:04:26Z</time>
      </trkpt>
      <trkpt lat="50.79461962915957" lon="5.057625286281109">
        <ele>36.780000000000001</ele>
        <time>2019-04-22T16:04:29Z</time>
      </trkpt>
      <trkpt lat="50.794641757383943" lon="5.057234605774283">
        <ele>34.479999999999997</ele>
        <time>2019-04-22T16:04:45Z</time>
      </trkpt>
      <trkpt lat="50.794638739898801" lon="5.057198815047741">
        <ele>34.469999999999999</ele>
        <time>2019-04-22T16:04:46Z</time>
      </trkpt>
      <trkpt lat="50.794643349945545" lon="5.057164281606674">
        <ele>34.460000000000001</ele>
        <time>2019-04-22T16:04:47Z</time>
      </trkpt>
      <trkpt lat="50.794644020497799" lon="5.05713033489883">
        <ele>34.469999999999999</ele>
        <time>2019-04-22T16:04:48Z</time>
      </trkpt>
      <trkpt lat="50.794641925022006" lon="5.057090688496828">
        <ele>34.469999999999999</ele>
        <time>2019-04-22T16:04:49Z</time>
      </trkpt>
      <trkpt lat="50.794749381020665" lon="5.054669491946697">
        <ele>34.479999999999997</ele>
        <time>2019-04-22T16:04:50Z</time>
      </trkpt>
      <trkpt lat="50.794610995799303" lon="5.054174121469259">
        <ele>34.479999999999997</ele>
        <time>2019-04-22T16:04:51Z</time>
      </trkpt>
      <trkpt lat="50.793218007311225" lon="5.050583984702826">
        <ele>34.409999999999997</ele>
        <time>2019-04-22T16:05:04Z</time>
      </trkpt>
      <trkpt lat="50.791627960279584" lon="5.04807117395103">
        <ele>41.86328125</ele>
      </trkpt>
    </trkseg>
  </trk>

</gpx>